[[{"header":{"parameterUnit":"m.s-1","parameterCategory":1,"la1":30.6,"la2":28.766,"lo1":-90.7593,"lo2":-88.6598,"dy":0.0162,"dx":0.0183,"nx":116,"ny":114,"refTime":"2023-06-07T18:00:00:Z","depth":0,"parameterNumber":2,"parameterNumberName":"U-component_of_WINDS"},"data":[0.0,0.0,0.0,0.0,0.0,0.0,0.0,0.0,0.0,0.0,0.0,0.0,0.0,0.0,0.0,0.0,0.0,0.0,0.0,0.0,0.0,0.0,0.0,0.0,0.0,0.0,0.0,0.0,0.0,0.0,0.0,0.0,0.0,0.0,0.0,0.0,0.0,0.0,0.0,0.0,0.0,0.0,0.0,0.0,0.0,0.0,0.0,0.0,0.0,0.0,0.0,0.0,0.0,0.0,0.0,0.0,0.0,0.0,0.0,0.0,0.0,0.0,0.0,0.0,0.0,0.0,0.0,0.0,0.0,0.0,0.0,0.0,0.0,0.0,0.0,0.0,0.0,0.0,0.0,0.0,0.0,0.0,0.0,0.0,0.0,0.0,0.0,0.0,0.0,0.0,0.0,0.0,0.0,0.0,0.0,0.0,0.0,0.0,0.0,0.0,0.0,0.0,0.0,0.0,0.0,0.0,0.0,0.0,0.0,0.0,0.0,0.0,0.0,0.0,0.0,0.0,0.0,0.0,0.0,0.0,0.0,0.0,0.0,0.0,0.0,0.0,0.0,0.0,0.0,0.0,0.0,0.0,0.0,0.0,0.0,0.0,0.0,0.0,0.0,0.0,0.0,0.0,0.0,0.0,0.0,0.0,0.0,0.0,0.0,0.0,0.0,0.0,0.0,0.0,0.0,0.0,0.0,0.0,0.0,0.0,0.0,0.0,0.0,0.0,0.0,0.0,0.0,0.0,0.0,0.0,0.0,0.0,0.0,0.0,0.0,0.0,0.0,0.0,0.0,0.0,0.0,0.0,0.0,0.0,0.0,0.0,0.0,0.0,0.0,0.0,0.0,0.0,0.0,0.0,0.0,0.0,0.0,0.0,0.0,0.0,0.0,0.0,0.0,0.0,0.0,0.0,0.0,0.0,0.0,0.0,0.0,0.0,0.0,0.0,0.0,0.0,0.0,0.0,0.0,0.0,0.0,0.0,0.0,0.0,0.0,0.0,0.0,0.0,0.0,0.0,0.0,0.0,0.0,0.0,0.0,0.0,0.0,0.0,0.0,0.0,0.0,0.0,0.0,0.0,0.0,0.0,0.0,0.0,0.0,0.0,0.0,0.0,0.0,0.0,0.0,0.0,0.0,0.0,0.0,0.0,0.0,0.0,0.0,0.0,0.0,0.0,0.0,0.0,0.0,0.0,0.0,0.0,0.0,0.0,0.0,0.0,0.0,0.0,0.0,0.0,0.0,0.0,0.0,0.0,0.0,0.0,0.0,0.0,0.0,0.0,0.0,0.0,0.0,0.0,0.0,0.0,0.0,0.0,0.0,0.0,0.0,0.0,0.0,0.0,0.0,0.0,0.0,0.0,0.0,0.0,0.0,0.0,0.0,0.0,0.0,0.0,0.0,0.0,0.0,0.0,0.0,0.0,0.0,0.0,0.0,0.0,0.0,0.0,0.0,0.0,0.0,0.0,0.0,0.0,0.0,0.0,0.0,0.0,0.0,0.0,0.0,0.0,0.0,0.0,0.0,0.0,0.0,0.0,0.0,0.0,0.0,0.0,0.0,0.0,0.0,0.0,0.0,0.0,0.0,0.0,0.0,0.0,0.0,0.0,0.0,0.0,0.0,0.0,0.0,0.0,0.0,0.0,0.0,0.0,0.0,0.0,0.0,0.0,0.0,0.0,0.0,0.0,0.0,0.0,0.0,0.0,0.0,0.0,0.0,0.0,0.0,0.0,0.0,0.0,0.0,0.0,0.0,0.0,0.0,0.0,0.0,0.0,0.0,0.0,0.0,0.0,0.0,0.0,0.0,0.0,0.0,0.0,0.0,0.0,0.0,0.0,0.0,0.0,0.0,0.0,0.0,0.0,0.0,0.0,0.0,0.0,0.0,0.0,0.0,0.0,0.0,0.0,0.0,0.0,0.0,0.0,0.0,0.0,0.0,0.0,0.0,0.0,0.0,0.0,0.0,0.0,0.0,0.0,0.0,0.0,0.0,0.0,0.0,0.0,0.0,0.0,0.0,0.0,0.0,0.0,0.0,0.0,0.0,0.0,0.0,0.0,0.0,0.0,0.0,0.0,0.0,0.0,0.0,0.0,0.0,0.0,0.0,0.0,0.0,0.0,0.0,0.0,0.0,0.0,0.0,0.0,0.0,0.0,0.0,0.0,0.0,0.0,0.0,0.0,0.0,0.0,0.0,0.0,0.0,0.0,0.0,0.0,0.0,0.0,0.0,0.0,0.0,0.0,0.0,0.0,0.0,0.0,0.0,0.0,0.0,0.0,0.0,0.0,0.0,0.0,0.0,0.0,0.0,0.0,0.0,0.0,0.0,0.0,0.0,0.0,0.0,0.0,0.0,0.0,0.0,0.0,0.0,0.0,0.0,0.0,0.0,0.0,0.0,0.0,0.0,0.0,0.0,0.0,0.0,0.0,0.0,0.0,0.0,0.0,0.0,0.0,0.0,0.0,0.0,0.0,0.0,0.0,0.0,0.0,0.0,0.0,0.0,0.0,0.0,0.0,0.0,0.0,0.0,0.0,0.0,0.0,0.0,0.0,0.0,0.0,0.0,0.0,0.0,0.0,0.0,0.0,0.0,0.0,0.0,0.0,0.0,0.0,0.0,0.0,0.0,0.0,0.0,0.0,0.0,0.0,0.0,0.0,0.0,0.0,0.0,0.0,0.0,0.0,0.0,0.0,0.0,0.0,0.0,0.0,0.0,0.0,0.0,0.0,0.0,0.0,0.0,0.0,0.0,0.0,0.0,0.0,0.0,0.0,0.0,0.0,0.0,0.0,0.0,0.0,0.0,0.0,0.0,0.0,0.0,0.0,0.0,0.0,0.0,0.0,0.0,0.0,0.0,0.0,0.0,0.0,0.0,0.0,0.0,0.0,0.0,0.0,0.0,0.0,0.0,0.0,0.0,0.0,0.0,0.0,0.0,0.0,0.0,0.0,0.0,0.0,0.0,0.0,0.0,0.0,0.0,0.0,0.0,0.0,0.0,0.0,0.0,0.0,0.0,0.0,0.0,0.0,0.0,0.0,0.0,0.0,0.0,0.0,0.0,0.0,0.0,0.0,0.0,0.0,0.0,0.0,0.0,0.0,0.0,0.0,0.0,0.0,0.0,0.0,0.0,0.0,0.0,0.0,0.0,0.0,0.0,0.0,0.0,0.0,0.0,0.0,0.0,0.0,0.0,0.0,0.0,0.0,0.0,0.0,0.0,0.0,0.0,0.0,0.0,0.0,0.0,0.0,0.0,0.0,0.0,0.0,0.0,0.0,0.0,0.0,0.0,0.0,0.0,0.0,0.0,0.0,0.0,0.0,0.0,0.0,0.0,0.0,0.0,0.0,0.0,0.0,0.0,0.0,0.0,0.0,0.0,0.0,0.0,0.0,0.0,0.0,0.0,0.0,0.0,0.0,0.0,0.0,0.0,0.0,0.0,0.0,0.0,0.0,0.0,0.0,0.0,0.0,0.0,0.0,0.0,0.0,0.0,0.0,0.0,0.0,0.0,0.0,0.0,0.0,0.0,0.0,0.0,0.0,0.0,0.0,0.0,0.0,0.0,0.0,0.0,0.0,0.0,0.0,0.0,0.0,0.0,0.0,0.0,0.0,0.0,0.0,0.0,0.0,0.0,0.0,0.0,0.0,0.0,0.0,0.0,0.0,0.0,0.0,0.0,0.0,0.0,0.0,0.0,0.0,0.0,0.0,0.0,0.0,0.0,0.0,0.0,0.0,0.0,0.0,0.0,0.0,0.0,0.0,0.0,0.0,0.0,0.0,0.0,0.0,0.0,0.0,0.0,0.0,0.0,0.0,0.0,0.0,0.0,0.0,0.0,0.0,0.0,0.0,0.0,0.0,0.0,0.0,0.0,0.0,0.0,0.0,0.0,0.0,0.0,0.0,0.0,0.0,0.0,0.0,0.0,0.0,0.0,0.0,0.0,0.0,0.0,0.0,0.0,0.0,0.0,0.0,0.0,0.0,0.0,0.0,0.0,0.0,0.0,0.0,0.0,0.0,0.0,0.0,0.0,0.0,0.0,0.0,0.0,0.0,0.0,0.0,0.0,0.0,0.0,0.0,0.0,0.0,0.0,0.0,0.0,0.0,0.0,0.0,0.0,0.0,0.0,0.0,0.0,0.0,0.0,0.0,0.0,0.0,0.0,0.0,0.0,0.0,0.0,0.0,0.0,0.0,0.0,0.0,0.0,0.0,0.0,0.0,0.0,0.0,0.0,0.0,0.0,0.0,0.0,0.0,0.0,0.0,0.0,0.0,0.0,0.0,0.0,0.0,0.0,0.0,0.0,0.0,0.0,0.0,0.0,0.0,0.0,0.0,0.0,0.0,0.0,0.0,0.0,0.0,0.0,0.0,0.0,0.0,0.0,0.0,0.0,0.0,0.0,0.0,0.0,0.0,0.0,0.0,0.0,0.0,0.0,0.0,0.0,0.0,0.0,0.0,0.0,0.0,0.0,0.0,0.0,0.0,0.0,0.0,0.0,0.0,0.0,0.0,0.0,0.0,0.0,0.0,0.0,0.0,0.0,0.0,0.0,0.0,0.0,0.0,0.0,0.0,0.0,0.0,0.0,0.0,0.0,0.0,0.0,0.0,0.0,0.0,0.0,0.0,0.0,0.0,0.0,0.0,0.0,0.0,0.0,0.0,0.0,0.0,0.0,0.0,0.0,0.0,0.0,0.0,0.0,0.0,0.0,0.0,0.0,0.0,0.0,0.0,0.0,0.0,0.0,0.0,0.0,0.0,0.0,0.0,0.0,0.0,0.0,0.0,0.0,0.0,0.0,0.0,0.0,0.0,0.0,0.0,0.0,0.0,0.0,0.0,0.0,0.0,0.0,0.0,0.0,0.0,0.0,0.0,0.0,0.0,0.0,0.0,0.0,0.0,0.0,0.0,0.0,0.0,0.0,0.0,0.0,0.0,0.0,0.0,0.0,0.0,0.0,0.0,0.0,0.0,0.0,0.0,0.0,0.0,0.0,0.0,0.0,0.0,0.0,0.0,0.0,0.0,0.0,0.0,0.0,0.0,0.0,0.0,0.0,0.0,0.0,0.0,0.0,0.0,0.0,0.0,0.0,0.0,0.0,0.0,0.0,0.0,0.0,0.0,0.0,0.0,0.0,0.0,0.0,0.0,0.0,0.0,0.0,0.0,0.0,0.0,0.0,0.0,0.0,0.0,0.0,0.0,0.0,0.0,0.0,0.0,0.0,0.0,0.0,0.0,0.0,0.0,0.0,0.0,0.0,0.0,0.0,0.0,0.0,0.0,0.0,0.0,0.0,0.0,0.0,0.0,0.0,0.0,0.0,0.0,0.0,0.0,0.0,0.0,0.0,0.0,0.0,0.0,0.0,0.0,0.0,0.0,0.0,0.0,0.0,0.0,0.0,0.0,0.0,0.0,0.0,0.0,0.0,0.0,0.0,0.0,0.0,0.0,0.0,0.0,0.0,0.0,0.0,0.0,0.0,0.0,0.0,0.0,0.0,0.0,0.0,0.0,0.0,0.0,0.0,0.0,0.0,0.0,0.0,0.0,0.0,0.0,0.0,0.0,0.0,0.0,0.0,0.0,0.0,0.0,0.0,0.0,0.0,0.0,0.0,0.0,0.0,0.0,0.0,0.0,0.0,0.0,0.0,0.0,0.0,0.0,0.0,0.0,0.0,0.0,0.0,0.0,0.0,0.0,0.0,0.0,0.0,0.0,0.0,0.0,0.0,0.0,0.0,0.0,0.0,0.0,0.0,0.0,0.0,0.0,0.0,0.0,0.0,0.0,0.0,0.0,0.0,0.0,0.0,0.0,0.0,0.0,0.0,0.0,0.0,0.0,0.0,0.0,0.0,0.0,0.0,0.0,0.0,0.0,0.0,0.0,0.0,0.0,0.0,0.0,0.0,0.0,0.0,0.0,0.0,0.0,0.0,0.0,0.0,0.0,0.0,0.0,0.0,0.0,0.0,0.0,0.0,0.0,0.0,0.0,0.0,0.0,0.0,0.0,0.0,0.0,0.0,0.0,0.0,0.0,0.0,0.0,0.0,0.0,0.0,0.0,0.0,0.0,0.0,0.0,0.0,0.0,0.0,0.0,0.7571,0.0,0.0,0.0,0.0,0.0,0.0,0.0,0.0,0.0,0.0,0.0,0.0,0.0,0.0,0.0,0.0,0.0,0.0,0.0,0.0,0.0,0.0,0.0,0.0,0.0,0.0,0.0,0.0,0.0,0.0,0.0,0.0,0.0,0.0,0.0,0.0,0.0,0.0,0.0,1.8167,1.848,1.8191,1.8994,1.9572,1.988,0.0,0.0,0.0,0.0,0.0,0.0,0.0,0.0,0.0,0.0,0.0,0.0,0.0,0.0,0.0,0.0,0.0,0.0,0.0,0.0,0.0,0.0,0.0,0.0,0.0,0.0,0.0,0.0,0.0,0.0,0.0,0.0,0.0,0.0,0.0,0.0,0.0,0.0,0.0,0.0,0.0,0.0,0.0,0.0,0.0,0.0,0.0,0.0,0.0,0.0,0.0,0.0,0.0,0.0,0.0,0.0,0.0,0.0,0.0,0.0,0.0,0.0,0.0,0.0,0.0,0.0,0.0,0.0,0.0,0.0,0.0,0.6801,0.0,0.0,0.0,0.0,0.0,0.0,0.0,0.0,0.0,0.0,0.0,0.0,0.0,0.0,0.0,0.0,0.0,0.0,0.0,0.0,0.0,0.0,0.0,0.0,1.8358,1.8624,1.8393,0.0,0.0,0.0,0.0,0.0,0.0,0.0,0.0,1.7883,1.7662,1.7444,1.7755,1.8067,1.8419,1.8419,1.8643,1.9094,1.9559,0.0,0.0,0.0,0.0,0.0,0.0,0.0,0.0,0.0,0.0,0.0,0.0,0.0,0.0,0.0,0.0,0.0,0.0,0.0,0.0,0.0,0.0,0.0,0.0,0.0,0.0,0.0,0.0,0.0,0.0,0.0,0.0,0.0,0.0,0.0,0.0,0.0,0.0,0.0,0.0,0.0,0.0,0.0,0.0,0.0,0.0,0.0,0.0,0.0,0.0,0.0,0.0,0.0,0.0,0.0,0.0,0.0,0.0,0.0,0.0,0.0,0.0,0.0,0.7743,0.7116,0.6216,0.6085,0.5691,0.5124,0.5519,0.5595,0.5499,0.0,0.0,0.0,0.0,0.0,0.0,0.0,0.0,0.0,0.0,0.0,0.0,0.0,0.0,0.0,0.0,0.0,0.0,0.0,0.0,0.0,0.0,1.8172,1.8572,1.8841,1.8514,1.8378,0.0,0.0,0.0,0.0,0.0,0.0,1.7856,1.7641,1.7445,1.7255,1.7393,1.7791,1.8419,1.8419,1.8444,1.8544,1.9301,2.0069,2.0773,0.0,0.0,0.0,0.0,0.0,0.0,0.0,0.0,0.0,0.0,0.0,0.0,0.0,0.0,0.0,0.0,0.0,0.0,0.0,0.0,0.0,0.0,0.0,0.0,0.0,0.0,0.0,0.0,0.0,0.0,0.0,0.0,0.0,0.0,0.0,0.0,0.0,0.0,0.0,0.0,0.0,1.1044,1.3306,0.0,0.0,0.0,0.0,0.0,0.0,0.0,0.0,0.0,0.0,0.0,0.0,0.0,0.84,0.8354,0.7645,0.7236,0.7141,0.7056,0.677,0.625,0.5704,0.514,0.4602,0.4465,0.0,0.5079,0.4808,0.0,0.0,0.0,0.0,0.0,0.0,0.0,0.0,0.0,0.0,0.0,0.0,0.0,0.0,0.0,0.0,0.0,0.0,0.0,0.0,0.0,1.9233,1.9704,1.965,1.9713,1.9583,1.9195,0.0,0.0,0.0,0.0,1.7878,1.7658,1.7552,1.7486,1.7481,1.7548,1.7814,1.8302,1.8302,1.8286,1.8329,1.9212,2.0097,2.091,2.0271,0.0,0.0,0.0,0.0,0.0,0.0,0.0,0.0,0.0,0.0,0.0,0.0,0.0,0.0,0.0,0.0,0.0,0.0,0.0,0.0,0.0,0.0,0.0,0.0,0.0,0.0,0.0,0.0,0.0,0.0,0.0,0.0,0.0,0.0,0.0,0.0,0.0,0.0,0.0,1.1509,1.1216,1.2052,1.2687,1.2878,0.0,0.0,0.0,0.0,0.0,0.0,0.0,0.0,0.0,0.9159,0.8036,0.7457,0.7559,0.7225,0.685,0.6458,0.6473,0.614,0.5458,0.5042,0.4725,0.4515,0.4395,0.4502,0.4715,0.4697,0.4759,0.4878,0.0,0.0,0.0,0.0,0.4525,0.4858,0.0,0.0,0.0,0.0,0.0,0.0,0.0,0.0,0.0,0.0,0.0,0.0,1.9377,2.0481,2.1061,2.0717,2.0829,2.0522,1.9564,1.9308,0.0,0.0,1.801,1.782,1.7259,1.7141,1.727,1.7692,1.7666,1.7822,1.8204,1.8204,1.8251,1.8448,1.8976,1.9842,2.0805,2.0077,2.0912,2.263,0.0,0.0,0.0,0.0,0.0,0.0,0.0,0.0,0.0,0.0,0.0,0.0,0.0,0.0,0.0,0.0,0.0,0.0,0.0,0.0,0.0,0.0,0.0,0.0,0.0,0.0,0.0,0.0,0.0,0.0,0.0,0.0,0.0,0.0,0.0,0.0,0.0,1.0867,1.1479,1.0938,1.0834,1.0637,0.0,0.0,0.0,0.0,0.0,0.0,0.9036,0.8485,0.8171,0.8088,0.7149,0.6702,0.6812,0.6676,0.6302,0.5758,0.5843,0.5588,0.4968,0.47,0.4556,0.4519,0.4519,0.4519,0.4505,0.4616,0.4635,0.4572,0.4431,0.4416,0.4466,0.4118,0.4321,0.4767,0.0,0.0,0.0,0.0,0.0,0.0,0.0,0.0,0.0,0.0,0.0,1.9873,2.0549,2.1749,2.2362,2.2044,2.1393,2.0492,1.9295,1.9205,1.8598,1.7205,1.7762,1.762,1.6586,1.6104,1.6493,1.7692,1.7523,1.7672,1.8204,1.8204,1.8474,1.8943,1.8482,1.9049,2.0436,2.0641,2.1351,2.2224,2.0875,0.0,0.0,0.0,0.0,0.0,0.0,0.0,0.0,0.0,0.0,0.0,0.0,0.0,0.0,0.0,0.0,0.0,0.0,0.0,0.0,0.0,0.0,0.0,0.0,0.0,0.0,0.0,0.0,0.0,0.0,0.0,0.0,0.0,0.0,0.0,0.0,0.0,0.0,0.946,0.9733,0.0,0.0,0.0,0.0,0.7556,0.7516,0.748,0.7418,0.7241,0.7186,0.714,0.6447,0.6027,0.6036,0.5479,0.5181,0.5118,0.5178,0.525,0.5384,0.4877,0.4599,0.4519,0.4519,0.4519,0.4508,0.4307,0.4446,0.4729,0.4224,0.4218,0.4466,0.4118,0.3976,0.3933,0.0,0.0,0.0,0.0,0.0,0.0,0.0,0.0,0.0,1.5271,1.7516,1.9393,2.0799,2.2168,2.282,2.2392,2.2261,2.1563,1.9998,1.9237,1.8278,1.7073,1.6853,1.6387,1.5606,1.5281,1.5636,1.6714,1.7412,1.803,1.8539,1.902,1.9321,1.9543,1.9572,1.9921,2.0387,2.012,2.0777,2.1935,2.1554,2.0823,0.0,0.0,0.0,0.0,0.0,0.0,0.0,0.0,0.0,0.0,0.0,0.0,0.0,0.0,0.0,0.0,0.0,0.0,0.0,0.0,0.0,0.0,0.0,0.0,0.0,0.0,0.0,0.0,0.0,0.0,0.0,0.0,0.0,0.0,0.0,0.0,0.0,0.8504,0.8229,0.0,0.7805,0.7437,0.7137,0.6978,0.6897,0.6872,0.6872,0.6613,0.6533,0.6666,0.599,0.5632,0.5738,0.5432,0.5281,0.5277,0.5148,0.5182,0.5415,0.4989,0.4694,0.4522,0.4632,0.4628,0.448,0.4429,0.4457,0.4602,0.4395,0.4378,0.4485,0.4381,0.4328,0.4167,0.0,0.0,0.0,0.0,0.0,0.0,0.0,0.0,1.0429,1.4099,1.658,1.8841,2.0978,2.2478,2.3283,2.3184,2.2727,2.1795,2.0238,1.9082,1.7875,1.6552,1.5854,1.5368,1.5074,1.4725,1.5174,1.6423,1.7151,1.7868,1.8596,1.9096,1.9514,1.9941,2.0003,2.063,2.1603,2.0798,2.1023,2.196,2.238,2.1641,2.0019,0.0,0.0,0.0,0.0,0.0,0.0,0.0,0.0,0.0,0.0,0.0,0.0,0.0,0.0,0.0,0.0,0.0,0.0,0.0,0.0,0.0,0.0,0.0,0.0,0.0,0.0,0.0,0.0,0.0,0.0,0.0,0.0,0.0,0.0,0.0,0.7617,0.7706,0.7448,0.7272,0.731,0.6721,0.6267,0.6272,0.616,0.6142,0.6263,0.6065,0.5982,0.6156,0.5649,0.541,0.5511,0.5413,0.5335,0.5281,0.5219,0.5185,0.5226,0.5065,0.4948,0.4827,0.4709,0.4349,0.3755,0.4271,0.4497,0.4435,0.3922,0.3697,0.3697,0.3697,0.4039,0.4216,0.0,0.0,0.0,0.0,0.0,0.0,0.0,0.4048,0.7049,1.0693,1.4651,1.8226,2.0991,2.2612,2.3752,2.4335,2.2691,2.1091,1.9849,1.8774,1.7381,1.5599,1.4865,1.4697,1.5064,1.4588,1.5154,1.6799,1.6874,1.7388,1.8315,1.8395,1.9103,2.0248,1.9749,2.1263,2.409,2.2897,2.2368,2.2403,2.3365,2.2558,2.0718,0.0,0.0,0.0,0.0,0.0,0.0,0.0,0.0,0.0,0.0,0.0,0.0,0.0,0.0,0.0,0.0,0.0,0.0,0.0,0.0,0.0,0.0,0.0,0.0,0.0,0.0,0.0,0.0,0.0,0.0,0.0,0.0,0.0,0.7122,0.69,0.6682,0.7016,0.7231,0.7272,0.7072,0.6037,0.5383,0.5316,0.5186,0.5245,0.5589,0.546,0.545,0.5599,0.5457,0.5442,0.5442,0.5432,0.5287,0.5138,0.5272,0.5216,0.4865,0.5174,0.5304,0.5274,0.4741,0.3646,0.24,0.3884,0.4521,0.4347,0.2745,0.2122,0.212,0.2122,0.3084,0.394,0.0,0.0,0.0,0.0,0.0,0.0,0.0,0.2738,0.5658,0.9744,1.2461,1.52,1.83,2.0404,2.1649,2.1811,2.1855,2.1113,1.9269,1.8133,1.7103,1.6109,1.5447,1.5543,1.6512,1.6046,1.6196,1.6969,1.8232,1.8963,1.9244,2.0197,2.1327,2.2577,2.2417,2.3744,2.6014,2.6491,2.6727,2.6639,2.5259,2.4057,2.2852,0.0,0.0,0.0,0.0,0.0,0.0,0.0,0.0,0.0,0.0,0.0,0.0,0.0,0.0,0.0,0.0,0.0,0.0,0.0,0.0,0.0,0.0,0.0,0.0,0.0,0.0,0.0,0.0,0.0,0.0,0.0,0.0,0.5232,0.4656,0.4172,0.3798,0.3577,0.3836,0.4051,0.4198,0.3765,0.3458,0.3416,0.4779,0.5593,0.5483,0.5623,0.5603,0.5491,0.5578,0.5718,0.5718,0.5498,0.5365,0.5318,0.5108,0.4451,0.333,0.3122,0.3217,0.3485,0.4674,0.4673,0.3887,0.4346,0.4513,0.4216,0.1626,0.0629,0.0617,0.0632,0.0858,0.1121,0.0,0.0,0.0,0.0,0.0,0.0,0.0,0.2219,0.5124,0.8364,1.0791,1.3302,1.6232,1.7878,1.9129,2.0044,1.9579,1.8954,1.8307,1.7638,1.7161,1.6902,1.6668,1.6807,1.7396,1.6908,1.6942,1.7641,1.8619,1.9354,1.9715,2.0474,2.2001,2.4144,2.3959,2.5683,2.8716,2.8223,2.868,2.9459,2.6589,2.5126,2.4339,2.126,1.8688,1.6313,1.3225,1.1378,1.0129,0.8028,0.0,0.0,0.0,0.0,0.0,0.0,0.0,0.0,0.0,0.0,0.0,0.0,0.0,0.0,0.0,0.0,0.0,0.0,0.0,0.0,0.0,0.0,0.0,0.0,0.4629,0.5067,0.3215,0.2218,0.1561,0.1286,0.1467,0.1642,0.1817,0.166,0.1565,0.1602,0.2718,0.3682,0.4433,0.4484,0.4492,0.4463,0.4504,0.4493,0.4517,0.4378,0.426,0.4295,0.481,0.4552,0.3409,0.1948,0.1377,0.0,0.2705,0.292,0.2636,0.263,0.2591,0.0,0.0,0.0,0.0,0.0,-0.0,-0.0,0.0,0.0,0.0,0.0,0.0,0.0,0.0,0.1986,0.4753,0.675,0.9261,1.1817,1.4235,1.5007,1.6192,1.8312,1.658,1.5922,1.7276,1.7264,1.7478,1.8051,1.8545,1.8751,1.8672,1.8302,1.8583,1.9535,1.9629,2.0088,2.0906,2.0938,2.2639,2.5567,2.5163,2.747,3.1449,2.8845,2.9124,3.0953,2.7255,2.5658,2.5152,2.1877,1.8893,1.6166,1.3912,1.1761,0.9676,0.7584,0.0,0.0,0.0,0.0,0.0,0.0,0.0,0.0,0.0,0.0,0.0,0.0,0.0,0.0,0.0,0.0,0.0,0.0,0.0,0.0,0.0,0.0,0.0,0.0,0.3799,0.3689,0.1825,0.0441,-0.0226,-0.0,-0.0,-0.0,-0.0,-0.0,-0.0,-0.0,-0.0,0.0785,0.2656,0.0,0.0,0.0,0.0,0.2373,0.2374,0.2372,0.2382,0.2392,0.4019,0.448,0.3923,0.1236,-0.0,-0.0,-0.0,-0.0,-0.0,-0.0,-0.0,-0.0,-0.0,-0.0,-0.0,-0.0,-0.0,-0.0,0.0,0.0,0.0,0.0,0.0,0.0,0.0,0.0568,0.2742,0.4825,0.6649,0.849,1.0449,1.1395,1.2544,1.415,1.477,1.5654,1.6982,1.7197,1.8175,2.0192,2.1283,2.2502,2.3896,2.444,2.5199,2.6074,2.6564,2.6891,2.7088,2.7492,2.8041,2.8649,2.9099,3.0153,3.1508,2.9991,2.9817,3.0268,2.641,2.4919,2.4775,2.2436,1.9911,1.7345,1.5486,1.3441,1.1292,0.9233,0.7847,0.679,0.5775,0.5158,0.0,0.0,0.0,0.0,0.0,0.0,0.0,0.0,0.0,0.0,0.0,0.0,0.0,0.0,0.0,0.0,0.0,0.0,0.0,-0.006,-0.2404,-0.3657,-0.2604,-0.2466,-0.1874,-0.0162,-0.0,-0.0,-0.0,-0.0,-0.0,-0.0,-0.0,0.016,0.0549,0.0544,0.0538,0.0605,0.0527,0.0515,0.0491,0.0491,0.0552,0.0534,0.0,0.0,0.0831,0.025,-0.0,-0.0,-0.0,-0.0,-0.0,-0.0,-0.0,-0.0,-0.0,-0.0,-0.0,-0.0,-0.0,-0.0,0.0,0.0,0.0,0.0,0.0,0.0,0.0,-0.0486,0.1198,0.2353,0.3888,0.5023,0.5382,0.7271,0.9157,1.0847,1.255,1.3845,1.4566,1.6136,1.8172,2.069,2.1317,2.2597,2.4742,2.4704,2.4988,2.5703,2.6011,2.7198,2.9214,2.946,2.9587,2.9497,2.8418,2.9715,3.2678,3.2061,3.086,2.8984,2.5228,2.3752,2.3581,2.1301,1.9167,1.7218,1.4949,1.346,1.2108,0.9385,0.7639,0.6509,0.5601,0.5075,0.4681,0.0,0.0,0.0,0.0,0.0,0.0,0.0,0.0,0.0,0.0,0.0,0.0,0.0,0.0,0.2035,0.2181,0.0,-0.0811,-0.3401,-0.5176,-0.5976,-0.5074,-0.4909,-0.412,-0.209,-0.178,-0.18,-0.1819,-0.1838,-0.1731,-0.1573,-0.1668,-0.1235,-0.0079,-0.0,-0.0,-0.0,-0.0,-0.0,-0.0,-0.0,-0.0,-0.0,-0.0,-0.0,-0.0,-0.0,-0.0,-0.0129,-0.194,-0.2716,-0.2584,-0.0719,-0.0,-0.0,-0.0,-0.0,-0.0,-0.0,-0.0,-0.0,0.0,0.0,0.0,0.0,0.0,0.0,0.0,0.0,-0.0233,0.0041,0.1397,0.2114,0.1532,0.3865,0.6233,0.8015,0.9997,1.1412,1.1979,1.4627,1.7314,1.996,2.0368,2.1718,2.4302,2.4091,2.4347,2.511,2.3308,2.4125,2.7323,2.6004,2.6093,2.7248,2.5036,2.6238,2.9943,3.019,2.8611,2.5536,2.1882,2.0275,2.0042,1.9138,1.7337,1.4967,1.2744,1.1742,1.0975,0.8244,0.6687,0.5762,0.5171,0.488,0.4614,0.3423,0.33,0.0,0.0,0.0,0.0,0.0,0.0,0.0,0.0,0.2427,0.1539,0.1443,0.0796,0.0297,0.0539,-0.1026,-0.3143,-0.587,-0.6306,-0.6325,-0.6308,-0.6493,-0.599,-0.4342,-0.4227,-0.4168,-0.4222,-0.4236,-0.4082,-0.3843,-0.4083,-0.3353,-0.1414,-0.0879,-0.064,-0.0624,-0.0546,-0.0538,-0.0522,-0.0511,-0.0499,-0.0556,-0.0544,-0.0538,-0.0538,-0.0538,-0.0538,-0.0673,-0.3583,-0.5081,-0.5202,-0.2281,-0.0603,-0.0,-0.0,-0.0399,-0.0979,-0.0267,-0.0,-0.0,0.0,0.0,0.0,0.0,0.0,0.0,0.0,0.0,0.0,-0.1206,-0.0081,0.1042,0.1997,0.2832,0.3947,0.5486,0.6927,0.8774,1.1251,1.2938,1.5049,1.7727,1.9637,2.1963,2.4848,2.7276,2.929,3.0878,2.2647,1.8832,1.9193,1.3155,1.3533,1.9304,1.9246,1.8021,1.6118,1.7337,1.7614,1.6902,1.316,1.1268,1.1119,1.6201,1.4221,0.8717,0.8382,0.7131,0.557,0.5366,0.5046,0.4727,0.4812,0.4709,0.4111,0.1918,0.1808,0.2117,0.0941,0.0946,0.1482,0.2229,0.2567,0.2855,0.0,0.3056,0.2098,0.0517,-0.2761,-0.537,-0.5375,-0.4025,-0.3718,-0.5926,-0.6289,-0.6302,-0.6434,-0.6438,-0.627,-0.618,-0.6321,-0.6334,-0.6366,-0.6369,-0.6306,-0.6312,-0.635,-0.6217,-0.5993,-0.3922,-0.2776,-0.2732,-0.2501,-0.2369,-0.2395,-0.2387,-0.242,-0.2423,-0.2415,-0.241,-0.241,-0.241,-0.241,-0.241,-0.2815,-0.3897,-0.5399,-0.4995,-0.2889,-0.0,-0.0,-0.195,-0.4436,-0.1211,-0.0,-0.0,0.0,0.0,0.0,0.0,0.0,0.0,0.0,0.0,0.0,0.0,-0.1197,-0.0294,0.033,0.1396,0.2302,0.2885,0.4424,0.6029,0.7694,1.0368,1.2884,1.5189,1.6251,1.6949,1.7301,1.8462,2.2455,2.9345,1.7668,0.9003,0.3365,0.1893,0.1415,0.206,0.5935,0.6961,0.5776,0.6347,0.6582,0.6796,0.9322,0.9812,0.9642,1.5703,1.4827,0.9758,0.4937,0.27,0.0,0.3664,0.4311,0.4406,0.376,0.3198,0.2519,0.1384,0.0289,-0.0383,0.0239,0.0942,0.1624,0.2106,0.3006,0.3626,0.3193,0.2043,0.0914,0.0129,-0.3332,-0.6297,-0.6291,-0.5577,-0.5256,-0.6153,-0.6266,-0.6288,-0.6342,-0.622,-0.6115,-0.6084,-0.6078,-0.6179,-0.6441,-0.6539,-0.6529,-0.6462,-0.659,-0.6678,-0.6624,-0.5695,-0.5116,-0.4953,-0.4652,-0.442,-0.4252,-0.4268,-0.4248,-0.4267,-0.4266,-0.43,-0.43,-0.43,-0.43,-0.43,-0.4295,-0.47,-0.5386,-0.5389,-0.4095,-0.2072,-0.1676,-0.2484,-0.3493,-0.0942,-0.0,-0.0,0.0,0.0,0.0,0.0,0.0,0.0,0.0,0.0,0.0,0.0,-0.2389,-0.1694,-0.1266,-0.01,0.0698,0.0829,0.2453,0.3878,0.4731,0.7669,0.9874,1.1059,1.0846,1.0392,0.9854,0.8413,1.1438,1.9116,0.9317,0.0303,-0.7637,-0.5802,-0.639,-0.8761,-0.432,-0.1453,-0.0,-0.0,-0.0,0.0417,0.5468,0.7106,0.7001,1.1352,1.1159,0.7756,0.1762,-0.0283,0.0109,0.23,0.3214,0.33,0.2603,0.1525,0.0516,0.029,-0.1011,-0.2046,-0.0379,0.048,0.1085,0.1828,0.267,0.3029,0.2165,0.0945,-0.0265,-0.1251,-0.3475,-0.5362,-0.5966,-0.6108,-0.6101,-0.6139,-0.6176,-0.6196,-0.6196,-0.6064,-0.5895,-0.5701,-0.5552,-0.5576,-0.5864,-0.6095,-0.622,-0.62,-0.6434,-0.6572,-0.6525,-0.6579,-0.6513,-0.6291,-0.599,-0.5741,-0.5547,-0.5454,-0.5451,-0.5408,-0.5373,-0.5386,-0.5386,-0.5386,-0.5386,-0.5386,-0.5376,-0.5372,-0.5372,-0.5376,-0.49,-0.4084,-0.3618,-0.3418,-0.3282,-0.1949,-0.1215,-0.0885,0.0,0.0,0.0,0.0,0.0,0.0,0.0,0.0,0.0,0.0,0.0,0.0,0.0,-0.1565,-0.0967,-0.0398,0.1254,0.2624,0.3493,0.5051,0.5562,0.4707,0.299,0.2912,0.4751,-0.0072,-0.2504,-0.2178,-0.2869,-0.5288,-0.9243,-0.8704,-0.7983,-0.7177,-0.7975,-0.5221,-0.0,-0.0,-0.0,-0.0,0.0232,0.0295,0.0279,0.0449,-0.0119,-0.1013,-0.1293,-0.1076,-0.0455,0.106,0.1232,0.0913,0.1397,0.005,-0.1757,-0.193,-0.2044,-0.1901,-0.093,-0.0969,-0.0849,0.1116,0.0861,0.0124,0.0064,0.0066,-0.1017,-0.4546,-0.3716,-0.2936,-0.5054,-0.5544,-0.5654,-0.5793,-0.5939,-0.6037,-0.6037,-0.5905,-0.5701,-0.5476,-0.524,-0.5094,0.0,-0.5359,-0.5735,-0.6017,-0.6183,-0.6349,-0.6342,-0.6396,-0.641,-0.6268,-0.6112,-0.5959,-0.581,-0.5664,-0.5515,-0.5369,-0.5432,-0.5428,-0.5428,-0.5428,-0.5428,-0.5428,-0.5428,-0.5428,-0.5428,-0.5372,-0.5379,-0.5312,-0.5322,-0.5319,-0.5312,-0.5256,-0.4306,-0.301,0.0,0.0,0.0,0.0,0.0,0.0,0.0,0.0,0.0,0.0,0.0,0.0,0.0,0.0,0.0,0.0,-0.1042,0.0147,0.1064,0.1638,0.1881,0.1685,0.0056,-0.1139,-0.1712,-0.3602,-0.468,-0.4884,-0.5712,-0.6489,-0.7151,-0.7622,-0.7427,-0.6586,-0.7089,-0.6156,-0.3968,-0.1205,-0.0,-0.0,-0.0,-0.0,-0.0071,-0.0693,-0.1108,-0.1446,0.0,-0.154,-0.1068,-0.0582,-0.0336,-0.0286,-0.0772,-0.1334,-0.19,-0.2176,-0.1998,-0.174,-0.1471,-0.1321,-0.0947,0.0233,0.0245,-0.0,-0.0,-0.0,-0.0903,-0.4144,-0.4024,-0.3689,-0.4656,-0.4957,-0.5223,-0.5471,-0.5718,-0.5915,-0.6017,-0.5986,-0.5766,-0.5267,-0.5162,0.0,0.0,0.0,0.0,-0.5569,-0.5817,-0.6,-0.6101,-0.6251,-0.6312,-0.6264,-0.601,-0.5854,-0.58,-0.5559,-0.5413,-0.5428,-0.5428,-0.5428,-0.5428,-0.5428,-0.5428,-0.5428,-0.5428,-0.5428,-0.5428,-0.5432,-0.5432,-0.5369,-0.5372,-0.5369,-0.5379,-0.5488,-0.5259,-0.4947,0.0,0.0,0.0,0.0,0.0,0.0,0.0,0.0,0.0,0.0,0.0,0.0,0.0,0.0,0.0,0.0,0.0,-0.1895,-0.1168,-0.0978,-0.0922,-0.1128,-0.2284,-0.3533,-0.4791,-0.507,-0.5279,-0.5535,-0.6548,-0.6722,-0.6124,-0.7137,-0.7146,-0.6459,-0.6485,-0.6352,-0.5881,-0.3129,-0.1254,-0.0218,-0.0208,-0.0266,-0.0321,-0.1222,-0.1588,0.0,-0.2203,-0.2123,-0.1769,-0.1676,-0.1536,-0.1443,-0.2145,-0.2244,-0.2176,-0.2465,-0.2236,-0.1971,-0.2106,-0.1407,-0.0609,-0.0128,-0.0,-0.0,-0.0,-0.0682,-0.1741,-0.3249,-0.3695,-0.396,-0.4276,-0.4542,-0.4793,-0.4925,-0.5274,-0.5559,-0.5752,-0.5701,-0.5528,-0.5247,-0.5165,-0.5036,0.0,0.0,0.0,-0.5415,-0.5633,-0.5867,-0.602,-0.6224,-0.6315,-0.6342,-0.6118,-0.5989,-0.5884,-0.564,-0.5464,-0.5428,-0.5428,-0.5428,-0.5428,-0.5428,-0.5428,-0.5428,-0.5428,-0.5428,-0.5428,-0.5428,-0.5428,-0.5428,-0.5428,-0.5463,-0.5454,-0.5552,-0.5715,-0.5888,0.0,0.0,0.0,0.0,0.0,0.0,0.0,0.0,0.0,0.0,0.0,0.0,0.0,0.0,0.0,0.0,0.0,0.0,-0.3018,-0.265,-0.2826,-0.3637,-0.4077,-0.4376,-0.4542,-0.4715,-0.4828,-0.4988,-0.5951,-0.6371,-0.6271,-0.7136,-0.7203,-0.6599,-0.6358,-0.5992,-0.5542,-0.5396,-0.3495,-0.0647,-0.0702,-0.0775,-0.0864,-0.1564,-0.197,-0.2194,-0.2708,-0.273,-0.246,-0.2188,-0.2279,-0.2551,-0.2784,-0.2737,-0.2578,-0.2882,-0.2723,-0.2537,-0.2587,-0.1366,-0.0,-0.0,-0.0,-0.0,-0.0,-0.1867,-0.3297,-0.2115,-0.2801,-0.3652,-0.3939,-0.4186,-0.435,-0.4229,-0.4685,-0.5115,-0.5387,-0.5155,-0.5084,-0.5342,-0.525,-0.5104,-0.4955,-0.507,0.0,-0.5428,0.0,-0.5867,-0.602,-0.6318,-0.6417,-0.6268,-0.639,-0.6322,-0.6034,-0.5871,-0.5647,-0.5428,-0.5428,-0.5428,-0.5428,-0.5428,-0.5428,-0.5428,-0.5428,-0.5428,-0.5428,-0.5428,-0.5428,-0.5428,-0.5435,-0.546,-0.5589,-0.5599,-0.5783,-0.603,0.0,0.0,0.0,0.0,0.0,0.0,0.0,0.0,0.0,0.0,0.0,0.0,0.0,0.0,0.0,0.0,0.0,0.0,-0.3101,-0.3125,-0.3162,-0.3164,-0.3715,-0.4046,-0.4093,-0.4338,-0.4571,-0.4696,-0.5107,-0.5393,-0.5482,-0.5505,-0.5331,-0.4914,-0.4646,-0.4302,-0.3991,-0.4145,-0.3708,-0.2851,-0.1635,-0.1498,-0.2018,-0.2021,-0.2309,-0.2704,-0.2893,-0.2929,-0.2768,-0.2239,-0.2239,-0.2518,-0.2558,-0.2807,-0.3007,-0.2469,-0.2477,-0.2521,-0.1899,-0.0883,-0.0,-0.0,-0.0,-0.0,-0.0,-0.1838,-0.3467,-0.2877,-0.2958,-0.3206,-0.3453,-0.366,-0.3945,-0.4331,-0.4906,-0.537,-0.564,-0.582,-0.5823,-0.5562,-0.5589,-0.5528,-0.5274,-0.5386,0.0,0.0,-0.5698,-0.5867,-0.602,-0.642,-0.6525,-0.6271,-0.6295,-0.6224,-0.603,-0.5772,-0.5549,-0.5428,-0.5428,-0.5428,-0.5428,-0.5428,-0.5428,-0.5428,-0.5428,-0.5428,-0.5428,-0.5428,-0.5428,-0.5439,-0.5488,-0.5555,-0.5603,-0.5708,-0.5867,-0.603,0.0,0.0,0.0,0.0,0.0,0.0,0.0,0.0,0.0,0.0,0.0,0.0,0.0,0.0,0.0,0.0,0.0,0.0,0.0,-0.3437,-0.3427,-0.3212,-0.3586,-0.3847,-0.3927,-0.413,-0.4249,-0.4353,-0.4842,-0.513,-0.5247,-0.5467,-0.5293,-0.4679,-0.4438,-0.3964,-0.3349,-0.3406,-0.3396,0.0,0.0,-0.2143,-0.245,-0.2476,-0.2687,-0.2955,-0.32,-0.3119,-0.2957,-0.2881,-0.2996,-0.3095,-0.3115,-0.2899,-0.2588,-0.2411,-0.2252,-0.1909,-0.1035,-0.0366,-0.0,-0.0,-0.0,-0.0272,-0.1309,-0.2093,-0.2705,-0.3124,-0.3066,-0.2995,-0.3172,-0.3458,-0.3742,-0.4058,-0.4636,-0.5144,-0.5447,-0.5654,-0.5769,-0.5783,-0.5854,-0.581,-0.5579,-0.5694,-0.5783,0.0,-0.5857,-0.5939,-0.6023,-0.6393,-0.6495,-0.6345,-0.6322,-0.6251,-0.603,-0.58,-0.5606,-0.546,-0.5459,-0.5463,-0.546,-0.5459,-0.5466,-0.5457,0.0,-0.5428,-0.5428,-0.5428,-0.5428,-0.5435,-0.5457,-0.5569,-0.5691,-0.5772,-0.5942,-0.6132,0.0,0.0,0.0,0.0,0.0,0.0,0.0,0.0,0.0,0.0,0.0,0.0,0.0,0.0,0.0,0.0,0.0,0.0,0.0,0.0,-0.3635,-0.3499,-0.3569,-0.3765,-0.3995,-0.3992,-0.4056,-0.4084,-0.4862,-0.5275,-0.528,-0.599,-0.5874,-0.4969,-0.4749,-0.4065,-0.3116,-0.2881,-0.2671,-0.2516,-0.2562,-0.2578,-0.2505,0.0,-0.3034,-0.3126,-0.3486,-0.3355,-0.3133,-0.3807,-0.3944,-0.3789,-0.3478,-0.2799,-0.2189,-0.2279,-0.184,-0.1027,-0.0222,-0.0,-0.0,-0.0,-0.0291,-0.1094,-0.3011,-0.2494,-0.1904,-0.3033,-0.3066,-0.2981,-0.3085,-0.3435,-0.3694,-0.3681,-0.4225,-0.4727,-0.5081,-0.5192,-0.542,-0.5966,-0.6047,-0.601,-0.5874,-0.5983,-0.6061,-0.6061,-0.6061,-0.6061,-0.6061,-0.6342,-0.6437,-0.6291,-0.639,-0.6302,-0.6003,-0.5867,-0.5722,-0.5559,-0.5447,-0.545,-0.5555,-0.5443,-0.5454,-0.5552,0.0,0.0,-0.5432,-0.547,-0.5476,-0.5463,-0.5437,-0.5606,-0.5833,-0.5854,-0.603,-0.6338,0.0,0.0,0.0,0.0,0.0,0.0,0.0,0.0,0.0,0.0,-0.5797,-0.5435,0.0,0.0,0.0,0.0,0.0,0.0,0.0,0.0,0.0,-0.3499,-0.3372,-0.3525,-0.3995,-0.4058,-0.4265,-0.4595,-0.4889,-0.5057,-0.5062,-0.499,-0.4578,-0.3962,-0.3446,-0.2861,-0.2221,-0.1825,-0.1862,-0.2109,-0.2125,-0.2422,-0.2915,-0.2981,0.0,0.0,-0.3578,-0.3624,-0.37,-0.4055,-0.3837,-0.3186,-0.1241,-0.2197,-0.3574,-0.1151,-0.0371,-0.0228,-0.0079,-0.0,-0.0,-0.0,-0.1866,-0.3595,-0.2982,-0.3052,-0.3193,-0.3071,-0.3069,-0.3092,-0.3242,-0.3478,-0.3715,-0.4066,-0.4402,-0.4838,-0.5254,-0.5532,-0.5772,-0.6,-0.6142,-0.621,-0.6183,-0.6207,0.0,0.0,0.0,-0.622,-0.622,-0.6498,-0.659,-0.6441,-0.6346,-0.6152,-0.5844,-0.5817,-0.5667,-0.547,-0.5501,-0.5498,-0.547,-0.5504,-0.5494,-0.5406,-0.5508,0.0,-0.5449,-0.5627,-0.5654,-0.5576,-0.582,-0.5945,-0.6006,-0.6132,-0.6213,-0.6338,0.0,0.0,0.0,0.0,0.0,0.0,0.0,-0.7068,-0.6639,-0.6457,-0.589,-0.546,-0.5404,-0.534,-0.5182,0.0,0.0,0.0,0.0,0.0,0.0,0.0,0.0,0.0,-0.4007,-0.4133,-0.4244,-0.4341,0.0,-0.4566,-0.4486,-0.4477,-0.4176,-0.367,-0.3134,-0.2602,-0.2126,-0.182,-0.1927,-0.2284,-0.246,-0.2818,-0.3306,0.0,0.0,0.0,-0.3581,-0.3628,-0.3738,-0.3862,-0.3403,-0.2795,-0.2791,-0.3159,-0.3111,-0.0734,-0.0,-0.0472,-0.271,-0.3256,-0.2922,-0.1486,-0.2234,-0.3329,-0.335,-0.3459,-0.3533,-0.3246,-0.3272,-0.3292,-0.332,-0.3559,-0.3809,-0.3961,-0.4324,-0.4704,-0.5077,-0.5454,-0.5776,-0.6003,-0.6166,-0.6338,-0.6338,-0.6338,-0.6338,-0.6338,0.0,-0.6338,-0.6338,-0.6393,-0.6437,-0.6366,-0.6295,-0.6152,-0.5922,-0.584,-0.5694,-0.5481,-0.5555,-0.5589,-0.5589,-0.5589,-0.5633,-0.5705,-0.5627,0.0,-0.5599,-0.5742,-0.5762,-0.5715,-0.5854,-0.5959,-0.6037,-0.6112,-0.6193,-0.6338,0.0,0.0,0.0,0.0,0.0,0.0,0.0,-0.7047,-0.6639,-0.6488,-0.5952,-0.5554,-0.5491,-0.5372,-0.5214,0.0,0.0,0.0,0.0,0.0,0.0,0.0,0.0,0.0,0.0,0.0,0.0,-0.4073,-0.4236,0.0,0.0,0.0,0.0,0.0,-0.3206,-0.2802,-0.2427,-0.2207,-0.2284,0.0,0.0,-0.3262,0.0,0.0,0.0,0.0,0.0,-0.3587,-0.3546,-0.3574,-0.3104,-0.2843,-0.4676,-0.3959,-0.2339,-0.143,-0.0903,-0.1425,-0.4734,-0.5938,-0.5711,-0.3462,-0.287,-0.3027,-0.3673,-0.3748,-0.3576,-0.3415,-0.342,-0.3421,-0.3371,-0.3626,-0.3846,-0.3815,-0.4087,-0.4436,-0.4772,-0.5182,-0.5569,-0.5895,-0.6098,-0.6224,-0.6257,-0.6338,0.0,-0.6338,0.0,0.0,-0.6338,-0.6338,-0.6338,-0.6338,-0.623,-0.6135,-0.5983,-0.583,-0.5684,-0.5542,-0.5606,-0.5677,-0.5752,-0.5705,-0.5793,-0.5969,-0.5772,0.0,0.0,-0.5943,-0.6023,-0.614,-0.5957,-0.5993,-0.6118,-0.6091,-0.6196,-0.6349,0.0,0.0,0.0,0.0,0.0,0.0,0.0,-0.6807,-0.6557,-0.6443,-0.6021,-0.5718,-0.5522,-0.5372,-0.5277,0.0,0.0,0.0,0.0,0.0,0.0,0.0,0.0,0.0,0.0,0.0,0.0,-0.4295,-0.4291,0.0,0.0,0.0,0.0,0.0,0.0,-0.3208,-0.2929,-0.2588,0.0,0.0,0.0,0.0,0.0,0.0,0.0,0.0,0.0,-0.3497,-0.3351,-0.3539,-0.3605,-0.3762,-0.4509,-0.3415,-0.2289,-0.4317,-0.3881,-0.2891,-0.3253,-0.4798,-0.6073,-0.5337,-0.4944,-0.4623,-0.3825,-0.372,-0.3707,-0.337,-0.3296,-0.3378,-0.3531,-0.3615,-0.367,-0.3768,-0.3826,-0.4005,-0.4498,-0.4779,-0.5142,-0.5579,-0.5878,-0.6105,-0.6247,-0.6338,-0.6338,-0.6338,0.0,0.0,-0.6338,-0.6338,-0.6338,-0.6338,-0.6125,-0.5976,-0.5823,-0.5681,-0.5535,-0.5452,-0.5654,-0.5722,-0.5616,-0.5874,-0.5928,-0.583,-0.5939,0.0,0.0,-0.6475,-0.6659,-0.7265,-0.654,-0.6305,-0.6417,-0.6288,-0.6417,-0.6641,0.0,0.0,0.0,0.0,0.0,0.0,-0.688,-0.6771,-0.6554,-0.616,-0.5837,-0.553,-0.5195,-0.4947,-0.4884,-0.5049,0.0,0.0,0.0,0.0,0.0,0.0,0.0,0.0,0.0,0.0,-0.3645,-0.369,-0.3963,0.0,0.0,0.0,0.0,0.0,0.0,-0.3078,-0.299,-0.2857,0.0,0.0,0.0,0.0,0.0,0.0,0.0,0.0,0.0,0.0,-0.3673,-0.3626,-0.377,-0.3994,-0.3917,-0.3526,-0.3273,-0.4288,-0.4537,-0.4499,-0.4662,-0.5278,-0.5888,-0.5523,-0.5215,-0.4786,-0.403,-0.3804,-0.3734,-0.3531,-0.3573,-0.3633,-0.3612,-0.3711,-0.3773,-0.3701,-0.3734,-0.3887,-0.4158,-0.4453,-0.4843,-0.5389,-0.5637,-0.5895,0.0,0.0,-0.6338,-0.6338,0.0,0.0,-0.6338,-0.6173,-0.6122,-0.6122,-0.6061,-0.6,-0.5939,-0.5789,-0.5644,-0.5501,-0.5705,-0.6126,-0.6632,-0.6222,-0.6708,-0.7847,-0.6559,0.0,0.0,-0.7567,-0.7736,-0.8571,-0.8206,-0.7815,-0.741,-0.7344,-0.7079,-0.6692,0.0,0.0,0.0,0.0,0.0,-0.6889,-0.6488,-0.645,-0.6289,-0.5739,-0.5551,-0.5286,-0.4901,-0.4578,-0.4497,-0.4739,-0.429,0.0,0.0,0.0,0.0,0.0,0.0,0.0,0.0,0.0,-0.3463,-0.3306,-0.363,-0.3751,0.0,0.0,-0.3751,-0.3578,0.0,0.0,0.0,0.0,0.0,0.0,0.0,0.0,0.0,0.0,0.0,0.0,0.0,0.0,0.0,0.0,0.0,-0.3976,-0.3798,-0.3822,-0.3904,-0.3951,-0.4465,-0.5131,-0.5403,-0.556,-0.5535,-0.5335,-0.504,-0.4704,-0.4148,-0.39,-0.3751,-0.3609,-0.3711,-0.3751,-0.3622,-0.3711,-0.3755,-0.3622,-0.3663,-0.3782,-0.3931,-0.4172,-0.4521,-0.5099,-0.523,-0.5518,-0.6013,-0.6183,-0.6338,0.0,0.0,0.0,-0.6196,-0.6088,-0.603,-0.603,-0.603,-0.601,-0.5962,-0.5813,-0.5688,-0.5593,-0.5735,-0.6294,-0.7287,-0.6737,-0.758,-0.9216,0.0,0.0,0.0,-0.8689,-0.8841,-0.9674,-0.9133,-0.859,-0.8049,-0.7733,-0.7312,-0.6824,0.0,0.0,0.0,0.0,0.0,0.0,-0.5835,-0.5756,-0.5571,-0.517,-0.5119,-0.5022,-0.4813,-0.4393,-0.417,-0.4375,-0.4271,0.0,0.0,0.0,0.0,0.0,0.0,0.0,0.0,0.0,-0.3159,-0.3306,-0.3503,-0.3581,-0.3581,-0.3581,-0.3581,-0.3581,0.0,0.0,0.0,0.0,0.0,0.0,0.0,0.0,0.0,0.0,0.0,0.0,0.0,0.0,0.0,0.0,0.0,0.0,0.0,-0.4268,-0.3884,-0.3803,-0.4,-0.4304,-0.4806,-0.5145,-0.5298,-0.4999,-0.4806,-0.4575,-0.4121,-0.39,-0.3751,-0.3609,-0.3581,-0.3581,-0.3581,-0.3581,-0.3581,-0.3581,-0.3581,-0.3632,-0.3775,-0.3927,-0.4134,-0.4491,-0.4606,-0.4935,-0.5538,-0.6,-0.6338,0.0,0.0,0.0,-0.604,-0.603,-0.603,-0.603,-0.603,-0.5959,-0.5803,-0.5661,-0.5593,-0.5593,-0.5735,-0.6294,-0.7296,-0.7605,-0.8313,0.0,0.0,0.0,0.0,-0.9669,-0.9895,-1.0582,-0.8746,-0.8078,-0.8082,-0.7105,-0.6885,-0.7115,0.0,0.0,0.0,0.0,0.0,0.0,0.0,-0.5617,-0.5535,-0.5215,-0.505,-0.4853,-0.4549,-0.4403,-0.4194,-0.3958,-0.3684,0.0,0.0,0.0,0.0,0.0,0.0,0.0,0.0,0.0,-0.3105,-0.3152,-0.3453,-0.3581,-0.3581,-0.3581,-0.3581,-0.3581,-0.3581,-0.3581,0.0,0.0,0.0,0.0,0.0,0.0,0.0,0.0,0.0,0.0,0.0,0.0,0.0,0.0,0.0,0.0,0.0,0.0,0.0,-0.3971,-0.4018,-0.4097,-0.4338,-0.4599,-0.4701,-0.4507,-0.4345,-0.4168,-0.3921,-0.3751,-0.3636,-0.3588,-0.3581,-0.3581,-0.3581,-0.3581,-0.3581,-0.3581,-0.3581,-0.3595,-0.3639,-0.3863,-0.4206,-0.4714,-0.5359,-0.584,0.0,0.0,0.0,0.0,0.0,0.0,-0.619,-0.6088,-0.5983,-0.5878,-0.5874,-0.5901,-0.5959,-0.581,-0.5786,-0.5891,-0.5935,-0.6463,-0.7411,-0.6995,0.0,0.0,0.0,0.0,0.0,-0.8689,-0.8923,-0.9823,-0.9272,-0.8725,-0.8271,-0.7938,-0.7569,-0.7132,0.0,0.0,0.0,0.0,0.0,0.0,0.0,-0.5246,-0.5112,-0.483,-0.4681,-0.452,-0.4277,-0.4239,-0.4105,-0.3717,-0.3377,0.0,0.0,0.0,0.0,0.0,0.0,0.0,0.0,-0.3056,-0.3165,-0.3165,-0.3459,-0.3581,-0.3581,-0.3581,-0.3581,-0.3581,-0.3581,-0.3581,0.0,0.0,0.0,0.0,0.0,0.0,-0.388,0.0,0.0,0.0,0.0,0.0,0.0,0.0,0.0,0.0,0.0,0.0,0.0,0.0,-0.417,-0.4123,-0.4139,-0.4289,-0.4432,-0.4285,-0.4096,-0.391,-0.391,-0.3729,-0.3581,-0.3581,-0.3581,-0.3581,-0.3581,-0.3581,-0.3581,-0.3581,-0.3486,-0.3462,-0.3653,-0.3817,-0.4144,-0.4793,-0.5562,0.0,0.0,-0.6162,0.0,0.0,0.0,0.0,-0.6173,-0.6027,-0.5874,-0.5725,-0.5772,-0.5847,-0.5942,-0.5847,-0.5878,-0.603,-0.603,-0.6544,-0.7499,-0.7095,0.0,0.0,0.0,0.0,0.0,-0.8698,-0.8874,-0.9473,-0.9162,-0.8812,-0.8369,-0.8006,-0.7581,-0.7139,0.0,0.0,0.0,0.0,0.0,0.0,0.0,-0.4694,-0.4437,-0.4136,-0.4061,-0.4029,-0.4,-0.4,-0.3914,-0.3667,0.0,0.0,0.0,0.0,0.0,0.0,0.0,0.0,-0.291,-0.3159,-0.3306,-0.3306,-0.3503,-0.3581,-0.3581,-0.3581,-0.3581,-0.3581,-0.3581,-0.3581,0.0,0.0,0.0,0.0,0.0,0.0,0.0,0.0,0.0,0.0,0.0,0.0,0.0,0.0,0.0,0.0,0.0,0.0,0.0,0.0,0.0,0.0,0.0,-0.4263,-0.4375,-0.4364,-0.4109,-0.3872,-0.4066,-0.3813,0.0,-0.3581,-0.3581,-0.3581,-0.3581,-0.3581,-0.3578,-0.3578,-0.3262,-0.3167,-0.3675,-0.378,-0.4079,0.0,-0.5372,0.0,-0.5623,0.0,0.0,0.0,0.0,0.0,-0.603,-0.5874,-0.5725,-0.5593,-0.5718,-0.5789,-0.58,-0.58,-0.5884,-0.6047,-0.6047,-0.6485,-0.7446,-0.7626,0.0,0.0,0.0,0.0,0.0,-0.9243,-0.9331,-0.9226,-0.8555,-0.8284,-0.8227,-0.7435,-0.7139,-0.7139,0.0,0.0,0.0,0.0,0.0,0.0,0.0,0.0,0.0,0.0,-0.3821,-0.3655,-0.3758,-0.3817,-0.3703,0.0,0.0,0.0,0.0,0.0,0.0,0.0,0.0,0.0,-0.291,-0.3159,-0.3306,-0.3306,-0.3503,-0.3581,-0.3581,-0.3581,-0.3581,-0.3581,-0.3581,-0.3581,0.0,0.0,0.0,0.0,0.0,0.0,0.0,0.0,0.0,0.0,-0.4188,-0.4316,0.0,0.0,0.0,0.0,0.0,0.0,0.0,0.0,-0.4574,-0.4539,-0.4498,0.0,-0.4321,-0.418,-0.4001,-0.3894,0.0,-0.378,-0.3581,-0.3581,-0.3581,-0.3581,-0.3581,-0.3581,-0.349,-0.317,-0.3078,-0.308,-0.3398,-0.4223,-0.5028,-0.5693,-0.5974,-0.6139,-0.6103,0.0,0.0,0.0,0.0,-0.603,-0.603,-0.5783,-0.5627,-0.5593,-0.5623,-0.5691,-0.58,-0.58,-0.5939,-0.6207,-0.6207,-0.6357,-0.6587,-0.6623,0.0,0.0,0.0,0.0,-0.7322,-0.736,-0.745,-0.7494,-0.7321,-0.7336,-0.7351,-0.7214,-0.7139,-0.7139,0.0,0.0,0.0,0.0,0.0,0.0,0.0,0.0,0.0,0.0,0.0,0.0,0.0,0.0,0.0,0.0,0.0,0.0,0.0,0.0,0.0,0.0,0.0,-0.2683,-0.284,-0.2921,-0.2936,-0.2936,-0.3049,-0.3176,-0.3306,-0.3306,-0.3442,-0.3626,-0.3711,-0.3751,0.0,0.0,0.0,0.0,-0.3924,0.0,0.0,0.0,0.0,0.0,-0.4403,-0.4487,0.0,-0.4753,-0.4801,-0.4801,0.0,0.0,0.0,0.0,-0.4801,-0.4801,-0.4801,-0.4622,-0.4422,-0.4359,-0.4113,-0.3924,-0.4056,-0.384,-0.3581,-0.3581,-0.3581,-0.3581,-0.3581,-0.3581,-0.3486,-0.3078,-0.3083,-0.3163,-0.3304,-0.3901,-0.4606,-0.5427,-0.563,-0.5848,0.0,0.0,0.0,0.0,0.0,-0.5895,-0.583,-0.561,-0.5518,-0.5589,-0.5589,-0.5657,-0.58,-0.5871,-0.6027,-0.6338,-0.6338,-0.6338,-0.6338,-0.6338,-0.6302,0.0,0.0,0.0,-0.6607,-0.6749,-0.6854,-0.6936,-0.7,-0.7071,-0.7139,-0.7139,-0.7139,-0.7139,0.0,0.0,0.0,0.0,0.0,0.0,0.0,0.0,0.0,0.0,0.0,0.0,0.0,0.0,0.0,0.0,0.0,0.0,0.0,0.0,0.0,0.0,0.0,-0.243,-0.2727,-0.2582,-0.2504,-0.2504,-0.2549,-0.2726,-0.299,-0.3078,-0.3303,-0.3667,-0.384,-0.388,0.0,0.0,0.0,0.0,-0.4056,0.0,0.0,0.0,0.0,0.0,0.0,0.0,0.0,-0.4941,-0.4849,-0.4709,-0.4941,0.0,0.0,0.0,0.0,0.0,-0.499,-0.4824,-0.4657,-0.4622,-0.4272,-0.4012,-0.4188,-0.3928,-0.3581,-0.3581,-0.3581,-0.3581,-0.3581,-0.3581,-0.3442,-0.299,-0.3146,0.0,-0.3605,-0.3732,-0.4058,-0.4873,-0.5102,0.0,0.0,0.0,0.0,0.0,0.0,-0.5718,-0.5596,-0.5443,-0.542,-0.5552,-0.5579,-0.5647,-0.5769,-0.5942,-0.6108,-0.6338,-0.6338,-0.6338,-0.6338,-0.6338,-0.6274,0.0,0.0,0.0,-0.6563,-0.6844,-0.6959,-0.6973,-0.7092,-0.7228,-0.7312,-0.7139,-0.7228,-0.7312,0.0,0.0,0.0,0.0,0.0,0.0,0.0,0.0,0.0,0.0,0.0,0.0,0.0,0.0,0.0,0.0,0.0,0.0,0.0,0.0,0.0,-0.2582,-0.2385,-0.2303,-0.2386,-0.2449,-0.2504,-0.2504,-0.2768,-0.2946,-0.299,-0.335,-0.3619,-0.3836,-0.388,-0.388,-0.3924,-0.4144,-0.4144,-0.3968,-0.414,0.0,0.0,0.0,0.0,0.0,0.0,0.0,0.0,-0.4985,-0.4985,-0.4941,-0.4985,0.0,0.0,0.0,0.0,0.0,-0.499,-0.4933,-0.4829,-0.4657,-0.4403,-0.4188,-0.4012,-0.3751,-0.3581,-0.3581,-0.3581,-0.3581,-0.3581,-0.3581,-0.3357,-0.2682,-0.3018,-0.3691,0.0,0.0,-0.5259,-0.4741,0.0,0.0,0.0,0.0,0.0,0.0,0.0,0.0,-0.5593,-0.5443,-0.5439,-0.5396,-0.5521,-0.5599,-0.5623,-0.5891,-0.6108,-0.6338,-0.6338,-0.6338,-0.6338,-0.6338,-0.6325,0.0,0.0,-0.6739,-0.6871,-0.7037,-0.7109,-0.7109,-0.7132,-0.7753,-0.854,-0.7492,-0.7753,-0.8452,0.0,0.0,0.0,0.0,0.0,0.0,0.0,0.0,0.0,0.0,0.0,0.0,0.0,0.0,0.0,0.0,0.0,0.0,0.0,0.0,0.0,-0.1878,-0.1844,-0.1913,-0.2132,-0.1995,-0.1925,-0.1925,-0.2057,-0.2235,-0.2462,-0.3173,-0.3619,-0.3924,-0.4056,-0.4056,-0.3928,-0.4188,-0.4232,-0.4144,0.0,0.0,0.0,0.0,0.0,0.0,0.0,0.0,0.0,0.0,-0.499,-0.499,-0.499,0.0,0.0,0.0,0.0,0.0,-0.4801,-0.4776,-0.4668,-0.4414,-0.4353,-0.4326,-0.4189,-0.4004,-0.3795,-0.371,-0.3693,-0.3715,-0.3769,-0.3729,-0.3705,-0.3712,0.0,-0.3814,-0.4677,-0.4731,-0.4757,0.0,0.0,0.0,0.0,0.0,0.0,0.0,0.0,0.0,-0.5471,-0.5399,-0.5399,-0.5484,-0.5552,-0.5627,-0.5701,-0.5837,-0.5942,-0.6013,-0.6095,-0.6135,-0.6139,-0.6224,-0.6295,-0.6369,0.0,-0.6742,-0.6824,-0.7048,-0.7139,-0.7139,-0.7139,-0.7401,-0.7841,-0.7316,-0.7489,-0.7841,0.0,0.0,0.0,0.0,0.0,0.0,0.0,0.0,0.0,0.0,0.0,0.0,0.0,0.0,0.0,0.0,0.0,0.0,0.0,0.0,-0.1389,-0.1389,-0.1389,-0.1524,-0.1839,-0.1569,-0.1389,-0.1389,-0.1478,-0.1792,-0.2239,-0.3087,-0.3619,-0.3924,-0.41,-0.4144,-0.4012,-0.4228,-0.4316,-0.436,0.0,0.0,0.0,0.0,0.0,0.0,0.0,0.0,0.0,0.0,0.0,0.0,0.0,0.0,0.0,-0.5116,-0.5072,-0.4941,-0.4666,-0.4609,-0.4504,-0.4187,-0.419,-0.4271,-0.4295,-0.414,-0.3941,-0.3863,-0.3843,-0.3846,-0.3788,-0.3698,-0.3839,-0.4528,-0.4201,-0.4168,-0.4882,-0.4611,-0.4575,0.0,0.0,0.0,0.0,0.0,0.0,0.0,0.0,0.0,-0.5435,-0.5428,-0.5416,-0.5532,-0.5538,-0.5589,-0.5698,-0.5698,-0.5749,-0.5857,-0.5973,-0.603,-0.6034,-0.619,-0.624,-0.6224,-0.6519,-0.6647,-0.6671,-0.6966,-0.7092,-0.7095,-0.7129,-0.7139,-0.7139,-0.7404,-0.7316,-0.7139,0.0,0.0,0.0,0.0,0.0,0.0,0.0,0.0,0.0,0.0,0.0,0.0,0.0,0.0,0.0,0.0,0.0,0.0,0.0,0.0,-0.1389,-0.1389,-0.1389,-0.1433,-0.1433,-0.1433,-0.1389,-0.1389,-0.1794,-0.2284,-0.2946,-0.3398,-0.3707,-0.388,-0.3924,-0.4056,-0.4276,-0.4272,-0.4403,-0.4574,-0.4574,0.0,0.0,0.0,0.0,0.0,0.0,0.0,0.0,0.0,0.0,0.0,0.0,0.0,-0.5072,-0.5366,-0.5241,-0.4941,-0.4666,-0.4574,-0.4439,-0.4174,-0.4024,-0.3949,-0.4003,-0.391,-0.3846,-0.3975,-0.4005,-0.386,-0.3428,-0.3172,-0.336,-0.4258,-0.4556,-0.5036,-0.6023,0.0,0.0,0.0,0.0,0.0,0.0,0.0,0.0,0.0,0.0,0.0,-0.5428,-0.5428,-0.5432,-0.5446,-0.5446,-0.5449,-0.5459,-0.5459,-0.5603,-0.6013,-0.6023,-0.603,-0.6034,-0.619,-0.6183,-0.6064,-0.6359,-0.6488,-0.6512,-0.6817,-0.6946,-0.6956,-0.7088,-0.7139,-0.7228,-0.8364,-0.8105,-0.7139,0.0,0.0,0.0,0.0,0.0,0.0,0.0,0.0,0.0,0.0,0.0,0.0,0.0,0.0,0.0,0.0,0.0,0.0,0.0,-0.1321,-0.135,-0.1387,-0.1389,-0.1389,-0.1389,-0.1389,-0.1389,-0.1389,-0.1794,-0.2328,-0.2943,-0.3306,-0.3707,-0.4144,-0.4144,-0.4184,-0.4316,-0.4447,-0.453,-0.4618,-0.4801,-0.4893,0.0,0.0,0.0,0.0,0.0,0.0,0.0,0.0,-0.5154,-0.528,-0.5198,-0.5241,-0.528,-0.5198,-0.4975,-0.4709,-0.4491,-0.4315,-0.4174,-0.3983,-0.389,-0.3882,-0.4094,-0.4185,-0.4199,-0.4117,-0.4233,-0.4118,-0.3538,-0.3827,-0.4155,-0.436,-0.4842,-0.5368,-0.5918,0.0,0.0,0.0,0.0,0.0,0.0,0.0,0.0,0.0,0.0,0.0,0.0,-0.5311,-0.5428,-0.5428,-0.5428,-0.5428,-0.5428,-0.5428,-0.5494,-0.5755,-0.5844,-0.5888,-0.5895,-0.6149,-0.6176,-0.6044,-0.6342,-0.6471,-0.6488,-0.6702,-0.6787,-0.6803,-0.6949,-0.6949,-0.6878,-0.7486,-0.7353,-0.7007,0.0,0.0,0.0,0.0,0.0,0.0,0.0,0.0,0.0,0.0,0.0,0.0,0.0,0.0,0.0,0.0,0.0,0.0,-0.1311,-0.1308,-0.1346,-0.1387,-0.1389,-0.1389,-0.1389,-0.1389,-0.1389,-0.1389,-0.1927,-0.2373,-0.2768,-0.3306,-0.3792,-0.4188,-0.4188,-0.4272,-0.4403,-0.4487,-0.4578,-0.4753,-0.4941,-0.499,0.0,0.0,0.0,0.0,0.0,0.0,0.0,0.0,-0.5154,-0.5323,-0.5198,-0.5241,-0.5323,-0.5198,-0.4932,-0.4666,-0.4447,-0.4276,-0.4107,-0.3925,-0.3839,-0.3873,-0.4127,-0.4287,-0.4321,-0.4317,-0.425,-0.4063,-0.3616,-0.3815,-0.4106,0.0,-0.497,-0.545,0.0,0.0,0.0,0.0,0.0,0.0,0.0,0.0,0.0,0.0,0.0,0.0,0.0,-0.5165,-0.5223,0.0,-0.5223,-0.5243,-0.5287,-0.5287,-0.5389,-0.5593,-0.5688,-0.5735,-0.5745,-0.6047,-0.6101,-0.5973,-0.6274,-0.6407,-0.6417,-0.6566,-0.6658,-0.6712,-0.6817,-0.6793,-0.6712,-0.6817,-0.6858,-0.6858,0.0,0.0,0.0,0.0,0.0,0.0,0.0,0.0,0.0,0.0,0.0,0.0,0.0,0.0,0.0,0.0,0.0,0.0,-0.13,-0.1368,-0.1389,-0.1389,-0.1389,-0.1389,-0.1389,-0.1389,-0.1389,-0.1389,-0.2148,-0.2504,-0.2504,-0.348,-0.3924,-0.3924,-0.3924,-0.4184,-0.4574,-0.4403,-0.4583,-0.499,-0.499,-0.499,-0.499,0.0,0.0,0.0,0.0,0.0,0.0,0.0,-0.499,-0.5072,-0.541,-0.5285,-0.5072,-0.541,-0.5241,-0.4941,-0.4666,-0.4447,-0.428,-0.4133,-0.3939,-0.3877,-0.4127,-0.408,-0.4107,-0.4457,-0.3971,-0.3562,-0.3658,-0.3,0.0,-0.4189,-0.4964,-0.541,0.0,0.0,0.0,0.0,0.0,0.0,0.0,0.0,0.0,0.0,0.0,0.0,0.0,-0.4918,-0.4918,0.0,-0.4918,-0.4986,-0.5128,-0.5131,-0.5284,-0.5586,-0.5586,-0.5589,-0.5599,-0.5895,-0.5942,-0.5817,-0.6122,-0.6257,-0.6271,-0.6413,-0.6559,-0.6698,-0.6698,-0.6698,-0.6698,-0.6698,-0.6698,-0.6698,0.0,0.0,0.0,0.0,0.0,0.0,0.0,0.0,0.0,0.0,0.0,0.0,0.0,0.0,0.0,0.0,0.0,0.0,-0.1376,-0.133,-0.1345,-0.1387,-0.1389,-0.1389,-0.1389,-0.1658,-0.1703,-0.1389,-0.2324,-0.2768,-0.2812,-0.3741,-0.4272,-0.4399,-0.4399,-0.4578,-0.4893,-0.4806,-0.4854,-0.499,-0.499,-0.499,-0.499,0.0,0.0,0.0,0.0,0.0,0.0,0.0,0.0,0.0,-0.5198,-0.5241,-0.5323,-0.5198,-0.4849,-0.4495,-0.4403,-0.4226,-0.4061,-0.3903,-0.4003,-0.4083,-0.4174,-0.429,-0.4385,-0.4582,-0.4389,-0.4091,-0.3779,-0.3815,0.0,-0.4011,-0.4523,0.0,0.0,0.0,0.0,0.0,0.0,0.0,0.0,0.0,0.0,0.0,0.0,0.0,0.0,-0.486,0.0,0.0,-0.4918,-0.4938,-0.4982,-0.5081,-0.5176,-0.5267,-0.5376,-0.5488,-0.5596,-0.5783,-0.5789,-0.5664,-0.5854,-0.6,-0.6108,-0.6261,-0.6349,-0.64,-0.6502,-0.6478,-0.6403,-0.6505,-0.6539,-0.6701,0.0,0.0,0.0,0.0,0.0,0.0,0.0,0.0,0.0,0.0,-0.1302,0.0,0.0,0.0,0.0,0.0,0.0,0.0,0.0,-0.1342,-0.1352,-0.1387,-0.1389,-0.1523,-0.1744,-0.2016,-0.2059,-0.201,-0.2724,-0.3078,-0.3126,-0.4005,-0.4443,-0.4487,-0.4574,-0.4753,-0.4985,-0.4893,-0.4893,-0.499,-0.499,-0.499,-0.499,0.0,0.0,0.0,0.0,0.0,0.0,0.0,0.0,0.0,-0.5072,-0.5154,-0.5241,-0.5072,-0.481,-0.4556,-0.454,-0.4353,-0.4181,-0.4112,-0.4161,-0.421,-0.4321,-0.4399,-0.4543,-0.4582,-0.4531,-0.4385,-0.4072,-0.4293,0.0,-0.4263,0.0,0.0,0.0,0.0,0.0,0.0,0.0,0.0,0.0,0.0,0.0,0.0,0.0,0.0,0.0,-0.4687,0.0,0.0,-0.4738,-0.4765,-0.4826,-0.4911,-0.5013,-0.5131,-0.5223,-0.5352,-0.5504,-0.565,-0.5671,-0.5596,-0.5739,-0.5888,-0.6037,-0.6132,-0.6207,-0.6271,-0.6356,-0.6335,-0.6271,-0.6356,-0.6386,-0.6544,0.0,0.0,0.0,0.0,0.0,0.0,0.0,0.0,0.0,0.0,-0.1334,-0.12,0.0,0.0,0.0,0.0,0.0,0.0,0.0,0.0,-0.1389,-0.1389,-0.1433,-0.1701,-0.2279,-0.2324,-0.2546,-0.2943,-0.3258,-0.3394,-0.3398,-0.4224,-0.4487,-0.4316,-0.4535,-0.4757,-0.4985,-0.4753,-0.4757,-0.499,-0.499,-0.499,-0.499,-0.499,0.0,0.0,0.0,0.0,0.0,0.0,0.0,0.0,-0.499,-0.499,-0.499,-0.499,-0.4955,-0.4923,-0.4868,-0.4662,-0.4482,-0.4536,-0.4414,-0.43,-0.4433,-0.4519,-0.4519,-0.4519,-0.4525,-0.4473,-0.4519,-0.4525,-0.4521,0.0,0.0,0.0,0.0,0.0,0.0,0.0,0.0,0.0,0.0,0.0,0.0,0.0,0.0,0.0,0.0,-0.4519,0.0,-0.4519,-0.4519,-0.4584,-0.4667,-0.4684,-0.4823,0.0,-0.5104,-0.5186,-0.5391,-0.5494,-0.5569,-0.5579,-0.5722,-0.5867,-0.601,-0.6023,-0.6122,-0.6338,-0.6338,-0.6338,-0.6338,-0.6338,-0.6338,-0.6338,0.0,0.0,0.0,0.0,0.0,0.0,0.0,0.0,0.0,0.0,0.0,0.0,0.0,0.0,0.0,0.0,0.0,0.0,0.0,0.0,-0.1389,-0.1389,-0.1703,-0.1928,-0.2062,-0.2593,-0.299,-0.3306,-0.3524,-0.3571,-0.3398,-0.4224,-0.4574,-0.453,-0.4806,-0.4941,-0.4985,-0.4941,-0.4941,-0.499,-0.499,-0.499,-0.499,-0.499,-0.499,0.0,0.0,0.0,0.0,0.0,0.0,0.0,-0.499,-0.499,-0.499,-0.499,-0.483,-0.4592,-0.4582,-0.4413,-0.4268,-0.4282,-0.4385,-0.4426,-0.4512,-0.4519,-0.4519,-0.4519,-0.4519,-0.4522,-0.4519,-0.4519,-0.4532,0.0,0.0,0.0,0.0,0.0,0.0,0.0,0.0,0.0,0.0,0.0,0.0,0.0,0.0,0.0,-0.4519,-0.4519,0.0,-0.4519,-0.4519,-0.4532,-0.4567,-0.4629,-0.4721,0.0,-0.4908,-0.4982,-0.5023,-0.5287,-0.541,-0.542,-0.5569,-0.5718,-0.5861,-0.5979,-0.6122,-0.6338,-0.6338,-0.6338,-0.6338,-0.6338,-0.6338,-0.649,0.0,0.0,0.0,0.0,0.0,0.0,0.0,0.0,0.0,0.0,0.0,0.0,0.0,0.0,0.0,0.0,0.0,0.0,0.0,0.0,-0.1389,-0.1389,-0.1614,-0.1927,-0.2415,-0.2768,-0.3255,-0.3836,-0.3921,-0.3921,-0.3836,-0.4491,-0.4709,-0.4618,-0.4893,-0.499,-0.499,-0.499,-0.499,-0.499,-0.499,-0.499,-0.5029,-0.5198,-0.5241,-0.5241,-0.542,0.0,0.0,0.0,0.0,0.0,0.0,0.0,-0.5198,-0.5029,-0.4883,-0.4733,-0.4621,-0.4508,-0.4426,-0.4367,-0.4406,-0.4519,-0.4519,-0.4519,-0.4519,-0.4519,-0.4519,-0.4519,-0.4519,-0.4519,0.0,0.0,0.0,0.0,0.0,0.0,0.0,0.0,0.0,0.0,0.0,0.0,0.0,0.0,0.0,-0.4519,-0.4519,-0.4519,-0.4519,-0.4519,-0.4519,-0.4519,-0.4519,-0.4541,-0.4619,-0.4694,-0.4772,-0.485,-0.4925,-0.5148,-0.525,-0.526,-0.5413,-0.5562,-0.5705,-0.5786,-0.5908,-0.6047,-0.6122,-0.6149,-0.6159,-0.6234,-0.6338,-0.649,0.0,0.0,0.0,0.0,0.0,0.0,0.0,0.0,0.0,0.0,0.0,0.0,0.0,0.0,0.0,0.0,0.0,0.0,0.0,0.0,0.0,-0.1389,-0.1523,-0.2012,-0.2898,-0.3031,-0.3473,-0.4316,-0.4316,-0.436,-0.436,-0.4762,-0.4801,-0.4618,-0.4893,-0.499,-0.499,-0.499,-0.499,-0.499,-0.5072,-0.5072,-0.5116,-0.541,-0.5534,-0.5626,-0.5841,-0.5933,-0.6019,-0.6019,0.0,0.0,0.0,0.0,-0.5448,-0.5154,-0.5052,-0.4933,-0.4774,-0.4701,-0.4676,-0.4555,-0.4519,-0.4519,-0.4519,-0.4519,-0.4519,-0.4519,-0.4519,-0.4519,-0.4519,-0.4519,0.0,0.0,0.0,0.0,0.0,0.0,0.0,0.0,0.0,0.0,0.0,0.0,0.0,0.0,0.0,-0.4519,-0.4519,-0.4519,-0.4519,-0.4519,-0.4519,-0.4519,-0.4519,-0.4519,-0.458,-0.4653,-0.4653,-0.4718,-0.4847,-0.4989,-0.5084,-0.5138,-0.5294,-0.5447,-0.5589,-0.5589,-0.5674,-0.5813,-0.5939,-0.6006,-0.6044,-0.6173,-0.6237,-0.6412,0.0,0.0,0.0,0.0,0.0,0.0,0.0,0.0,0.0,0.0,-0.1486,0.0,0.0,0.0,0.0,0.0,0.0,0.0,0.0,0.0,0.0,-0.1389,-0.2014,-0.2546,-0.2898,-0.3476,-0.3924,-0.4316,-0.4487,-0.4574,-0.4574,-0.4618,-0.4618,-0.4618,-0.4893,-0.499,-0.499,-0.499,-0.499,-0.5029,-0.5323,-0.5453,-0.5448,-0.5491,-0.5669,-0.589,-0.5669,-0.5755,-0.6019,-0.6019,-0.6019,0.0,0.0,0.0,-0.5491,-0.5448,-0.5192,-0.489,-0.4892,-0.4755,-0.4621,-0.4529,-0.4519,-0.4519,-0.4519,-0.4519,-0.4519,0.0,-0.4519,-0.4519,-0.4519,0.0,0.0,0.0,0.0,0.0,0.0,0.0,0.0,0.0,0.0,0.0,0.0,0.0,0.0,0.0,-0.4519,-0.4519,-0.4519,-0.4519,-0.4519,-0.4519,-0.4519,-0.4519,-0.4519,-0.4519,-0.4529,-0.4549,-0.4549,-0.456,-0.4584,-0.468,-0.4891,-0.5138,-0.5294,-0.5447,-0.5589,-0.5589,-0.5674,-0.5803,-0.5823,-0.5915,-0.603,-0.6054,-0.6146,-0.6412,0.0,0.0,0.0,0.0,0.0,0.0,0.0,0.0,0.0,0.0,0.0,-0.1328,0.0,0.0,0.0,0.0,0.0,0.0,0.0,0.0,0.0,-0.1748,-0.2148,-0.2637,-0.317,-0.3568,-0.4008,-0.4487,-0.4574,-0.4666,-0.4801,-0.4801,-0.4801,-0.4845,-0.4941,-0.499,-0.499,-0.499,-0.499,-0.5029,-0.5159,-0.5179,-0.5181,-0.5407,-0.5569,-0.5663,-0.5761,-0.589,-0.6019,-0.6019,-0.6019,-0.5976,-0.5798,0.0,0.0,0.0,-0.509,-0.4938,-0.4823,-0.4677,-0.4598,-0.4535,-0.4519,-0.4519,-0.4519,-0.4519,-0.4519,-0.4519,-0.4519,-0.4519,-0.4519,0.0,0.0,0.0,0.0,0.0,0.0,0.0,0.0,0.0,0.0,0.0,0.0,0.0,0.0,0.0,-0.4519,-0.4519,-0.4519,-0.4519,-0.4519,-0.4519,-0.4519,-0.4519,-0.4519,-0.4519,-0.4519,-0.4519,-0.4519,-0.4519,-0.4522,-0.4619,-0.4809,-0.5016,-0.5084,-0.5247,-0.5454,-0.5369,-0.542,-0.5562,-0.565,-0.5725,-0.5793,-0.5874,-0.6,-0.6356,0.0,0.0,0.0,0.0,0.0,0.0,0.0,0.0,0.0,0.0,0.0,0.0,0.0,0.0,0.0,0.0,0.0,0.0,0.0,0.0,0.0,-0.2194,-0.2502,-0.2946,-0.3571,-0.3785,-0.418,-0.4709,-0.4709,-0.4801,-0.499,-0.499,-0.499,-0.499,-0.499,-0.499,-0.499,-0.499,-0.499,-0.4994,-0.5086,-0.5065,-0.5038,-0.538,-0.5505,-0.5565,-0.5799,-0.5933,-0.6019,-0.6019,-0.6019,-0.5976,-0.5712,-0.5583,0.0,0.0,0.0,-0.4883,-0.4701,-0.4592,-0.4536,-0.4469,-0.446,-0.4525,-0.4508,-0.4519,-0.4519,0.0,-0.4519,-0.4519,0.0,0.0,0.0,0.0,0.0,0.0,0.0,0.0,0.0,0.0,0.0,0.0,0.0,0.0,0.0,0.0,-0.4519,-0.4519,-0.4519,-0.4519,-0.4519,-0.4519,-0.4519,-0.4519,-0.4519,-0.4519,-0.4519,-0.4519,-0.4519,-0.4519,-0.4522,-0.4579,-0.4718,-0.4863,-0.4901,-0.5067,-0.5294,-0.5179,-0.522,-0.5439,-0.5488,-0.5555,-0.5603,-0.5708,-0.6009,-0.6541,0.0,0.0,0.0,0.0,0.0,0.0,0.0,0.0,0.0,0.0,0.0,0.0,-0.1389,-0.1389,-0.1389,-0.1389,-0.1389,0.0,0.0,0.0,0.0,-0.2854,-0.3344,0.0,-0.4045,-0.4395,-0.4709,-0.4985,-0.4985,-0.4985,-0.499,-0.499,-0.499,-0.499,-0.499,-0.499,-0.499,-0.499,-0.499,-0.5004,-0.5288,-0.5375,-0.5385,-0.5421,-0.5601,-0.5844,-0.5618,-0.5712,-0.6019,-0.6019,-0.6019,-0.5976,-0.5976,-0.5755,-0.5491,0.0,0.0,0.0,-0.4554,-0.4521,-0.4466,-0.4289,-0.4414,-0.4555,-0.4539,-0.4519,-0.4519,-0.4519,-0.4519,-0.4519,0.0,0.0,0.0,0.0,0.0,0.0,0.0,0.0,0.0,0.0,0.0,0.0,0.0,0.0,0.0,0.0,-0.4519,-0.4519,-0.4519,-0.4519,-0.4519,-0.4519,-0.4519,-0.4519,-0.4519,-0.4519,-0.4519,-0.4519,-0.4519,-0.4519,-0.4519,-0.4525,-0.4558,-0.4711,-0.4857,-0.5003,-0.5142,-0.5135,-0.522,-0.5428,-0.5435,-0.546,-0.5593,-0.5599,-0.6347,-0.7274,0.0,0.0,0.0,0.0,0.0,0.0,0.0,0.0,0.0,0.0,0.0,0.0,0.0,-0.1389,-0.1389,-0.1389,-0.1389,0.0,0.0,0.0,0.0,-0.2637,-0.3214,-0.3744,-0.4228,-0.4487,-0.4709,-0.499,-0.499,-0.499,-0.499,-0.499,-0.499,-0.499,-0.499,-0.499,-0.499,-0.499,-0.499,-0.5004,-0.507,-0.5034,-0.4939,-0.5059,-0.507,-0.5093,-0.5107,-0.5174,-0.531,-0.531,-0.5311,-0.5376,-0.5376,-0.529,-0.5198,-0.5198,-0.4884,-0.4573,-0.4495,-0.4361,-0.4226,-0.41,-0.4227,-0.4312,-0.4314,-0.4395,-0.4519,-0.4519,-0.4519,-0.4519,0.0,0.0,0.0,0.0,0.0,0.0,0.0,0.0,0.0,0.0,0.0,0.0,0.0,0.0,0.0,0.0,0.0,-0.4519,-0.4519,-0.4519,-0.4519,-0.4519,-0.4525,-0.4473,-0.4473,-0.448,-0.448,-0.4473,-0.448,-0.448,-0.4473,-0.4473,-0.4501,-0.4548,-0.4602,-0.4765,-0.4996,-0.4996,-0.5081,-0.5223,-0.5321,-0.5463,-0.5443,-0.5443,-0.618,-0.7065,0.0,0.0,0.0,0.0,0.0,0.0,0.0,0.0,0.0,-0.1381,0.0,0.0,0.0,0.0,-0.1389,-0.1389,-0.1389,-0.1478,-0.1614,-0.1927,-0.2239,-0.2637,-0.317,-0.3744,-0.4228,-0.4487,-0.4709,-0.499,-0.499,-0.499,-0.499,-0.499,-0.499,-0.499,-0.499,-0.499,-0.499,-0.499,-0.499,-0.5009,-0.4861,-0.4795,-0.4689,-0.4818,-0.4726,-0.4641,-0.484,-0.4916,-0.4879,-0.4845,-0.4899,-0.4942,-0.496,-0.4905,-0.4849,-0.4849,-0.4626,-0.434,-0.4331,-0.4184,-0.4036,-0.3955,-0.4072,-0.4175,-0.4174,-0.4321,-0.4402,-0.4508,-0.4519,-0.4519,0.0,0.0,0.0,0.0,0.0,0.0,0.0,0.0,0.0,0.0,0.0,0.0,0.0,0.0,0.0,0.0,0.0,0.0,-0.4519,-0.4522,-0.4525,-0.4473,-0.4024,-0.3744,-0.3744,-0.4265,-0.4265,-0.3744,-0.3749,-0.3749,-0.3744,-0.4252,-0.4477,-0.4522,-0.4519,-0.4606,-0.4843,-0.4843,-0.4955,-0.5142,-0.5243,-0.5315,-0.5428,-0.5752,-0.6317,-0.6941,0.0,0.0,0.0,0.0,0.0,0.0,0.0,0.0,-0.1324,-0.1381,0.0,0.0,0.0,0.0,0.0,-0.1389,-0.1389,-0.1569,-0.1973,-0.2192,-0.2457,-0.2854,0.0,0.0,-0.4092,-0.4399,-0.4709,-0.4985,-0.4985,-0.4985,-0.4985,-0.4985,-0.499,-0.499,-0.499,-0.499,-0.499,-0.499,-0.499,-0.4979,-0.4805,-0.4705,-0.4709,-0.4709,-0.4713,-0.4701,-0.4858,-0.4887,-0.4867,-0.4751,-0.4731,-0.4815,-0.4883,-0.4771,-0.4574,-0.4574,-0.4272,-0.388,0.0,0.0,0.0,-0.3794,-0.3932,-0.4116,-0.4168,0.0,-0.4231,-0.4426,-0.4512,-0.4512,0.0,0.0,0.0,0.0,0.0,0.0,0.0,0.0,0.0,0.0,0.0,0.0,0.0,0.0,0.0,0.0,-0.4519,-0.4519,-0.4519,-0.4473,-0.4428,-0.4497,-0.3074,-0.2232,-0.2119,-0.3641,-0.3641,-0.2287,-0.2174,-0.2119,-0.2174,-0.3744,-0.4477,-0.448,-0.4522,-0.4548,-0.4684,-0.4687,-0.486,-0.5118,-0.5121,-0.522,-0.5484,-0.6322,-0.6835,-0.7074,0.0,0.0,0.0,0.0,0.0,-0.1297,-0.1356,-0.1365,-0.137,0.0,0.0,0.0,-0.1389,-0.1389,-0.1389,-0.1389,-0.1389,-0.1433,-0.1569,-0.1882,-0.215,-0.2239,-0.2857,-0.33,-0.3571,-0.4096,-0.4403,-0.4495,-0.4849,-0.4893,-0.4709,-0.4893,-0.499,-0.499,-0.499,-0.499,-0.499,-0.499,-0.499,-0.4979,-0.4805,-0.4781,-0.4845,-0.4691,-0.4634,-0.4691,-0.4677,-0.4676,-0.4684,0.0,-0.4759,-0.487,-0.4709,-0.4534,-0.4403,-0.4403,-0.414,-0.388,-0.388,0.0,0.0,0.0,0.0,0.0,0.0,0.0,-0.4073,-0.4277,-0.4307,-0.4338,0.0,0.0,0.0,0.0,0.0,0.0,0.0,0.0,0.0,0.0,0.0,0.0,0.0,0.0,0.0,0.0,-0.4519,-0.4522,-0.4473,-0.3461,-0.3357,-0.4452,-0.4107,-0.28,-0.0614,-0.1007,-0.2128,-0.3822,-0.1623,-0.0615,-0.067,-0.2174,-0.3463,-0.448,-0.4522,-0.4543,-0.4591,-0.4646,-0.4738,-0.4823,-0.4935,-0.5067,-0.5192,-0.5446,-0.6059,-0.6734,0.0,0.0,0.0,0.0,0.0,-0.1349,-0.1383,-0.1389,-0.1389,0.0,0.0,0.0,-0.1389,-0.1389,-0.1389,-0.1389,-0.1389,-0.1389,-0.1389,-0.1614,-0.1748,-0.1748,-0.2456,-0.2981,-0.3254,-0.3954,-0.4371,-0.4386,-0.4837,-0.4925,-0.4618,-0.4977,-0.5065,-0.499,-0.499,-0.499,-0.4994,-0.5079,-0.5112,-0.5105,-0.4869,-0.4825,-0.4931,-0.4811,-0.4736,-0.4657,0.0,0.0,-0.4621,-0.4581,-0.4594,-0.4673,-0.4517,-0.4308,-0.4144,-0.4144,-0.3968,-0.3796,-0.3796,-0.3711,-0.3581,-0.3581,0.0,0.0,-0.3809,-0.3897,-0.3999,0.0,-0.425,-0.4362,0.0,0.0,0.0,0.0,0.0,0.0,0.0,0.0,0.0,0.0,0.0,0.0,0.0,-0.4519,-0.4519,-0.4519,-0.4519,-0.4239,-0.3574,-0.3302,-0.297,-0.2639,-0.2639,-0.1793,-0.0,-0.0,-0.0897,-0.2583,-0.0841,-0.0,-0.0056,-0.1506,-0.3016,-0.4487,-0.4525,-0.4519,-0.4525,-0.4558,-0.4633,-0.4701,-0.4789,-0.4948,-0.5131,-0.5508,-0.5864,-0.6137,0.0,0.0,-0.2284,-0.1973,-0.1658,-0.1389,-0.1389,-0.1389,-0.1389,0.0,-0.1389,-0.1389,-0.1389,-0.1389,-0.1389,-0.1389,-0.1389,-0.1391,-0.1398,-0.1398,-0.1398,-0.1398,-0.2242,-0.28,-0.3017,-0.3914,-0.4364,-0.4404,-0.4925,-0.4974,-0.4609,-0.5038,-0.5166,-0.4979,-0.4958,-0.4997,-0.4988,-0.519,-0.5288,-0.5297,-0.5017,-0.5011,-0.5067,-0.5,-0.484,-0.4681,-0.4754,-0.4751,-0.4577,-0.4535,-0.451,0.0,-0.4323,-0.4152,-0.3909,-0.3899,-0.3766,-0.3598,-0.3585,-0.3581,-0.3581,-0.3581,-0.3581,0.0,-0.3805,-0.3846,-0.3873,0.0,0.0,-0.4446,0.0,0.0,0.0,0.0,0.0,0.0,0.0,0.0,0.0,0.0,0.0,0.0,-0.4519,-0.4519,-0.4519,-0.4519,-0.4519,-0.3907,-0.2512,-0.3423,-0.2751,-0.0112,-0.0,-0.0,-0.0,-0.0,-0.0,-0.0,-0.0,-0.0,-0.0056,-0.134,-0.2905,-0.4494,-0.4473,-0.4519,-0.4519,-0.4519,-0.4545,-0.4667,-0.4667,-0.4847,-0.5171,-0.5919,-0.5853,-0.5491,0.0,-0.188,-0.1612,-0.1524,-0.1433,-0.1389,-0.1389,-0.1389,-0.1389,-0.1389,-0.1389,-0.1389,-0.1389,-0.1389,-0.1389,-0.1389,-0.1389,-0.1408,-0.1456,-0.146,-0.146,-0.146,-0.2227,-0.2623,-0.2627,-0.3622,-0.4109,-0.3932,-0.4521,-0.4694,-0.4541,-0.4718,-0.4849,-0.4914,-0.4828,-0.4811,-0.4918,-0.5123,-0.5291,-0.5349,-0.5263,-0.527,-0.5356,-0.504,-0.4968,-0.5006,-0.492,-0.479,-0.4702,-0.4723,-0.4678,-0.4601,0.0,-0.4246,-0.4096,-0.3774,-0.3705,-0.3724,-0.3612,-0.3581,-0.3581,-0.3581,-0.3581,0.0,-0.3629,-0.3639,-0.3676,0.0,-0.388,-0.3961,-0.4083,0.0,0.0,0.0,0.0,0.0,0.0,0.0,0.0,0.0,0.0,0.0,-0.4519,-0.4519,-0.4519,-0.4519,-0.448,-0.4383,-0.4051,-0.2018,-0.0617,-0.0,-0.0,-0.0,-0.0,-0.0,-0.0,-0.0,-0.0,-0.0,-0.0,-0.028,-0.1899,-0.4497,-0.4484,-0.4525,-0.4519,-0.4519,-0.4536,-0.4563,-0.4563,-0.4694,-0.4958,-0.5142,-0.5255,-0.5428,-0.2239,-0.1971,-0.1703,-0.1703,-0.1524,-0.1389,-0.1389,-0.1389,-0.1389,-0.1389,-0.1415,-0.1432,-0.1432,-0.1459,-0.1477,-0.1477,-0.1477,-0.1537,-0.1568,-0.1541,-0.1477,-0.1477,-0.2093,-0.245,-0.2585,-0.3405,-0.3825,-0.3792,-0.433,-0.4476,-0.4318,-0.4626,-0.471,-0.4692,-0.4723,-0.4702,-0.4701,-0.4981,-0.5207,-0.5333,-0.5409,0.0,-0.5422,-0.5241,-0.5091,-0.5023,-0.5023,-0.4928,-0.4785,-0.4775,-0.4713,0.0,-0.4713,-0.4515,-0.4137,0.0,-0.3849,-0.386,-0.3639,-0.3581,-0.3581,-0.3581,0.0,0.0,0.0,-0.3581,-0.3598,-0.3673,-0.3687,-0.371,-0.3785,0.0,0.0,0.0,0.0,0.0,0.0,0.0,0.0,0.0,0.0,0.0,-0.4519,-0.4519,-0.4519,-0.4525,-0.449,-0.4507,-0.4514,-0.1625,-0.0,-0.0,-0.0,-0.0,-0.0,-0.0,-0.0,-0.0,-0.0,-0.0,-0.0,-0.0,-0.1228,-0.3413,-0.4141,-0.4473,-0.4519,-0.4519,-0.4519,-0.4519,-0.4519,-0.465,-0.4918,-0.4918,-0.5108,-0.5428,-0.2281,-0.2061,-0.1884,-0.1885,-0.1614,-0.1389,-0.1389,-0.1389,-0.1393,-0.1404,-0.1447,-0.1529,-0.1541,-0.1547,-0.1587,-0.1598,-0.1598,-0.1604,-0.1614,-0.156,-0.1523,-0.156,-0.1946,-0.2374,-0.2694,-0.3243,-0.3655,-0.388,-0.4278,-0.4378,-0.4227,-0.458,-0.4664,-0.4514,-0.4665,-0.4642,-0.453,-0.4872,-0.5124,-0.5301,0.0,-0.5474,-0.5417,-0.539,-0.5213,-0.5016,-0.5101,-0.5077,-0.4982,-0.484,-0.4701,-0.4633,-0.4931,-0.4684,0.0,0.0,0.0,-0.3999,0.0,0.0,0.0,0.0,0.0,-0.3581,0.0,0.0,0.0,-0.3581,-0.3581,0.0,0.0,0.0,0.0,0.0,0.0,0.0,0.0,0.0,0.0,0.0,0.0,0.0,0.0,-0.4368,-0.4385,-0.4484,-0.4245,-0.3913,-0.3655,-0.1345,-0.0,-0.0,-0.0,-0.0,-0.0,-0.0,-0.0,-0.0,-0.0,-0.0,-0.0,-0.0,-0.0781,-0.2287,-0.3802,-0.4473,-0.4519,-0.4519,-0.4519,-0.4519,-0.4519,-0.465,-0.4918,-0.4918,-0.5108,-0.5428,-0.1524,-0.1478,-0.1479,-0.1484,-0.1436,-0.1389,-0.1389,-0.1389,-0.1407,-0.146,-0.1473,-0.1545,-0.1599,-0.1608,-0.161,-0.1605,-0.1609,-0.163,-0.1679,-0.1687,-0.1687,-0.1688,-0.1997,-0.2378,-0.2797,-0.3311,-0.3786,-0.4143,-0.4395,-0.4499,-0.4558,-0.4556,-0.4545,-0.4569,-0.4653,-0.4677,-0.4629,-0.4953,-0.5191,0.0,-0.5366,-0.5467,0.0,-0.5429,-0.5408,-0.5294,-0.5172,-0.5209,-0.527,0.0,-0.4969,-0.4992,0.0,-0.4674,-0.4735,-0.4182,0.0,0.0,0.0,0.0,0.0,0.0,-0.3581,0.0,0.0,0.0,-0.3581,-0.3581,0.0,0.0,0.0,0.0,0.0,0.0,0.0,0.0,0.0,0.0,0.0,0.0,0.0,0.0,0.0,-0.3853,-0.3851,-0.4442,-0.3222,-0.1898,-0.0559,-0.0168,-0.0,-0.0,-0.0,-0.0,-0.0,-0.0,-0.0,-0.0,-0.0,-0.0,-0.0,-0.0,-0.0783,-0.2287,-0.3811,-0.4484,-0.4519,-0.4519,-0.4519,-0.4519,-0.4519,-0.465,-0.4918,-0.4918,-0.5108,-0.5428,-0.1348,-0.1167,-0.0995,-0.0972,-0.0975,-0.1067,-0.1346,-0.1439,-0.1461,-0.157,-0.1608,-0.164,-0.1665,-0.1752,-0.1774,-0.1715,-0.1779,-0.1659,-0.1357,-0.1601,-0.17,-0.1658,-0.1756,-0.2048,-0.2363,-0.2602,-0.2931,-0.3348,-0.3709,-0.3798,-0.3606,-0.3871,-0.3868,-0.3617,-0.3955,-0.4001,-0.3899,-0.4497,-0.4789,0.0,0.0,-0.5142,0.0,-0.5404,-0.5428,-0.5418,-0.5287,-0.5308,-0.5408,0.0,-0.5101,0.0,0.0,0.0,0.0,-0.4484,0.0,0.0,0.0,0.0,0.0,0.0,0.0,0.0,-0.3619,0.0,-0.3581,0.0,0.0,0.0,0.0,0.0,0.0,0.0,-0.37,0.0,0.0,0.0,0.0,0.0,0.0,0.0,0.0,0.0,0.0,0.0,-0.2282,-0.0648,-0.0056,-0.0,-0.0,-0.0,-0.0,-0.0,-0.0,-0.0,-0.0,-0.0,-0.0,-0.0,-0.0,-0.0,-0.0783,-0.2287,-0.3811,-0.4484,-0.4519,-0.4519,-0.4519,-0.4525,-0.4562,-0.4728,-0.4918,-0.4918,-0.5108,-0.5428,-0.1325,-0.1133,-0.0817,-0.056,-0.0516,-0.0706,-0.1332,-0.1477,-0.1552,-0.1629,-0.1679,-0.1718,-0.1751,-0.1816,-0.1856,-0.185,-0.1557,-0.1285,-0.1044,-0.1486,-0.1709,-0.1663,-0.163,-0.1783,-0.203,-0.2149,-0.2387,-0.2803,-0.3164,-0.3206,-0.2962,-0.3281,-0.3281,-0.2972,-0.3348,-0.35,-0.3401,0.0,-0.442,-0.4535,-0.4635,-0.4584,-0.4431,-0.5145,-0.5457,-0.5481,-0.5396,-0.5393,-0.541,-0.5325,-0.5159,0.0,-0.5186,0.0,-0.4809,0.0,0.0,0.0,-0.4039,0.0,0.0,0.0,0.0,0.0,0.0,0.0,0.0,0.0,0.0,0.0,0.0,0.0,-0.3517,-0.3517,0.0,-0.3697,0.0,0.0,0.0,0.0,0.0,0.0,0.0,0.0,0.0,-0.3597,-0.1499,-0.0161,-0.0,-0.0,-0.0,-0.0,-0.0,-0.0,-0.0,-0.0,-0.0,-0.0,-0.0,-0.0,-0.0,-0.0,-0.0794,-0.2261,-0.3825,-0.4507,-0.458,-0.458,-0.458,-0.4594,-0.4694,-0.4819,-0.4925,-0.4962,-0.5142,-0.5428,-0.1327,-0.1389,-0.108,-0.018,-0.0,-0.0319,-0.1279,-0.1525,-0.1617,-0.1687,-0.1704,-0.1749,-0.1862,-0.1845,-0.1831,-0.1951,-0.0805,-0.0292,-0.0875,-0.1369,-0.1645,-0.1779,-0.1794,-0.1787,-0.1836,-0.2251,-0.2679,-0.3065,-0.3121,-0.3123,-0.307,-0.3125,-0.3125,-0.313,-0.3304,-0.3473,-0.3576,-0.3809,-0.4115,-0.4491,-0.452,-0.3707,-0.2684,0.0,-0.5557,-0.5636,-0.5484,0.0,0.0,-0.5237,-0.5075,0.0,0.0,0.0,0.0,0.0,0.0,0.0,0.0,0.0,0.0,-0.3826,0.0,0.0,0.0,0.0,-0.3581,0.0,0.0,0.0,0.0,-0.3216,-0.3313,-0.3313,-0.3487,0.0,0.0,0.0,0.0,0.0,0.0,0.0,0.0,0.0,0.0,-0.154,-0.098,-0.0469,-0.0,-0.0,-0.0,-0.0,-0.0,-0.0,-0.0,-0.0,-0.0,-0.0,-0.0,-0.0,-0.0,-0.0,-0.0821,-0.2279,-0.3809,-0.4568,-0.4684,-0.4684,-0.4684,-0.4697,-0.4853,-0.4914,-0.4935,-0.5074,-0.5223,-0.5428,-0.0443,-0.049,-0.0392,-0.005,-0.0,-0.0099,-0.0422,-0.0782,-0.1026,0.0,-0.1501,0.0,0.0,-0.1895,-0.1951,-0.1892,-0.159,-0.132,-0.0946,-0.144,-0.1703,-0.174,-0.1782,-0.1794,-0.1784,-0.1973,-0.2076,-0.2242,-0.2577,-0.2521,-0.2242,-0.2577,-0.2521,-0.2247,-0.2312,-0.2371,0.0,0.0,0.0,0.0,0.0,-0.313,-0.2464,0.0,0.0,-0.478,-0.544,-0.5577,0.0,-0.5316,-0.5329,-0.5107,-0.3856,-0.4157,-0.503,-0.521,-0.5085,0.0,0.0,0.0,-0.3889,-0.3324,0.0,0.0,0.0,0.0,0.0,0.0,0.0,0.0,0.0,-0.3206,-0.3306,-0.3351,-0.348,-0.3581,0.0,0.0,0.0,0.0,0.0,0.0,0.0,0.0,0.0,-0.1432,-0.1255,-0.0848,-0.0056,-0.0,-0.0,-0.0,-0.0,-0.0,-0.0,-0.0,-0.0,-0.0,-0.0,-0.0,-0.0,-0.0,-0.0951,-0.2598,-0.4115,-0.4783,-0.4843,-0.4843,-0.4782,-0.4714,-0.4962,-0.5003,-0.4938,-0.5077,-0.5226,-0.5428,-0.0,-0.0,-0.0,-0.0,-0.0,-0.0,0.0,0.0,0.0,0.0,-0.089,0.0,-0.1448,0.0,-0.1929,0.0,-0.1595,-0.13,-0.0893,-0.1436,-0.1796,-0.174,-0.1579,-0.1608,-0.177,-0.182,-0.1802,-0.1802,-0.2099,-0.2076,-0.1797,-0.2132,-0.2076,-0.1801,-0.1837,-0.183,-0.1818,-0.2177,-0.2836,0.0,0.0,-0.236,0.0,0.0,-0.3728,-0.4159,0.0,-0.4104,-0.4556,-0.4469,-0.4858,-0.5073,-0.3267,-0.29,-0.3325,-0.4156,-0.4302,-0.4105,-0.4122,-0.3822,0.0,-0.2695,-0.2972,0.0,-0.3259,0.0,0.0,0.0,0.0,0.0,0.0,-0.3096,-0.321,-0.3327,-0.3488,-0.3581,0.0,-0.3581,0.0,0.0,0.0,0.0,0.0,0.0,-0.2334,-0.1558,-0.1453,-0.1001,0.0,0.0,-0.0,-0.0,-0.0,-0.0,-0.0,-0.0,-0.0,-0.0,-0.0,-0.0,-0.0,-0.0,-0.0984,-0.2808,-0.4378,-0.5065,-0.4996,-0.4996,-0.4938,-0.487,-0.5118,-0.5125,-0.5013,-0.5159,-0.5277,-0.5428,0.0,-0.0,-0.0,0.0,-0.0,0.0,0.0,0.0,-0.0,0.0,-0.0,-0.0225,-0.0791,-0.1406,-0.1849,-0.2055,-0.0851,-0.0247,-0.0785,-0.1477,-0.1833,-0.1766,-0.1213,-0.1173,-0.1675,-0.1768,-0.1787,-0.1787,-0.1796,-0.1798,-0.1801,-0.1798,-0.18,-0.1808,-0.1858,-0.1859,-0.1752,-0.1175,-0.139,-0.2024,-0.1375,-0.1474,-0.2038,-0.204,-0.2906,-0.3778,-0.0957,-0.1259,-0.2926,-0.2638,-0.3725,-0.4801,-0.3083,-0.1373,-0.0338,-0.2077,-0.2534,-0.2586,-0.2572,-0.2595,-0.2451,-0.1836,0.0,0.0,0.0,0.0,-0.4158,0.0,0.0,0.0,0.0,0.0,-0.2997,-0.326,-0.3472,-0.3615,-0.3615,-0.3615,-0.3619,0.0,0.0,0.0,0.0,-0.3257,-0.2553,-0.1701,-0.151,-0.0974,0.0,0.0,-0.0,-0.0,-0.0,-0.0,-0.0,-0.0,-0.0,-0.0,-0.0,-0.0,-0.0,-0.0,-0.0968,-0.2832,-0.4584,-0.5289,-0.5142,-0.5142,-0.5138,-0.5145,-0.5301,-0.527,-0.5159,-0.5308,-0.5428,-0.5428,-0.0,-0.0,-0.0,0.0,-0.0,-0.0,0.0,0.0,0.0,0.0,-0.0,-0.0084,-0.0185,-0.0371,-0.0459,-0.0539,-0.0176,0.0,0.0,0.0,0.0,-0.1767,-0.1251,-0.0759,-0.0437,-0.1047,-0.1478,-0.1787,-0.1796,-0.1819,-0.1858,-0.1816,-0.1843,-0.1926,-0.1895,-0.192,-0.1885,-0.1423,-0.0986,-0.0668,-0.1529,-0.2022,0.0,0.0,-0.2398,-0.2505,-0.069,-0.0309,-0.0773,-0.0749,-0.1038,-0.1331,-0.087,-0.0359,-0.0071,-0.0563,-0.0697,-0.0689,-0.0665,-0.0725,-0.0651,-0.0494,-0.0558,-0.0745,0.0,0.0,0.0,0.0,0.0,0.0,0.0,0.0,0.0,-0.298,-0.342,-0.3598,-0.3598,-0.3598,0.0,-0.3612,0.0,0.0,-0.2903,-0.3031,-0.2507,-0.1055,-0.124,-0.0968,-0.0055,0.0,0.0,-0.0,-0.0,-0.0,-0.0,-0.0,-0.0,-0.0,-0.0,-0.0,-0.0,-0.0,-0.0977,-0.2779,-0.4586,-0.5382,-0.5304,-0.5304,-0.5233,-0.5145,-0.5301,-0.5338,-0.5308,-0.5415,-0.5428,-0.5446,-0.0,0.0,0.0,-0.0,0.0,0.0,-0.0,-0.0,0.0,-0.0,-0.0,0.0,-0.0,-0.0,-0.0,-0.0,-0.0,0.0,-0.0,0.0,0.0,-0.1791,-0.0949,-0.0366,-0.0,-0.0417,-0.1051,-0.1794,-0.1811,-0.1806,-0.1843,-0.1837,-0.1869,-0.1933,-0.1952,-0.1969,-0.1957,-0.1771,-0.1386,-0.0965,-0.1139,-0.1609,0.0,-0.2181,-0.2206,-0.1989,-0.0558,-0.0,-0.0,-0.0,-0.0,-0.0,-0.0,-0.0,-0.0,-0.0,-0.0,-0.0,-0.0,-0.0,-0.0,-0.0,-0.0,-0.0066,-0.0316,-0.0429,-0.0654,0.0,0.0,0.0,0.0,0.0,0.0,-0.2344,-0.2711,-0.2824,-0.2816,0.0,0.0,0.0,-0.3135,0.0,0.0,-0.2947,-0.2562,-0.1768,-0.1119,-0.0743,0.0,0.0,0.0,-0.0,-0.0,-0.0,-0.0,-0.0,-0.0,-0.0,-0.0,-0.0,-0.0,-0.0,-0.0993,-0.2809,-0.4629,-0.537,-0.5428,-0.5428,-0.5311,-0.524,-0.5328,-0.5428,-0.5428,-0.5428,-0.5428,-0.5439,0.0,0.0,0.0,0.0,0.0,0.0,0.0,-0.0,0.0,-0.0,0.0,-0.0,-0.0,-0.0,-0.0,-0.0,0.0,-0.0,-0.0,-0.0,-0.0477,-0.1493,-0.0543,-0.0,-0.0,-0.0,-0.0574,-0.17,-0.1791,-0.1808,-0.1822,-0.1862,-0.189,-0.191,-0.2078,-0.2105,0.0,-0.2177,-0.2162,-0.2065,-0.0799,-0.0977,-0.1955,-0.2126,-0.2071,-0.1765,-0.0494,-0.0,-0.0,-0.0,-0.0,-0.0,-0.0,-0.0,-0.0,-0.0,-0.0,-0.0,-0.0,-0.0,-0.0,-0.0,-0.0,-0.0,-0.0,-0.0,-0.0,-0.0,-0.0,-0.0,0.0,0.0,0.0,-0.1403,-0.1572,0.0,0.0,0.0,0.0,0.0,0.0,0.0,0.0,0.0,-0.2418,-0.2766,-0.1188,-0.0478,0.0,0.0,0.0,-0.0,-0.0,0.0,-0.0,0.0,-0.0,-0.0,-0.0,-0.0,-0.0,-0.0,-0.1143,-0.3149,-0.4709,-0.5382,-0.5428,-0.5428,-0.5428,-0.5428,-0.5428,-0.5428,-0.5428,-0.5428,-0.5428,-0.5432,0.0,0.0,0.0,0.0,0.0,-0.0,-0.0,-0.0,-0.0,-0.0,-0.0,-0.0,-0.0,-0.0,-0.0,-0.0,-0.0,0.0,0.0,0.0,0.0,-0.0329,-0.0083,-0.0,-0.0,-0.0,-0.0378,-0.1222,-0.1598,-0.1884,-0.194,-0.1901,-0.1935,-0.2096,-0.2117,-0.2153,-0.2161,-0.2202,0.0,-0.2193,-0.1933,-0.1221,-0.0489,-0.1747,-0.1427,-0.0337,-0.0084,-0.0,-0.0,-0.0,-0.0,-0.0,-0.0,-0.0,-0.0,-0.0,-0.0,-0.0,-0.0,-0.0,-0.0,-0.0,-0.0,-0.0,-0.0,-0.0,-0.0,-0.0,-0.0,-0.0,-0.0,0.0,0.0,0.0,0.0,0.0,0.0,0.0,0.0,0.0,0.0,-0.2267,0.0,0.0,0.0,-0.1669,-0.1345,-0.0902,0.0,0.0,0.0,0.0,-0.0,0.0,0.0,0.0,-0.0,-0.0,-0.0,-0.0,-0.0,-0.0,-0.1818,-0.4928,-0.5262,-0.5389,-0.5376,-0.5432,-0.5428,-0.5428,-0.5428,-0.5428,-0.5428,-0.5428,-0.5428,-0.5446,0.0,0.0,0.0,0.0,0.0,0.0,0.0,-0.0,0.0,-0.0,-0.0,-0.0,-0.0,-0.0,-0.0,-0.0,-0.0,-0.0,-0.0,-0.0,-0.0,-0.0,-0.0,-0.0,-0.0,-0.0,-0.0393,-0.1093,0.0,-0.1991,-0.1971,-0.1974,-0.2007,-0.2067,-0.2095,-0.2182,0.0,0.0,0.0,-0.2127,-0.1354,-0.06,-0.0086,-0.0782,-0.061,-0.0,-0.0,-0.0,-0.0,-0.0,-0.0,-0.0,-0.0,-0.0,-0.0,-0.0,-0.0,-0.0,-0.0,-0.0,-0.0,-0.0,-0.0,-0.0,-0.0,-0.0,-0.0,-0.0,-0.0,-0.0,-0.0,-0.0,0.0,0.0,0.0,0.0,0.0,0.0,-0.0432,0.0,0.0,0.0,0.0,0.0,0.0,0.0,0.0,-0.0465,0.0,0.0,0.0,0.0,0.0,0.0,0.0,0.0,0.0,-0.0,-0.0,-0.0,-0.0,-0.0,-0.0942,-0.2686,-0.4584,-0.5393,-0.5376,-0.5432,-0.5428,-0.5428,-0.5428,-0.5428,-0.5428,-0.5428,-0.5428,-0.5439,0.0,-0.0,0.0,0.0,-0.0,0.0,-0.0,-0.0,-0.0,-0.0,-0.0,-0.0,-0.0,-0.0,-0.0,-0.0,-0.0,-0.0,-0.0,-0.0,-0.0,-0.0,-0.0,-0.0,-0.0,-0.0,-0.0246,0.0,0.0,0.0,0.0,-0.1988,-0.1953,0.0,0.0,0.0,0.0,0.0,-0.2034,-0.1628,-0.0443,-0.0,-0.0,-0.0,-0.0,-0.0,-0.0,-0.0,-0.0,-0.0,-0.0,-0.0,-0.0,-0.0,-0.0,-0.0,-0.0,-0.0,-0.0,-0.0,-0.0,-0.0,-0.0,-0.0,-0.0,-0.0,-0.0,-0.0,-0.0,-0.0,-0.0,-0.0,0.0,0.0,0.0,0.0,0.0,0.0,0.0,0.0,0.0,0.0,-0.0098,0.0,0.0,0.0,0.0,-0.0,-0.0,-0.0,0.0,0.0,0.0,-0.0,-0.0,0.0,-0.0,0.0,-0.0,-0.0,-0.0,-0.0,-0.0,-0.0134,-0.3025,-0.4712,-0.5379,-0.5369,-0.5428,-0.5428,-0.5428,-0.5428,-0.5428,-0.5428,-0.5449,-0.541,0.0,0.0,0.0,0.0,0.0,0.0,-0.0,-0.0,-0.0,-0.0,-0.0,-0.0,-0.0,-0.0,-0.0,-0.0,-0.0,-0.0,-0.0,-0.0,-0.0,-0.0,-0.0,-0.0,-0.0,-0.0,-0.0,0.0,0.0,-0.2202,0.0,-0.2046,-0.1679,0.0,0.0,0.0,0.0,-0.2184,-0.1466,-0.0179,-0.009,-0.0,-0.0,-0.0,-0.0,-0.0,-0.0,-0.0,-0.0,-0.0,-0.0,-0.0,-0.0,-0.0,-0.0,-0.0,-0.0,-0.0,-0.0,-0.0,-0.0,-0.0,-0.0,-0.0,-0.0,-0.0,-0.0,-0.0,-0.0,-0.0,-0.0,-0.0,-0.0,0.0,0.0,0.0,0.0,0.0,-0.0,-0.0,0.0,0.0,0.0,-0.0192,0.0,0.0,-0.0,-0.0,-0.0,-0.0,-0.0,-0.0,0.0,-0.0,-0.0,-0.0,-0.0,-0.0,-0.0,-0.0,-0.0,-0.0,-0.0,-0.0,-0.0336,-0.2342,-0.5379,-0.5376,-0.5369,-0.5428,-0.5428,-0.5428,-0.5428,-0.5428,-0.545,-0.5569,0.0,0.0,0.0,0.0,0.0,0.0,0.0,-0.0,-0.0,-0.0,-0.0,-0.0,-0.0,-0.0,-0.0,-0.0,-0.0,-0.0,-0.0,-0.0,-0.0,-0.0,-0.0,-0.0,-0.0,-0.0,-0.0,0.0,0.0,0.0,0.0,0.0,0.0,0.0,0.0,-0.057,-0.0844,-0.0867,-0.0531,-0.0,-0.0,-0.0,-0.0,-0.0,-0.0,-0.0,-0.0,-0.0,-0.0,-0.0,-0.0,-0.0,-0.0,-0.0,-0.0,-0.0,-0.0,-0.0,-0.0,-0.0,-0.0,-0.0,-0.0,-0.0,-0.0,-0.0,-0.0,-0.0,-0.0,-0.0,-0.0,-0.0,-0.0,0.0,0.0,0.0,0.0,0.0,0.0,-0.0,0.0,-0.0,0.0,0.0,0.0,0.0,0.0,-0.0,-0.0,-0.0,-0.0,-0.0,0.0,-0.0,-0.0,-0.0,-0.0,-0.0,-0.0,-0.0,-0.0,-0.0,-0.0,-0.0,-0.0,-0.0803,-0.2342,-0.4503,-0.5386,-0.5393,-0.5545,-0.5521,-0.5393,-0.5562,-0.5544,-0.5471,-0.0,0.0,-0.0,0.0,-0.0,-0.0,-0.0,-0.0,-0.0,-0.0,-0.0,-0.0,-0.0,-0.0,-0.0,-0.0,-0.0,-0.0,-0.0,-0.0,-0.0,-0.0,-0.0,0.0,-0.0,-0.0,-0.0,-0.0,-0.0492,0.0,0.0,0.0,0.0,0.0,-0.0,-0.0,-0.0,-0.0,-0.0,-0.0,-0.0,-0.0,-0.0,-0.0,-0.0,-0.0,-0.0,-0.0,-0.0,-0.0,-0.0,-0.0,-0.0,-0.0,-0.0,-0.0,-0.0,0.0236,0.1492,0.1885,0.157,0.0314,0.0942,0.1885,0.1885,0.093,-0.0,-0.0,-0.0,-0.0,-0.0,-0.0,-0.0,-0.0,0.0,0.0,0.0,0.0,0.0,-0.0,-0.0,-0.0,-0.0,-0.0,0.0,0.0,0.0,0.0,-0.0,-0.0,0.0,0.0,0.0,0.0,0.0,-0.0,-0.0,-0.0,-0.0,-0.0,-0.0,-0.0,-0.0,-0.0,-0.0,-0.0,-0.0201,-0.275,-0.4121,-0.4639,-0.4795,-0.5121,-0.5549,-0.5651,-0.5613,-0.5483,-0.0,-0.0,-0.0,-0.0,-0.0,-0.0,-0.0,-0.0,-0.0,-0.0,-0.0,-0.0,-0.0,-0.0,-0.0,-0.0,-0.0,-0.0,-0.0,-0.0,-0.0,0.0,0.0,-0.0,-0.0,-0.0,-0.0,-0.0,0.0,0.0,-0.0,0.0,-0.0,-0.0,-0.0,-0.0,-0.0,-0.0,-0.0,-0.0,-0.0,-0.0,-0.0,-0.0,-0.0,-0.0,-0.0,-0.0,-0.0,-0.0,-0.0,-0.0,-0.0,-0.0,-0.0,-0.0,-0.0,0.0942,0.5126,0.6247,0.5204,0.1019,0.3141,0.6247,0.6247,0.2987,-0.0,-0.0,-0.0,-0.0,-0.0,-0.0,-0.0,-0.0,0.0,0.0,0.0,0.0,0.0,-0.0,-0.0,-0.0,-0.0,-0.0,0.0,0.0,0.0,0.0,0.0,0.0,0.0,-0.0,-0.0,0.0,-0.0,-0.0,-0.0,-0.0,-0.0,-0.0,-0.0,-0.0,-0.0,-0.0,-0.0,-0.0,-0.0,-0.0067,-0.1089,-0.272,-0.272,-0.3985,-0.5783,-0.5499,-0.5554,-0.5501,-0.0,-0.0,-0.0,-0.0,-0.0,-0.0,-0.0,-0.0,-0.0,-0.0,-0.0,-0.0,-0.0,-0.0,-0.0,0.0,-0.0,-0.0,0.0,-0.0,-0.0,-0.0,-0.0,-0.0,-0.0,-0.0,-0.0,-0.0,0.0,0.0,0.0,-0.0,-0.0,-0.0,-0.0,-0.0,-0.0,-0.0,-0.0,-0.0,-0.0,-0.0,-0.0,-0.0,-0.0,-0.0,-0.0,-0.0,-0.0,-0.0,-0.0,-0.0,-0.0,-0.0,-0.0,-0.0,0.2068,0.4572,0.593,0.6318,0.5983,0.4628,0.4233,0.4153,0.4153,0.3052,0.2106,0.209,0.215,0.2124,0.2149,0.1963,0.184,0.1827,0.0805,0.0,0.0,0.0,0.0,-0.0,-0.0,-0.0,0.0,-0.0,0.0,0.0,0.0,0.0,0.0,0.0,0.0,0.0,-0.0,0.0,-0.0,-0.0,-0.0,-0.0,-0.0,-0.0,-0.0,-0.0,-0.0,-0.0,-0.0,-0.0,-0.0,-0.0,-0.0348,-0.0844,-0.0872,-0.1238,-0.2015,-0.3327,-0.4566,-0.5492,-0.0,-0.0,-0.0,-0.0,-0.0,-0.0,-0.0,-0.0,-0.0,-0.0,-0.0,-0.0,-0.0,-0.0,0.0,-0.0,-0.0,-0.0,-0.0,-0.0,-0.0,-0.0,-0.0,-0.0,-0.0,0.0,0.0,-0.0,-0.0,-0.0,-0.0,-0.0,-0.0,-0.0,-0.0,-0.0,-0.0,-0.0,-0.0,-0.0,-0.0,-0.0,-0.0,-0.0,-0.0,-0.0,-0.0,-0.0,-0.0,-0.0,-0.0,-0.0,-0.0,-0.0,-0.0,-0.0,0.1907,0.4252,0.5839,0.6305,0.6295,0.6291,0.5329,0.4302,0.4304,0.4302,0.4302,0.4304,0.4304,0.4262,0.4126,0.3974,0.381,0.3742,0.2779,0.1735,0.0925,0.0,0.0,0.0,0.0,0.0,0.0,0.1028,0.1017,0.0,0.0,0.0,0.0,0.0,0.0,-0.0,-0.0,0.0,-0.0,-0.0,-0.0,-0.0,-0.0,-0.0,-0.0,-0.0,-0.0,-0.0,-0.0,-0.0,-0.0,-0.0,-0.0,-0.0,-0.0,-0.0,-0.0146,-0.1421,-0.2571,-0.3644,-0.0,-0.0,0.0,0.0,-0.0,0.0,-0.0,-0.0,-0.0,-0.0,-0.0,-0.0,-0.0,-0.0,-0.0,-0.0,0.0,0.0,0.0,-0.0,-0.0,-0.0,-0.0,-0.0,-0.0,-0.0,-0.0,-0.0,-0.0,-0.0,-0.0,-0.0,-0.0,-0.0,-0.0,-0.0,-0.0,-0.0,-0.0,-0.0,-0.0,-0.0,-0.0,-0.0,-0.0,-0.0,-0.0,-0.0,-0.0,-0.0,-0.0,-0.0,-0.0,-0.0,-0.0,-0.0,-0.0,0.0863,0.4945,0.6213,0.6291,0.6281,0.6278,0.6281,0.6291,0.6285,0.6281,0.6291,0.6295,0.6203,0.5845,0.5785,0.5681,0.5457,0.5393,0.4656,0.2709,0.0,0.0,0.0,0.0,0.0,0.0,0.2885,0.2919,0.0,0.0,0.0,0.0,0.0,0.0372,0.0202,0.0203,0.0203,0.0203,0.0067,-0.0,-0.0,-0.0,-0.0,-0.0,-0.0,-0.0,-0.0,-0.0,-0.0,-0.0,-0.0,-0.0,-0.0,-0.0,-0.0,-0.0,-0.0,-0.0,-0.0533,0.0,0.0,-0.0,-0.0,-0.0,-0.0,-0.0,-0.0,-0.0,-0.0,-0.0,-0.0,-0.0,-0.0,-0.0,-0.0,-0.0,-0.0,-0.0,-0.0,-0.0,-0.0,-0.0,-0.0,-0.0,-0.0,-0.0,-0.0,-0.0,-0.0,-0.0,-0.0,-0.0,-0.0,-0.0,-0.0,-0.0,-0.0,-0.0,-0.0,-0.0,-0.0,-0.0,-0.0,-0.0,-0.0,-0.0,-0.0,-0.0,-0.0,-0.0,-0.0,-0.0,-0.0,-0.0,-0.0,-0.0,0.0548,0.3127,0.509,0.6281,0.6268,0.6264,0.6268,0.6268,0.6268,0.6268,0.6268,0.6271,0.621,0.6023,0.5891,0.5752,0.5572,0.5355,0.4996,0.4504,0.4299,0.0,0.0,0.4577,0.4755,0.4759,0.4772,0.4785,0.0,0.0,0.0,0.0,0.4654,0.3808,0.2421,0.2145,0.2075,0.2075,0.0677,-0.0,-0.0,-0.0,-0.0,-0.0,-0.0,-0.0,-0.0,-0.0,-0.0,-0.0,-0.0,-0.0,-0.0,-0.0,-0.0,-0.0,-0.0,-0.0,-0.0155,-0.0,-0.0,-0.0,-0.0,-0.0,-0.0,-0.0,-0.0,-0.0,-0.0,-0.0,-0.0,-0.0,-0.0,-0.0,-0.0,-0.0,-0.0,-0.0,-0.0,-0.0,-0.0,-0.0,-0.0,-0.0,-0.0,-0.0,-0.0,-0.0,-0.0,-0.0,-0.0,-0.0,-0.0,-0.0,-0.0,-0.0,-0.0,-0.0,-0.0,-0.0,-0.0,-0.0,-0.0,-0.0,-0.0,-0.0,-0.0,-0.0,-0.0,-0.0,-0.0,-0.0,0.1491,0.3213,0.3261,0.3065,0.3105,0.424,0.5407,0.6281,0.6264,0.6338,0.6338,0.6338,0.6338,0.6338,0.6338,0.6338,0.6213,0.6057,0.5905,0.5755,0.5613,0.5281,0.5001,0.5068,0.4961,0.0,0.5125,0.5335,0.5505,0.5582,0.5595,0.5595,0.5595,0.0,0.0,0.5793,0.5874,0.549,0.4569,0.4422,0.4182,0.3918,0.2269,0.1444,0.1395,0.0425,-0.0,-0.0,-0.0,-0.0,-0.0,-0.0,-0.0,-0.0,-0.0,-0.0,-0.0,-0.0,-0.0,-0.0,-0.0,-0.0,-0.0,-0.0,-0.0,-0.0,-0.0,-0.0,-0.0,-0.0,-0.0,-0.0,-0.0,-0.0,-0.0,-0.0,-0.0,-0.0,-0.0,-0.0,-0.0,-0.0,-0.0,-0.0,-0.0,-0.0,-0.0,-0.0,-0.0,-0.0,-0.0,-0.0,-0.0,-0.0,-0.0,-0.0,-0.0,-0.0,-0.0,-0.0,-0.0,-0.0,-0.0,-0.0,-0.0,-0.0,-0.0,-0.0,-0.0,-0.0,-0.0,-0.0,-0.0,-0.0,-0.0,-0.0,0.3284,0.7118,0.7094,0.6743,0.6423,0.6369,0.6302,0.6285,0.6268,0.6338,0.6338,0.6338,0.6338,0.6338,0.6338,0.6338,0.6213,0.6057,0.5925,0.5776,0.5586,0.5199,0.4969,0.5111,0.0,0.5036,0.5359,0.5532,0.5671,0.5789,0.58,0.58,0.58,0.5823,0.5837,0.0,0.5979,0.6098,0.6298,0.627,0.6029,0.544,0.4152,0.3553,0.3564,0.1823,0.0804,0.0439,0.015,-0.0,-0.0,-0.0,-0.0,-0.0,-0.0,-0.0,-0.0,-0.0,-0.0,-0.0,-0.0,-0.0,-0.0,-0.0,-0.0,-0.0,-0.0,-0.0,-0.0,-0.0,-0.0,-0.0,-0.0,-0.0,-0.0,-0.0,-0.0,-0.0,-0.0,-0.0,-0.0,-0.0,-0.0,-0.0,-0.0,-0.0,-0.0,-0.0,-0.0,-0.0,-0.0,-0.0,-0.0,-0.0,-0.0,-0.0,-0.0,-0.0,-0.0,-0.0,-0.0,-0.0,-0.0,-0.0,-0.0,-0.0,-0.0,-0.0,-0.0,-0.0,-0.0,-0.0,-0.0,-0.0,-0.0,-0.0,0.3229,0.7074,0.7114,0.7042,0.6939,0.6637,0.6452,0.6268,0.6264,0.6338,0.6338,0.6338,0.6338,0.6338,0.6338,0.6338,0.6213,0.6057,0.601,0.5864,0.546,0.5128,0.4969,0.5111,0.0,0.5077,0.5504,0.5681,0.5776,0.58,0.58,0.58,0.58,0.5922,0.5993,0.5993,0.6139,0.6294,0.6276,0.6149,0.5932,0.5643,0.5568,0.5663,0.5781,0.5455,0.4365,0.2553,0.077,-0.0,-0.0,-0.0,-0.0,-0.0,-0.0,-0.0,-0.0,-0.0,-0.0,-0.0,-0.0,-0.0,-0.0,-0.0,-0.0,-0.0,-0.0,-0.0,-0.0,-0.0,-0.0,-0.0,-0.0,-0.0,-0.0,-0.0,-0.0,-0.0,-0.0,-0.0,-0.0,-0.0,-0.0,-0.0,-0.0,-0.0,-0.0,-0.0,-0.0,-0.0,-0.0,-0.0,-0.0,-0.0,-0.0,-0.0,-0.0,-0.0,-0.0,-0.0,-0.0,-0.0,-0.0,-0.0,-0.0,-0.0,-0.0,-0.0,-0.0,-0.0,-0.0,-0.0,-0.0,0.1707,0.3866,0.3866,0.5305,0.7094,0.7109,0.6966,0.687,0.6647,0.6582,0.6461,0.6302,0.6318,0.6356,0.6278,0.6338,0.6338,0.6338,0.6338,0.624,0.6166,0.6088,0.5911,0.5545,0.5301,0.0,0.0,0.5267,0.5416,0.5783,0.5959,0.6047,0.6047,0.6047,0.6047,0.6047,0.6115,0.6156,0.6156,0.622,0.6338,0.6338,0.6108,0.6037,0.6057,0.5976,0.6131,0.6307,0.6308,0.5794,0.4778,0.3818,0.28,0.1614,0.0462,-0.0,-0.0,-0.0,-0.0,-0.0,-0.0,-0.0,-0.0,-0.0,-0.0,-0.0,-0.0,-0.0,-0.0,-0.0,-0.0,-0.0,-0.0,-0.0,-0.0,-0.0,-0.0,-0.0,-0.0,-0.0,-0.0,-0.0,-0.0,-0.0,-0.0,-0.0,-0.0,-0.0,-0.0,-0.0,-0.0,-0.0,-0.0,-0.0,-0.0,-0.0,-0.0,-0.0,-0.0,-0.0,-0.0,-0.0,-0.0,-0.0,-0.0,-0.0,-0.0,-0.0,-0.0,-0.0,-0.0,-0.0,-0.0,-0.0,-0.0,-0.0,0.3145,0.7135,0.7135,0.7111,0.7084,0.7084,0.6997,0.6766,0.6682,0.6627,0.6647,0.642,0.6444,0.6488,0.6342,0.6312,0.6302,0.6268,0.6338,0.6338,0.6338,0.6162,0.5986,0.5688,0.0,0.0,0.0,0.5538,0.5715,0.6044,0.6186,0.6338,0.6338,0.6291,0.6312,0.6312,0.6342,0.6363,0.6363,0.6363,0.6346,0.6312,0.6162,0.6139,0.6335,0.6142,0.6159,0.6312,0.6285,0.6291,0.6322,0.6302,0.5413,0.375,0.2189,0.1174,0.0704,0.0705,0.0706,0.0706,0.0157,0.0314,0.0784,0.1256,0.1177,0.0627,-0.0,-0.0,-0.0,-0.0,-0.0,-0.0,-0.0,-0.0,-0.0,-0.0,-0.0,-0.0,-0.0,-0.0,-0.0,-0.0,-0.0,-0.0,-0.0,-0.0,-0.0,-0.0,-0.0,-0.0,-0.0,-0.0,-0.0,-0.0,-0.0,-0.0,-0.0,-0.0,-0.0,-0.0,-0.0,-0.0,-0.0,-0.0,-0.0,-0.0,-0.0,-0.0,-0.0,-0.0,-0.0,-0.0,-0.0,-0.0,-0.0,-0.0,0.3145,0.7135,0.7135,0.7111,0.7084,0.7084,0.7054,0.7048,0.6763,0.6695,0.6695,0.6675,0.6675,0.6644,0.6491,0.6458,0.642,0.6288,0.6338,0.6338,0.6338,0.6251,0.6146,0.5833,0.0,0.0,0.5749,0.5664,0.5752,0.6193,0.6254,0.6338,0.6338,0.638,0.6458,0.6458,0.6586,0.6668,0.6668,0.6668,0.6603,0.6461,0.6318,0.6251,0.6338,0.6251,0.6315,0.6454,0.6325,0.6332,0.6454,0.6335,0.62,0.6038,0.5892,0.4701,0.289,0.289,0.289,0.2656,0.0782,0.1173,0.3127,0.5121,0.4557,0.2578,-0.0,-0.0,-0.0,-0.0,-0.0,-0.0,-0.0,-0.0,-0.0,-0.0,-0.0,-0.0,-0.0,-0.0,-0.0,-0.0,-0.0,-0.0,-0.0,-0.0,-0.0,-0.0,-0.0,-0.0,-0.0,-0.0,-0.0,-0.0,-0.0,-0.0,-0.0,-0.0,-0.0,-0.0,-0.0,-0.0,-0.0,-0.0,-0.0,-0.0,-0.0,-0.0,-0.0,-0.0,-0.0,-0.0,-0.0,-0.0,0.0449,0.3416,0.467,0.5198,0.6649,0.7084,0.7064,0.7064,0.7058,0.7115,0.7004,0.6973,0.6929,0.6746,0.6773,0.6803,0.6647,0.6539,0.6458,0.6403,0.6322,0.6338,0.6338,0.6338,0.6159,0.585,0.0,0.5959,0.582,0.5918,0.6071,0.6318,0.6339,0.639,0.639,0.6525,0.6614,0.6614,0.6668,0.6702,0.6702,0.6702,0.6675,0.6617,0.6563,0.6488,0.6393,0.639,0.6468,0.6614,0.6559,0.6563,0.6614,0.6563,0.6539,0.6536,0.6378,0.5854,0.5116,0.5048,0.5096,0.5018,0.4233,0.3599,0.3361,0.5517,0.5761,0.4959,-0.0,-0.0,-0.0,-0.0,-0.0,-0.0,-0.0,-0.0,0.0642,0.2264,0.2473,0.1838,0.0201,-0.0,0.0706,0.2326,0.2526,0.1817,0.0101,0.1614,0.1715,0.0101,-0.0,-0.0,-0.0,-0.0,-0.0,-0.0,-0.0,-0.0,-0.0,-0.0,-0.0,-0.0,-0.0,-0.0,-0.0,-0.0,-0.0,-0.0,-0.0,-0.0,-0.0,-0.0,-0.0,0.018,0.1707,0.2246,0.2606,0.5124,0.5379,0.5003,0.6631,0.7071,0.7139,0.7139,0.7139,0.7139,0.7139,0.7139,0.7092,0.6888,0.6915,0.6956,0.6807,0.6692,0.6586,0.6491,0.6393,0.6315,0.6271,0.6338,0.6193,0.5979,0.6122,0.6186,0.5976,0.6166,0.6329,0.6329,0.6458,0.6546,0.6546,0.6681,0.6773,0.6773,0.6814,0.6841,0.6841,0.6841,0.6817,0.6773,0.6773,0.6722,0.6617,0.6566,0.662,0.677,0.6722,0.6725,0.677,0.6722,0.6702,0.6692,0.6471,0.6331,0.6401,0.6342,0.6285,0.6285,0.6288,0.541,0.4297,0.5743,0.6312,0.623,-0.0,-0.0,-0.0,-0.0,-0.0,-0.0,-0.0,-0.0,0.1946,0.722,0.8001,0.6021,0.0601,-0.0,0.2116,0.7538,0.8039,0.5768,0.0404,0.5044,0.5651,0.0303,-0.0,-0.0,-0.0,-0.0,-0.0,-0.0,-0.0,-0.0,-0.0,-0.0,-0.0,-0.0,-0.0,-0.0,-0.0,-0.0,-0.0,-0.0,-0.0,-0.0,-0.0,-0.0,-0.0,0.0629,0.5405,0.7045,0.6764,0.4383,0.5186,0.7084,0.7084,0.7071,0.7139,0.7139,0.7139,0.7139,0.7139,0.7139,0.7139,0.7139,0.7139,0.7102,0.6963,0.6929,0.6844,0.6539,0.6474,0.643,0.6288,0.6342,0.6264,0.6338,0.6264,0.6342,0.6342,0.6383,0.6474,0.6474,0.661,0.6702,0.6702,0.6841,0.6929,0.6929,0.7061,0.7139,0.7139,0.7139,0.7075,0.6936,0.6929,0.6929,0.6929,0.6776,0.6776,0.6929,0.6776,0.6783,0.6926,0.6773,0.6705,0.6695,0.6542,0.6474,0.6461,0.6322,0.6264,0.6264,0.6274,0.6271,0.6264,0.6274,0.6271,0.6103,-0.0,-0.0,-0.0,-0.0,-0.0,-0.0,-0.0,-0.0,0.0544,0.218,0.5621,0.7379,0.5824,0.2216,0.2121,0.7541,0.8016,0.7275,0.5751,0.7065,0.7269,0.5651,0.3823,0.2815,0.2815,0.2815,0.1911,-0.0,-0.0,-0.0,-0.0,-0.0,-0.0,0.0202,0.3963,0.3561,0.01,0.2056,0.1748,-0.0,-0.0,-0.0,-0.0,-0.0,0.2066,0.477,0.2785,0.4222,0.7019,0.6281,0.6545,0.7081,0.7068,0.7058,0.7139,0.7139,0.7139,0.7139,0.7139,0.7139,0.7139,0.7139,0.7139,0.7129,0.7088,0.7,0.6902,0.681,0.6709,0.6586,0.6437,0.641,0.6376,0.6278,0.6342,0.641,0.641,0.6539,0.663,0.663,0.6766,0.6861,0.6861,0.6993,0.7078,0.7078,0.7115,0.7139,0.7139,0.7139,0.7122,0.7078,0.7078,0.7078,0.7078,0.6827,0.6827,0.7075,0.6929,0.6936,0.7075,0.7031,0.6956,0.6858,0.6814,0.6671,0.6468,0.6427,0.6349,0.6338,0.6264,0.6264,0.6264,0.6274,0.6278,0.6271,-0.0,0.15,0.2781,0.2838,0.2014,0.1734,0.2697,0.2781,0.278,0.2773,0.5593,0.7722,0.7928,0.5131,0.4438,0.7743,0.7999,0.7962,0.7969,0.7962,0.7962,0.7969,0.6434,0.5625,0.5534,0.5534,0.4828,0.3118,0.211,0.1609,0.1611,0.1611,0.1611,0.1711,0.4984,0.5196,0.3229,0.3778,0.3663,0.3071,0.2036,0.1521,0.1398,0.1462,0.3249,0.5479,0.3496,0.4661,0.7094,0.7084,0.7078,0.7071,0.7058,0.7139,0.7139,0.7139,0.7139,0.7139,0.7139,0.7139,0.7139,0.7139,0.7139,0.7139,0.7139,0.7075,0.6997,0.6943,0.6854,0.6746,0.659,0.6563,0.6532,0.6447,0.6508,0.6563,0.6563,0.6695,0.679,0.679,0.6922,0.701,0.701,0.7088,0.7139,0.7139,0.7139,0.7139,0.7139,0.7139,0.7139,0.7139,0.7139,0.7139,0.7139,0.6909,0.6909,0.7139,0.7054,0.7058,0.7139,0.7139,0.7061,0.6926,0.6865,0.6698,0.6468,0.6413,0.6339,0.6338,0.6338,0.6338,0.6338,0.6271,0.6271,0.6274,0.0559,0.4112,0.7121,0.7118,0.5369,0.4641,0.6742,0.7111,0.7098,0.7058,0.7078,0.7312,0.7977,0.8038,0.7969,0.8042,0.7982,0.8038,0.8038,0.8038,0.8038,0.8038,0.8038,0.7955,0.7985,0.7985,0.7985,0.7989,0.5534,0.4318,0.432,0.432,0.432,0.432,0.4318,0.5744,0.7815,0.5436,0.5744,0.7802,0.5333,0.4157,0.3978,0.39,0.3913,0.4208,0.6364,0.7094,0.7098,0.7064,0.7139,0.7139,0.7139,0.7139,0.7139,0.7139,0.7139,0.7139,0.7139,0.7139,0.7139,0.7139,0.7139,0.7139,0.7139,0.7139,0.7102,0.6973,0.6949,0.6902,0.6749,0.6722,0.6715,0.6702,0.6712,0.6722,0.6722,0.6851,0.6949,0.6949,0.7061,0.7139,0.7139,0.7139,0.7139,0.7139,0.7139,0.7139,0.7139,0.7139,0.7139,0.7139,0.7139,0.7139,0.7139,0.701,0.7014,0.7139,0.7129,0.7129,0.7139,0.7139,0.7061,0.6922,0.6797,0.6637,0.6464,0.6346,0.6285,0.6338,0.6338,0.6338,0.6338,0.6338,0.6338,0.6338,0.4811,0.643,0.7128,0.7121,0.6649,0.6471,0.7058,0.7104,0.7064,0.7143,0.7058,0.7285,0.7974,0.8038,0.8045,0.7962,0.8048,0.8038,0.8038,0.8038,0.8038,0.8038,0.8038,0.8041,0.8048,0.7952,0.7959,0.7975,0.7463,0.716,0.7166,0.7166,0.7166,0.7166,0.716,0.7469,0.7995,0.7347,0.7453,0.7982,0.7416,0.6981,0.6664,0.6435,0.6456,0.66,0.6956,0.7158,0.7309,0.7183,0.7139,0.7139,0.7139,0.7139,0.7139,0.7139,0.7139,0.7139,0.7139,0.7139,0.7139,0.7139,0.7139,0.7139,0.7139,0.7139,0.7132,0.7102,0.7095,0.7051,0.6905,0.6878,0.6841,0.6719,0.68,0.6878,0.6878,0.7004,0.7095,0.7095,0.7122,0.7139,0.7139,0.7139,0.7139,0.7139,0.7139,0.7139,0.7139,0.7139,0.7139,0.7139,0.7139,0.7139,0.7139,0.7109,0.7109,0.7139,0.7027,0.7034,0.7139,0.7139,0.7061,0.6932,0.701,0.6827,0.6478,0.6569,0.6468,0.6338,0.6338,0.6338,0.6338,0.6338,0.6338,0.6338,0.5008,0.6388,0.7195,0.7118,0.7088,0.7084,0.7108,0.7078,0.7139,0.7139,0.7139,0.737,0.7974,0.8038,0.8038,0.8038,0.8038,0.8038,0.8038,0.8038,0.8038,0.8038,0.8038,0.8038,0.8038,0.8038,0.8045,0.7955,0.7955,0.7959,0.7965,0.7965,0.7965,0.7965,0.7959,0.7965,0.7979,0.7952,0.7955,0.7972,0.798,0.7855,0.7719,0.754,0.7466,0.7489,0.7414,0.738,0.735,0.719,0.7139,0.7139,0.7139,0.7139,0.7139,0.7139,0.7139,0.7139,0.7139,0.7139,0.7139,0.7139,0.7139,0.7139,0.7139,0.7139,0.7139,0.7139,0.7139,0.7115,0.7044,0.7031,0.7004,0.6922,0.698,0.7031,0.7031,0.7156,0.7224,0.7149,0.7268,0.736,0.736,0.736,0.736,0.736,0.7292,0.7251,0.7251,0.718,0.7139,0.7139,0.7139,0.7139,0.7139,0.7139,0.7139,0.7139,0.7065,0.7068,0.7139,0.7139,0.7061,0.6932,0.7007,0.6824,0.6478,0.6559,0.6461,0.6338,0.6338,0.6338,0.6338,0.6338,0.6338,0.6338,0.4328,0.5893,0.7322,0.7104,0.7064,0.7139,0.7139,0.7139,0.7139,0.7139,0.7139,0.737,0.7974,0.8038,0.8038,0.8038,0.8038,0.8038,0.8038,0.8038,0.8038,0.8038,0.8038,0.8038,0.8038,0.8038,0.8038,0.8038,0.8038,0.8038,0.8038,0.8038,0.8038,0.8038,0.8038,0.8048,0.7965,0.8048,0.8048,0.7965,0.8045,0.7946,0.7811,0.7811,0.7723,0.7597,0.757,0.7461,0.7312,0.7183,0.7139,0.7139,0.7139,0.7139,0.7139,0.7139,0.7139,0.7139,0.7139,0.7139,0.7139,0.7139,0.7139,0.7139,0.7139,0.7139,0.7139,0.7139,0.7139,0.7149,0.7173,0.718,0.7187,0.7214,0.7197,0.7187,0.7214,0.7305,0.7333,0.7231,0.7444,0.76,0.76,0.7577,0.756,0.756,0.7417,0.7343,0.737,0.7248,0.719,0.7217,0.7193,0.718,0.718,0.7153,0.7139,0.7139,0.7139,0.7139,0.7139,0.7139,0.7078,0.6966,0.6966,0.6793,0.6512,0.6512,0.6413,0.6338,0.6338,0.6338,0.6338,0.6338,0.6338,0.6338,0.6913,0.7021,0.7104,0.7064,0.7143,0.7139,0.7139,0.7139,0.7139,0.7139,0.7139,0.737,0.7974,0.8038,0.8038,0.8038,0.8038,0.8038,0.8038,0.8038,0.8038,0.8038,0.8038,0.8038,0.8038,0.8038,0.8038,0.8038,0.8038,0.8038,0.8038,0.8038,0.8038,0.8038,0.8038,0.8041,0.8045,0.8041,0.8041,0.8045,0.8041,0.7946,0.7811,0.7811,0.7723,0.7584,0.7451,0.7302,0.717,0.7146,0.7139,0.7139,0.7139,0.7139,0.7139,0.7139,0.7139,0.7139,0.7139,0.7139,0.7139,0.7139,0.7139,0.7139,0.7139,0.7139,0.7139,0.7139,0.7139,0.718,0.7316,0.7339,0.7383,0.7516,0.7428,0.7387,0.7519,0.7441,0.7414,0.7522,0.7573,0.76,0.76,0.7482,0.7404,0.7404,0.7258,0.7227,0.7363,0.7353,0.74,0.7533,0.7411,0.7339,0.7339,0.7207,0.7139,0.7139,0.7139,0.7139,0.7139,0.7139,0.7129,0.7112,0.7112,0.6943,0.6668,0.6668,0.6508,0.6338,0.6338,0.6338,0.6338,0.6338,0.6338,0.6338,0.7377,0.7333,0.7255,0.7156,0.7139,0.7139,0.7139,0.7139,0.7139,0.7139,0.7139,0.737,0.7974,0.8038,0.8038,0.8038,0.8038,0.8038,0.8038,0.8038,0.8038,0.8038,0.8038,0.8038,0.8038,0.8038,0.8038,0.8038,0.8038,0.8038,0.8038,0.8038,0.8038,0.8038,0.8038,0.8038,0.8038,0.8038,0.8038,0.8038,0.8038,0.7997,0.794,0.794,0.7899,0.7814,0.7584,0.74,0.7255,0.717,0.7139,0.7139,0.7139,0.7139,0.7139,0.7139,0.7139,0.7139,0.7139,0.7139,0.7139,0.7139,0.7139,0.7139,0.7139,0.7139,0.7166,0.7251,0.7272,0.7316,0.7472,0.7499,0.7519,0.759,0.7543,0.7522,0.759,0.7611,0.7675,0.7828,0.777,0.7719,0.7719,0.7733,0.7709,0.7624,0.7553,0.7546,0.7614,0.7461,0.7441,0.7594,0.7366,0.7285,0.737,0.7217,0.7139,0.7139,0.7139,0.7139,0.7139,0.7139,0.7139,0.7136,0.7054,0.6898,0.6695,0.6607,0.6447,0.6338,0.6338,0.6338,0.6338,0.6338,0.6312,0.638]},{"header":{"parameterUnit":"m.s-1","parameterCategory":1,"la1":30.6,"la2":28.766,"lo1":-90.7593,"lo2":-88.6598,"dy":0.0162,"dx":0.0183,"nx":116,"ny":114,"refTime":"2023-06-07T18:00:00:Z","depth":0,"parameterNumber":3,"parameterNumberName":"V-component_of_WINDS"},"data":[0.0,0.0,0.0,0.0,0.0,0.0,0.0,0.0,0.0,0.0,0.0,0.0,0.0,0.0,0.0,0.0,0.0,0.0,0.0,0.0,0.0,0.0,0.0,0.0,0.0,0.0,0.0,0.0,0.0,0.0,0.0,0.0,0.0,0.0,0.0,0.0,0.0,0.0,0.0,0.0,0.0,0.0,0.0,0.0,0.0,0.0,0.0,0.0,0.0,0.0,0.0,0.0,0.0,0.0,0.0,0.0,0.0,0.0,0.0,0.0,0.0,0.0,0.0,0.0,0.0,0.0,0.0,0.0,0.0,0.0,0.0,0.0,0.0,0.0,0.0,0.0,0.0,0.0,0.0,0.0,0.0,0.0,0.0,0.0,0.0,0.0,0.0,0.0,0.0,0.0,0.0,0.0,0.0,0.0,0.0,0.0,0.0,0.0,0.0,0.0,0.0,0.0,0.0,0.0,0.0,0.0,0.0,0.0,0.0,0.0,0.0,0.0,0.0,0.0,0.0,0.0,0.0,0.0,0.0,0.0,0.0,0.0,0.0,0.0,0.0,0.0,0.0,0.0,0.0,0.0,0.0,0.0,0.0,0.0,0.0,0.0,0.0,0.0,0.0,0.0,0.0,0.0,0.0,0.0,0.0,0.0,0.0,0.0,0.0,0.0,0.0,0.0,0.0,0.0,0.0,0.0,0.0,0.0,0.0,0.0,0.0,0.0,0.0,0.0,0.0,0.0,0.0,0.0,0.0,0.0,0.0,0.0,0.0,0.0,0.0,0.0,0.0,0.0,0.0,0.0,0.0,0.0,0.0,0.0,0.0,0.0,0.0,0.0,0.0,0.0,0.0,0.0,0.0,0.0,0.0,0.0,0.0,0.0,0.0,0.0,0.0,0.0,0.0,0.0,0.0,0.0,0.0,0.0,0.0,0.0,0.0,0.0,0.0,0.0,0.0,0.0,0.0,0.0,0.0,0.0,0.0,0.0,0.0,0.0,0.0,0.0,0.0,0.0,0.0,0.0,0.0,0.0,0.0,0.0,0.0,0.0,0.0,0.0,0.0,0.0,0.0,0.0,0.0,0.0,0.0,0.0,0.0,0.0,0.0,0.0,0.0,0.0,0.0,0.0,0.0,0.0,0.0,0.0,0.0,0.0,0.0,0.0,0.0,0.0,0.0,0.0,0.0,0.0,0.0,0.0,0.0,0.0,0.0,0.0,0.0,0.0,0.0,0.0,0.0,0.0,0.0,0.0,0.0,0.0,0.0,0.0,0.0,0.0,0.0,0.0,0.0,0.0,0.0,0.0,0.0,0.0,0.0,0.0,0.0,0.0,0.0,0.0,0.0,0.0,0.0,0.0,0.0,0.0,0.0,0.0,0.0,0.0,0.0,0.0,0.0,0.0,0.0,0.0,0.0,0.0,0.0,0.0,0.0,0.0,0.0,0.0,0.0,0.0,0.0,0.0,0.0,0.0,0.0,0.0,0.0,0.0,0.0,0.0,0.0,0.0,0.0,0.0,0.0,0.0,0.0,0.0,0.0,0.0,0.0,0.0,0.0,0.0,0.0,0.0,0.0,0.0,0.0,0.0,0.0,0.0,0.0,0.0,0.0,0.0,0.0,0.0,0.0,0.0,0.0,0.0,0.0,0.0,0.0,0.0,0.0,0.0,0.0,0.0,0.0,0.0,0.0,0.0,0.0,0.0,0.0,0.0,0.0,0.0,0.0,0.0,0.0,0.0,0.0,0.0,0.0,0.0,0.0,0.0,0.0,0.0,0.0,0.0,0.0,0.0,0.0,0.0,0.0,0.0,0.0,0.0,0.0,0.0,0.0,0.0,0.0,0.0,0.0,0.0,0.0,0.0,0.0,0.0,0.0,0.0,0.0,0.0,0.0,0.0,0.0,0.0,0.0,0.0,0.0,0.0,0.0,0.0,0.0,0.0,0.0,0.0,0.0,0.0,0.0,0.0,0.0,0.0,0.0,0.0,0.0,0.0,0.0,0.0,0.0,0.0,0.0,0.0,0.0,0.0,0.0,0.0,0.0,0.0,0.0,0.0,0.0,0.0,0.0,0.0,0.0,0.0,0.0,0.0,0.0,0.0,0.0,0.0,0.0,0.0,0.0,0.0,0.0,0.0,0.0,0.0,0.0,0.0,0.0,0.0,0.0,0.0,0.0,0.0,0.0,0.0,0.0,0.0,0.0,0.0,0.0,0.0,0.0,0.0,0.0,0.0,0.0,0.0,0.0,0.0,0.0,0.0,0.0,0.0,0.0,0.0,0.0,0.0,0.0,0.0,0.0,0.0,0.0,0.0,0.0,0.0,0.0,0.0,0.0,0.0,0.0,0.0,0.0,0.0,0.0,0.0,0.0,0.0,0.0,0.0,0.0,0.0,0.0,0.0,0.0,0.0,0.0,0.0,0.0,0.0,0.0,0.0,0.0,0.0,0.0,0.0,0.0,0.0,0.0,0.0,0.0,0.0,0.0,0.0,0.0,0.0,0.0,0.0,0.0,0.0,0.0,0.0,0.0,0.0,0.0,0.0,0.0,0.0,0.0,0.0,0.0,0.0,0.0,0.0,0.0,0.0,0.0,0.0,0.0,0.0,0.0,0.0,0.0,0.0,0.0,0.0,0.0,0.0,0.0,0.0,0.0,0.0,0.0,0.0,0.0,0.0,0.0,0.0,0.0,0.0,0.0,0.0,0.0,0.0,0.0,0.0,0.0,0.0,0.0,0.0,0.0,0.0,0.0,0.0,0.0,0.0,0.0,0.0,0.0,0.0,0.0,0.0,0.0,0.0,0.0,0.0,0.0,0.0,0.0,0.0,0.0,0.0,0.0,0.0,0.0,0.0,0.0,0.0,0.0,0.0,0.0,0.0,0.0,0.0,0.0,0.0,0.0,0.0,0.0,0.0,0.0,0.0,0.0,0.0,0.0,0.0,0.0,0.0,0.0,0.0,0.0,0.0,0.0,0.0,0.0,0.0,0.0,0.0,0.0,0.0,0.0,0.0,0.0,0.0,0.0,0.0,0.0,0.0,0.0,0.0,0.0,0.0,0.0,0.0,0.0,0.0,0.0,0.0,0.0,0.0,0.0,0.0,0.0,0.0,0.0,0.0,0.0,0.0,0.0,0.0,0.0,0.0,0.0,0.0,0.0,0.0,0.0,0.0,0.0,0.0,0.0,0.0,0.0,0.0,0.0,0.0,0.0,0.0,0.0,0.0,0.0,0.0,0.0,0.0,0.0,0.0,0.0,0.0,0.0,0.0,0.0,0.0,0.0,0.0,0.0,0.0,0.0,0.0,0.0,0.0,0.0,0.0,0.0,0.0,0.0,0.0,0.0,0.0,0.0,0.0,0.0,0.0,0.0,0.0,0.0,0.0,0.0,0.0,0.0,0.0,0.0,0.0,0.0,0.0,0.0,0.0,0.0,0.0,0.0,0.0,0.0,0.0,0.0,0.0,0.0,0.0,0.0,0.0,0.0,0.0,0.0,0.0,0.0,0.0,0.0,0.0,0.0,0.0,0.0,0.0,0.0,0.0,0.0,0.0,0.0,0.0,0.0,0.0,0.0,0.0,0.0,0.0,0.0,0.0,0.0,0.0,0.0,0.0,0.0,0.0,0.0,0.0,0.0,0.0,0.0,0.0,0.0,0.0,0.0,0.0,0.0,0.0,0.0,0.0,0.0,0.0,0.0,0.0,0.0,0.0,0.0,0.0,0.0,0.0,0.0,0.0,0.0,0.0,0.0,0.0,0.0,0.0,0.0,0.0,0.0,0.0,0.0,0.0,0.0,0.0,0.0,0.0,0.0,0.0,0.0,0.0,0.0,0.0,0.0,0.0,0.0,0.0,0.0,0.0,0.0,0.0,0.0,0.0,0.0,0.0,0.0,0.0,0.0,0.0,0.0,0.0,0.0,0.0,0.0,0.0,0.0,0.0,0.0,0.0,0.0,0.0,0.0,0.0,0.0,0.0,0.0,0.0,0.0,0.0,0.0,0.0,0.0,0.0,0.0,0.0,0.0,0.0,0.0,0.0,0.0,0.0,0.0,0.0,0.0,0.0,0.0,0.0,0.0,0.0,0.0,0.0,0.0,0.0,0.0,0.0,0.0,0.0,0.0,0.0,0.0,0.0,0.0,0.0,0.0,0.0,0.0,0.0,0.0,0.0,0.0,0.0,0.0,0.0,0.0,0.0,0.0,0.0,0.0,0.0,0.0,0.0,0.0,0.0,0.0,0.0,0.0,0.0,0.0,0.0,0.0,0.0,0.0,0.0,0.0,0.0,0.0,0.0,0.0,0.0,0.0,0.0,0.0,0.0,0.0,0.0,0.0,0.0,0.0,0.0,0.0,0.0,0.0,0.0,0.0,0.0,0.0,0.0,0.0,0.0,0.0,0.0,0.0,0.0,0.0,0.0,0.0,0.0,0.0,0.0,0.0,0.0,0.0,0.0,0.0,0.0,0.0,0.0,0.0,0.0,0.0,0.0,0.0,0.0,0.0,0.0,0.0,0.0,0.0,0.0,0.0,0.0,0.0,0.0,0.0,0.0,0.0,0.0,0.0,0.0,0.0,0.0,0.0,0.0,0.0,0.0,0.0,0.0,0.0,0.0,0.0,0.0,0.0,0.0,0.0,0.0,0.0,0.0,0.0,0.0,0.0,0.0,0.0,0.0,0.0,0.0,0.0,0.0,0.0,0.0,0.0,0.0,0.0,0.0,0.0,0.0,0.0,0.0,0.0,0.0,0.0,0.0,0.0,0.0,0.0,0.0,0.0,0.0,0.0,0.0,0.0,0.0,0.0,0.0,0.0,0.0,0.0,0.0,0.0,0.0,0.0,0.0,0.0,0.0,0.0,0.0,0.0,0.0,0.0,0.0,0.0,0.0,0.0,0.0,0.0,0.0,0.0,0.0,0.0,0.0,0.0,0.0,0.0,0.0,0.0,0.0,0.0,0.0,0.0,0.0,0.0,0.0,0.0,0.0,0.0,0.0,0.0,0.0,0.0,0.0,0.0,0.0,0.0,0.0,0.0,0.0,0.0,0.0,0.0,0.0,0.0,0.0,0.0,0.0,0.0,0.0,0.0,0.0,0.0,0.0,0.0,0.0,0.0,0.0,0.0,0.0,0.0,0.0,0.0,0.0,0.0,0.0,0.0,0.0,0.0,0.0,0.0,0.0,0.0,0.0,0.0,0.0,0.0,0.0,0.0,0.0,0.0,0.0,0.0,0.0,0.0,0.0,0.0,0.0,0.0,0.0,0.0,0.0,0.0,0.0,0.0,0.0,0.0,0.0,0.0,0.0,0.0,0.0,0.0,0.0,0.0,0.0,0.0,0.0,0.0,0.0,0.0,0.0,0.0,0.0,0.0,0.0,0.0,0.0,0.0,0.0,0.0,0.0,0.0,0.0,0.0,0.0,0.0,0.0,0.0,0.0,0.0,0.0,0.0,0.0,0.0,0.0,0.0,0.0,0.0,0.0,0.0,0.0,0.0,0.0,0.0,0.0,0.0,0.0,0.0,0.0,0.0,0.0,0.0,0.0,0.0,0.0,0.0,0.0,0.0,0.0,0.0,0.0,0.0,0.0,0.0,0.0,0.0,0.0,0.0,0.0,0.0,0.0,0.0,0.0,0.0,0.0,0.0,0.0,0.0,0.0,0.0,0.0,0.0,0.0,0.0,0.0,0.0,0.0,0.0,0.0,0.0,0.0,0.0,0.0,0.0,0.0,0.0,0.0,0.0,0.0,0.0,0.0,0.0,0.0,0.0,0.0,0.0,0.0,0.0,0.0,0.0,0.0,0.0,0.0,0.0,0.0,0.0,0.0,0.0,0.0,0.0,0.0,0.0,0.0,0.0,0.0,0.0,0.0,0.0,0.0,0.0,0.0,0.0,0.0,0.0,0.0,0.0,0.0,0.0,0.0,0.0,0.0,0.0,0.0,0.0,0.0,0.0,0.0,0.0,0.0,0.0,0.0,0.0,0.0,0.0,0.0,0.0,0.0,0.0,0.0,0.0,0.0,0.0,0.0,0.0,0.0,0.0,0.0,0.0,0.0,0.0,0.0,0.0,0.0,0.0,0.0,0.0,0.0,0.0,0.0,0.0,0.0,-1.8279,0.0,0.0,0.0,0.0,0.0,0.0,0.0,0.0,0.0,0.0,0.0,0.0,0.0,0.0,0.0,0.0,0.0,0.0,0.0,0.0,0.0,0.0,0.0,0.0,0.0,0.0,0.0,0.0,0.0,0.0,0.0,0.0,0.0,0.0,0.0,0.0,0.0,0.0,0.0,1.3504,1.5166,1.6165,1.6584,1.6206,1.5255,0.0,0.0,0.0,0.0,0.0,0.0,0.0,0.0,0.0,0.0,0.0,0.0,0.0,0.0,0.0,0.0,0.0,0.0,0.0,0.0,0.0,0.0,0.0,0.0,0.0,0.0,0.0,0.0,0.0,0.0,0.0,0.0,0.0,0.0,0.0,0.0,0.0,0.0,0.0,0.0,0.0,0.0,0.0,0.0,0.0,0.0,0.0,0.0,0.0,0.0,0.0,0.0,0.0,0.0,0.0,0.0,0.0,0.0,0.0,0.0,0.0,0.0,0.0,0.0,0.0,0.0,0.0,0.0,0.0,0.0,0.0,-1.8559,0.0,0.0,0.0,0.0,0.0,0.0,0.0,0.0,0.0,0.0,0.0,0.0,0.0,0.0,0.0,0.0,0.0,0.0,0.0,0.0,0.0,0.0,0.0,0.0,0.9053,0.8586,0.907,0.0,0.0,0.0,0.0,0.0,0.0,0.0,0.0,1.0118,1.0613,1.1113,1.3501,1.5775,1.7787,1.7787,1.686,1.512,1.4806,0.0,0.0,0.0,0.0,0.0,0.0,0.0,0.0,0.0,0.0,0.0,0.0,0.0,0.0,0.0,0.0,0.0,0.0,0.0,0.0,0.0,0.0,0.0,0.0,0.0,0.0,0.0,0.0,0.0,0.0,0.0,0.0,0.0,0.0,0.0,0.0,0.0,0.0,0.0,0.0,0.0,0.0,0.0,0.0,0.0,0.0,0.0,0.0,0.0,0.0,0.0,0.0,0.0,0.0,0.0,0.0,0.0,0.0,0.0,0.0,0.0,0.0,0.0,-2.2018,-2.19,-2.1502,-2.2128,-2.1809,-2.0744,-2.042,-2.0176,-2.0,0.0,0.0,0.0,0.0,0.0,0.0,0.0,0.0,0.0,0.0,0.0,0.0,0.0,0.0,0.0,0.0,0.0,0.0,0.0,0.0,0.0,0.0,0.8765,0.8513,0.7949,0.8683,0.9013,0.0,0.0,0.0,0.0,0.0,0.0,1.0205,1.0495,1.1329,1.2768,1.5388,1.7031,1.7787,1.7787,1.705,1.5699,1.5981,1.533,1.3945,0.0,0.0,0.0,0.0,0.0,0.0,0.0,0.0,0.0,0.0,0.0,0.0,0.0,0.0,0.0,0.0,0.0,0.0,0.0,0.0,0.0,0.0,0.0,0.0,0.0,0.0,0.0,0.0,0.0,0.0,0.0,0.0,0.0,0.0,0.0,0.0,0.0,0.0,0.0,0.0,0.0,-1.4199,-1.7901,0.0,0.0,0.0,0.0,0.0,0.0,0.0,0.0,0.0,0.0,0.0,0.0,0.0,-2.1189,-2.1207,-2.2362,-2.2949,-2.2999,-2.3821,-2.4208,-2.4166,-2.3758,-2.3927,-2.4533,-2.3803,0.0,-2.0956,-2.0418,0.0,0.0,0.0,0.0,0.0,0.0,0.0,0.0,0.0,0.0,0.0,0.0,0.0,0.0,0.0,0.0,0.0,0.0,0.0,0.0,0.0,0.7819,0.8415,0.8039,0.888,0.9393,0.9207,0.0,0.0,0.0,0.0,1.0166,1.0505,1.1344,1.3176,1.6019,1.717,1.8528,1.9973,1.9973,1.9695,1.9063,1.7916,1.5772,1.2939,1.2301,0.0,0.0,0.0,0.0,0.0,0.0,0.0,0.0,0.0,0.0,0.0,0.0,0.0,0.0,0.0,0.0,0.0,0.0,0.0,0.0,0.0,0.0,0.0,0.0,0.0,0.0,0.0,0.0,0.0,0.0,0.0,0.0,0.0,0.0,0.0,0.0,0.0,0.0,0.0,-1.4999,-1.587,-1.7454,-1.8203,-1.8307,0.0,0.0,0.0,0.0,0.0,0.0,0.0,0.0,0.0,-2.1191,-2.2536,-2.3473,-2.3973,-2.4992,-2.5563,-2.5665,-2.5721,-2.5823,-2.5956,-2.5064,-2.4887,-2.5284,-2.4928,-2.4293,-2.3437,-2.2583,-2.2151,-2.2005,0.0,0.0,0.0,0.0,-2.1521,-2.1469,0.0,0.0,0.0,0.0,0.0,0.0,0.0,0.0,0.0,0.0,0.0,0.0,0.3591,0.6359,0.819,0.8318,0.9111,0.9461,0.9019,0.9944,0.0,0.0,0.9728,1.0031,1.0525,1.2226,1.4815,1.8321,1.8697,1.988,2.1695,2.1695,2.1655,2.141,1.9823,1.6946,1.3254,1.2243,1.054,0.8293,0.0,0.0,0.0,0.0,0.0,0.0,0.0,0.0,0.0,0.0,0.0,0.0,0.0,0.0,0.0,0.0,0.0,0.0,0.0,0.0,0.0,0.0,0.0,0.0,0.0,0.0,0.0,0.0,0.0,0.0,0.0,0.0,0.0,0.0,0.0,0.0,0.0,-1.6814,-1.846,-1.7762,-1.8485,-1.8801,0.0,0.0,0.0,0.0,0.0,0.0,-2.0414,-2.168,-2.2757,-2.349,-2.4729,-2.5683,-2.634,-2.7281,-2.7851,-2.7988,-2.7491,-2.7465,-2.7822,-2.6322,-2.5514,-2.5303,-2.5303,-2.5303,-2.5226,-2.4312,-2.3572,-2.2987,-2.2796,-2.2719,-2.271,-2.2775,-2.2757,-2.2668,0.0,0.0,0.0,0.0,0.0,0.0,0.0,0.0,0.0,0.0,0.0,-0.2572,-0.0852,0.408,0.7645,0.8572,0.9136,0.8857,0.7504,0.9367,0.9993,0.8909,0.9444,0.9868,1.0015,1.3041,1.5789,1.8321,1.9806,2.0968,2.1695,2.1695,2.144,2.0947,2.1355,1.9726,1.6475,1.3792,1.1472,0.9376,0.6732,0.0,0.0,0.0,0.0,0.0,0.0,0.0,0.0,0.0,0.0,0.0,0.0,0.0,0.0,0.0,0.0,0.0,0.0,0.0,0.0,0.0,0.0,0.0,0.0,0.0,0.0,0.0,0.0,0.0,0.0,0.0,0.0,0.0,0.0,0.0,0.0,0.0,0.0,-1.9723,-2.0178,0.0,0.0,0.0,0.0,-2.1338,-2.2303,-2.285,-2.2829,-2.4642,-2.5694,-2.5747,-2.6854,-2.7471,-2.751,-2.8521,-2.9014,-2.9025,-2.8994,-2.9398,-3.0148,-2.7659,-2.6082,-2.5303,-2.5303,-2.5303,-2.5245,-2.4428,-2.3986,-2.3772,-2.3073,-2.2757,-2.271,-2.2775,-2.284,-2.2887,0.0,0.0,0.0,0.0,0.0,0.0,0.0,0.0,0.0,-0.9131,-0.8685,-0.6963,-0.2232,0.0097,0.336,0.8484,0.8769,0.8932,0.97,0.9434,0.9213,0.9078,0.8867,1.019,1.3153,1.6033,1.8801,2.1393,2.2087,2.2769,2.3412,2.3073,2.2822,2.2581,2.1642,2.0539,1.9262,1.5932,1.2857,0.9939,0.659,0.3112,0.0,0.0,0.0,0.0,0.0,0.0,0.0,0.0,0.0,0.0,0.0,0.0,0.0,0.0,0.0,0.0,0.0,0.0,0.0,0.0,0.0,0.0,0.0,0.0,0.0,0.0,0.0,0.0,0.0,0.0,0.0,0.0,0.0,0.0,0.0,0.0,0.0,-2.2447,-2.34,0.0,-2.3668,-2.3233,-2.3164,-2.3558,-2.4456,-2.499,-2.499,-2.6773,-2.8018,-2.8589,-2.9117,-2.9665,-3.0222,-3.004,-2.9948,-2.9929,-2.9198,-2.939,-3.0321,-2.7937,-2.6283,-2.5322,-2.5937,-2.5918,-2.5409,-2.512,-2.4957,-2.4831,-2.4611,-2.4514,-2.4495,-2.4534,-2.4543,-2.4571,0.0,0.0,0.0,0.0,0.0,0.0,0.0,0.0,-1.6213,-1.309,-1.2268,-1.0283,-0.5917,-0.4115,-0.0915,0.4875,0.641,0.7611,0.8852,0.8898,0.8526,0.7762,0.8743,1.1476,1.6094,1.8184,2.0601,2.3455,2.3607,2.4147,2.5017,2.4663,2.4533,2.4516,2.3112,2.1835,2.059,1.7842,1.4789,1.1492,0.7652,0.3913,-0.0131,0.0,0.0,0.0,0.0,0.0,0.0,0.0,0.0,0.0,0.0,0.0,0.0,0.0,0.0,0.0,0.0,0.0,0.0,0.0,0.0,0.0,0.0,0.0,0.0,0.0,0.0,0.0,0.0,0.0,0.0,0.0,0.0,0.0,0.0,0.0,-2.416,-2.5011,-2.6188,-2.6906,-2.6814,-2.6464,-2.6355,-2.6635,-2.7222,-2.7706,-2.796,-2.8842,-2.9736,-3.0598,-3.0477,-3.0679,-3.1256,-3.0698,-3.0256,-2.9948,-2.9225,-2.9033,-2.9264,-2.7665,-2.6376,-2.5425,-2.6042,-2.5986,-2.5506,-2.5524,-2.5505,-2.5476,-2.5481,-2.5495,-2.5495,-2.5495,-2.5502,-2.5533,0.0,0.0,0.0,0.0,0.0,0.0,0.0,-1.7025,-1.6507,-1.6785,-1.4461,-1.2585,-1.2119,-0.8342,-0.4832,-0.2397,0.1935,0.4579,0.4582,0.7443,0.7875,0.4956,0.9198,1.3765,1.8437,1.9185,2.105,2.4216,2.4211,2.4948,2.6278,2.627,2.6293,2.6388,2.5737,2.3615,2.0484,1.9384,1.7242,1.4272,1.0038,0.5677,0.0995,0.0,0.0,0.0,0.0,0.0,0.0,0.0,0.0,0.0,0.0,0.0,0.0,0.0,0.0,0.0,0.0,0.0,0.0,0.0,0.0,0.0,0.0,0.0,0.0,0.0,0.0,0.0,0.0,0.0,0.0,0.0,0.0,0.0,-2.4636,-2.5529,-2.6555,-2.7377,-2.8471,-2.9166,-2.9175,-2.9346,-2.9771,-3.0537,-3.0579,-3.0926,-3.1698,-3.0968,-3.091,-3.1756,-3.0948,-3.0475,-3.0475,-3.0417,-2.9987,-2.914,-2.9156,-2.8491,-2.7245,-2.6929,-2.6366,-2.5635,-2.558,-2.5542,-2.5512,-2.5605,-2.564,-2.563,-2.5576,-2.5537,-2.5517,-2.5537,-2.5576,-2.5597,0.0,0.0,0.0,0.0,0.0,0.0,0.0,-1.7285,-1.7034,-1.7399,-1.6995,-1.5948,-1.4042,-1.2079,-0.9526,-0.6203,-0.278,-0.0046,0.1601,0.2872,0.4225,0.5823,1.1069,1.4945,1.7098,2.0354,2.2706,2.4122,2.4752,2.528,2.5654,2.5736,2.5193,2.4105,2.3934,2.2929,2.1349,1.9692,1.8628,1.7716,1.336,0.8995,0.4132,0.0,0.0,0.0,0.0,0.0,0.0,0.0,0.0,0.0,0.0,0.0,0.0,0.0,0.0,0.0,0.0,0.0,0.0,0.0,0.0,0.0,0.0,0.0,0.0,0.0,0.0,0.0,0.0,0.0,0.0,0.0,0.0,-2.6301,-2.6072,-2.7913,-2.9857,-3.1398,-3.241,-3.2994,-3.2996,-3.3048,-3.2905,-3.2497,-3.2463,-3.255,-3.2767,-3.3159,-3.348,-3.3716,-3.289,-3.2429,-3.2429,-3.1179,-3.0429,-3.016,-2.8967,-2.8502,-2.8674,-2.7401,-2.6682,-2.6471,-2.6505,-2.6168,-2.5625,-2.6323,-2.6612,-2.6621,-2.6591,-2.6203,-2.5715,-2.634,-2.6197,-2.5679,0.0,0.0,0.0,0.0,0.0,0.0,0.0,-1.7752,-1.8016,-1.8896,-1.8691,-1.7977,-1.6662,-1.5337,-1.327,-1.0048,-0.6789,-0.4376,-0.3022,-0.1156,0.2069,0.6915,1.178,1.5741,1.8655,2.1837,2.3973,2.4962,2.551,2.6036,2.6643,2.6683,2.6336,2.5554,2.5137,2.395,2.1737,1.4303,1.0795,1.0072,0.775,0.5226,0.1649,-0.859,-1.3454,-1.5212,-1.8203,-1.9907,-2.0767,-2.0914,0.0,0.0,0.0,0.0,0.0,0.0,0.0,0.0,0.0,0.0,0.0,0.0,0.0,0.0,0.0,0.0,0.0,0.0,0.0,0.0,0.0,0.0,0.0,0.0,-2.6592,-2.8736,-2.9356,-3.076,-3.2502,-3.4664,-3.536,-3.5822,-3.6185,-3.6212,-3.5845,-3.4944,-3.4542,-3.4315,-3.4246,-3.4061,-3.412,-3.4478,-3.3645,-3.3016,-3.2658,-3.1652,-3.08,-3.0085,-2.9137,-2.8743,-2.8803,-2.7862,-2.7426,0.0,-2.7465,-2.7207,-2.6765,-2.7315,-2.7535,0.0,0.0,0.0,0.0,0.0,-2.7226,-2.6797,0.0,0.0,0.0,0.0,0.0,0.0,0.0,-1.8134,-1.9065,-2.0622,-1.9861,-1.9284,-1.9593,-1.8205,-1.6263,-1.3799,-1.036,-0.8201,-0.7918,-0.4465,0.0305,0.6481,1.0653,1.5049,1.9762,2.2601,2.4661,2.5924,2.6049,2.6779,2.7997,2.8168,2.7709,2.6708,2.5163,2.2745,1.899,0.5346,-0.2356,-0.5319,-0.4806,-0.464,-0.5749,-1.5677,-1.881,-1.8112,-1.9776,-2.1327,-2.2521,-2.2342,0.0,0.0,0.0,0.0,0.0,0.0,0.0,0.0,0.0,0.0,0.0,0.0,0.0,0.0,0.0,0.0,0.0,0.0,0.0,0.0,0.0,0.0,0.0,0.0,-2.8853,-3.1759,-3.3427,-3.3669,-3.4569,-3.7012,-3.7461,-3.7851,-3.8535,-3.8691,-3.832,-3.7285,-3.6484,-3.5968,-3.5741,0.0,0.0,0.0,0.0,-3.2903,-3.1943,-3.1924,-3.1139,-2.9571,-2.9532,-2.911,-2.8363,-2.8313,-2.8301,-2.8301,-2.8301,-2.8301,-2.8301,-2.8418,-2.8457,-2.8359,-2.748,-2.7676,-2.8437,-2.834,-2.8301,-2.8301,0.0,0.0,0.0,0.0,0.0,0.0,0.0,-1.7354,-1.8627,-2.0695,-2.125,-2.1552,-2.1784,-2.0347,-1.8773,-1.7242,-1.3773,-1.0809,-0.8746,-0.643,-0.4447,-0.2838,0.433,0.8413,0.8697,1.8584,2.3809,2.4103,2.5208,2.5855,2.6158,2.7253,2.2911,1.3973,0.8207,0.4372,0.1858,-0.2756,-1.1595,-2.25,-2.3264,-2.1854,-1.927,-1.959,-2.0982,-2.2707,-2.2322,-2.3047,-2.4215,-2.4531,-2.4332,-2.3877,-2.3379,-2.2342,0.0,0.0,0.0,0.0,0.0,0.0,0.0,0.0,0.0,0.0,0.0,0.0,0.0,0.0,0.0,0.0,0.0,0.0,0.0,-2.7344,-3.055,-3.3394,-3.504,-3.5265,-3.5752,-3.7148,-3.8535,-3.9199,-3.8652,-3.9238,-3.8984,-3.7402,-3.7129,-3.6718,-3.5972,-3.5621,-3.5211,-3.4682,-3.4508,-3.3687,-3.2164,-3.2145,-3.1636,-3.0601,0.0,0.0,-2.9305,-2.8612,-2.8301,-2.8301,-2.8301,-2.8301,-2.8359,-2.9062,-2.9355,-2.9258,-2.8398,-2.8574,-2.9258,-2.8555,-2.8301,-2.8301,0.0,0.0,0.0,0.0,0.0,0.0,0.0,-1.7142,-1.8281,-1.9881,-2.0235,-2.0527,-2.1001,-1.9842,-1.8568,-1.7358,-1.4374,-1.2411,-1.2114,-1.0935,-1.0439,-1.0886,-0.3615,0.0148,-0.0432,0.7967,1.1852,1.0778,1.1445,1.1405,1.0705,1.1382,0.8905,0.3687,-0.2987,-1.0523,-1.8395,-1.9937,-2.4328,-3.0277,-2.9669,-2.8181,-2.6075,-2.4183,-2.4533,-2.5891,-2.5378,-2.5449,-2.5818,-2.614,-2.5583,-2.4724,-2.4505,-2.3621,-2.2507,0.0,0.0,0.0,0.0,0.0,0.0,0.0,0.0,0.0,0.0,0.0,0.0,0.0,0.0,-2.3859,-2.4316,0.0,-2.8602,-2.9846,-3.2224,-3.4327,-3.5538,-3.6074,-3.688,-3.8283,-3.8826,-3.9256,-3.9665,-4.0095,-3.965,-3.7936,-3.8206,-3.7714,-3.6035,-3.6328,-3.6172,-3.5371,-3.5351,-3.4746,-3.3457,-3.3027,-3.2383,-3.1543,-3.0664,-3.0254,-3.0234,-2.9805,-2.9609,-2.9609,-2.9604,-2.9563,-2.9536,-2.9972,-3.0156,-3.0117,-2.9746,-2.9609,-2.9609,-2.9609,-2.9609,-2.9609,0.0,0.0,0.0,0.0,0.0,0.0,0.0,0.0,-1.7791,-1.8809,-1.8796,-1.8925,-1.9471,-1.8786,-1.7725,-1.6343,-1.4411,-1.3905,-1.5402,-1.528,-1.5796,-1.7199,-1.2178,-0.9613,-1.0128,-0.6681,-0.5677,-0.7378,-0.8197,-0.9201,-1.0352,-1.0243,-0.9626,-0.8985,-1.4093,-2.2808,-3.3696,-3.4883,-3.4708,-3.3581,-3.1838,-3.0777,-2.9995,-2.8508,-2.7881,-2.7855,-2.7804,-2.733,-2.6826,-2.7176,-2.6332,-2.5209,-2.5417,-2.4818,-2.3735,-2.2238,-2.2079,0.0,0.0,0.0,0.0,0.0,0.0,0.0,0.0,-2.172,-2.2721,-2.4469,-2.6062,-2.7225,-2.7436,-2.9377,-3.1209,-3.2065,-3.3613,-3.4979,-3.5776,-3.6358,-3.7295,-3.886,-3.8597,-3.8839,-4.0169,-4.0305,-3.9673,-3.8166,-3.8848,-3.833,-3.5988,-3.663,-3.6654,-3.5737,-3.5718,-3.5211,-3.4176,-3.3453,-3.2691,-3.187,-3.1187,-3.0835,-3.0835,-3.0835,-3.0835,-3.0832,-3.0847,-3.0775,-3.0675,-3.0697,-3.0697,-3.0703,-3.0859,-3.0447,-2.9906,-3.0624,-3.0898,-3.0898,0.0,0.0,0.0,0.0,0.0,0.0,0.0,0.0,0.0,-1.7811,-1.8633,-1.9093,-1.8997,-1.895,-1.799,-1.571,-1.5836,-1.5993,-1.5846,-1.6635,-1.8095,-2.0303,-2.0784,-2.1678,-2.307,-2.5104,-2.6257,-2.6489,-3.0329,-3.2293,-3.2421,-3.1758,-3.0939,-3.0011,-3.0949,-3.2015,-3.3231,-3.5157,-3.5521,-3.4848,-3.5198,-3.468,-3.3475,-3.1289,-2.9484,-2.8072,-2.8072,-2.7327,-2.6491,-2.729,-2.6576,-2.5503,-2.6282,-2.5407,-2.3927,-2.3084,-2.1761,-2.0575,-2.0525,-2.0642,-2.0552,-1.9561,-1.9834,-2.0978,0.0,-2.4025,-2.4598,-2.6343,-2.742,-2.8284,-2.8998,-3.0576,-3.2011,-3.2769,-3.4351,-3.5738,-3.6488,-3.6051,-3.6021,-3.6928,-3.7775,-3.8367,-3.856,-3.8579,-3.8194,-3.7222,-3.7949,-3.7654,-3.5811,-3.6548,-3.6281,-3.4717,-3.4675,-3.3882,-3.2235,-3.2118,-3.1626,-3.0784,-3.0686,-3.0628,-3.0628,-3.0628,-3.0628,-3.0628,-3.0633,-3.0632,-3.0621,-3.067,-3.0704,-3.0703,-3.0859,-3.0778,-3.0598,-3.0816,-3.0898,-3.0898,0.0,0.0,0.0,0.0,0.0,0.0,0.0,0.0,0.0,0.0,-1.6597,-1.6853,-1.6813,-1.6798,-1.6382,-1.5376,-1.5819,-1.6678,-1.7909,-1.8705,-2.0322,-2.2948,-2.3645,-2.4777,-2.6515,-2.7761,-2.9397,-3.1468,-3.3055,-3.4812,-3.6623,-3.6122,-3.6027,-3.627,-3.6948,-3.7107,-3.6993,-3.8444,-3.8306,-3.7117,-3.739,-3.5991,-3.3625,-3.2195,-3.0232,-2.8141,-2.7648,-2.6817,0.0,-2.692,-2.6111,-2.4986,-2.6334,-2.5582,-2.3969,-2.2633,-2.2088,-2.193,-2.1952,-2.1581,-2.1227,-2.1381,-2.2456,-2.3906,-2.5543,-2.6699,-2.7915,-2.9668,-3.1052,-3.2023,-3.2363,-3.3326,-3.4149,-3.4455,-3.5089,-3.5661,-3.5968,-3.5276,-3.468,-3.4507,-3.4468,-3.5045,-3.6526,-3.7084,-3.7026,-3.6185,-3.7373,-3.7397,-3.5739,-3.6472,-3.64,-3.524,-3.4749,-3.4149,-3.3422,-3.2416,-3.1729,-3.1352,-3.0839,-3.0598,-3.0598,-3.0598,-3.0598,-3.0598,-3.0559,-3.0539,-3.0544,-3.0564,-3.0586,-3.0594,-3.0696,-3.07,-3.0661,-3.0845,-3.0859,-3.0879,0.0,0.0,0.0,0.0,0.0,0.0,0.0,0.0,0.0,0.0,-1.5085,-1.516,-1.524,-1.5234,-1.5218,-1.5192,-1.5708,-1.6965,-1.9151,-2.0111,-2.1793,-2.4408,-2.5398,-2.6722,-2.8418,-2.9101,-3.0796,-3.3617,-3.3595,-3.4667,-3.6714,-3.6633,-3.7189,-3.8328,-3.8666,-3.9153,-3.9726,-4.0215,-3.957,-3.8201,-3.7711,-3.5726,-3.2936,-3.1618,-2.9649,-2.7501,-2.6876,-2.5936,-2.5078,-2.5639,-2.4832,-2.3855,-2.5296,-2.4934,-2.3666,-2.2166,-2.2047,-2.2269,-2.1735,-2.2006,-2.2591,-2.3229,-2.4877,-2.6586,-2.7513,-2.8871,-3.037,-3.185,-3.306,-3.3855,-3.3833,-3.4205,-3.4603,-3.4814,-3.5026,-3.5141,-3.5141,-3.4391,-3.343,-3.2333,-3.1487,-3.1621,-3.3256,-3.4564,-3.5276,-3.5161,-3.6488,-3.6801,-3.5638,-3.6383,-3.6474,-3.568,-3.486,-3.4308,-3.4063,-3.2594,-3.1723,-3.1472,-3.0864,-3.0544,-3.0544,-3.0544,-3.0544,-3.0544,-3.0487,-3.0467,-3.0467,-3.0487,-3.0507,-3.0509,-3.0568,-3.0591,-3.0586,-3.0759,-3.0914,-3.1179,0.0,0.0,0.0,0.0,0.0,0.0,0.0,0.0,0.0,0.0,0.0,0.0,0.0,-1.5213,-1.5262,-1.521,-1.5927,-1.7045,-1.862,-2.0259,-2.2104,-2.4215,-2.7298,-2.9564,-3.0867,-3.3125,-3.4714,-3.5617,-3.645,-3.6474,-3.5738,-3.6255,-3.716,-3.8258,-3.7122,-3.7746,-3.9648,-3.8828,-3.8047,-3.7187,-3.5507,-3.3788,-3.1952,-2.9391,-2.7324,-2.5781,-2.5749,-2.4644,-2.3179,-2.312,-2.2564,-2.2012,-2.2848,-2.3125,-2.296,-2.2064,-2.123,-2.0204,-1.8512,-2.113,-2.4321,-2.4349,-2.6294,-2.8457,-2.9316,-3.0215,-3.1077,-3.1845,-3.1992,-3.1955,-3.1907,-3.1845,-3.2064,-3.2852,-3.368,-3.4237,-3.4237,-3.3487,-3.2333,-3.0667,-2.9717,-2.889,0.0,-3.039,-3.2526,-3.4122,-3.5064,-3.5551,-3.5512,-3.6276,-3.6353,-3.5545,-3.4661,-3.3795,-3.2949,-3.2122,-3.1275,-3.0448,-3.0417,-3.0398,-3.0398,-3.0398,-3.0398,-3.0398,-3.0398,-3.0398,-3.0398,-3.0467,-3.0506,-3.0518,-3.0575,-3.0556,-3.0518,-3.0587,-3.1129,-3.1988,0.0,0.0,0.0,0.0,0.0,0.0,0.0,0.0,0.0,0.0,0.0,0.0,0.0,0.0,0.0,0.0,-1.5903,-1.6874,-1.8035,-1.9717,-2.15,-2.3357,-2.5547,-2.7457,-2.9032,-3.0432,-3.1786,-3.3177,-3.3243,-3.3777,-3.476,-3.474,-3.5321,-3.6421,-3.6048,-3.6298,-3.6975,-3.6816,-3.6934,-3.7031,-3.4746,-3.3496,-3.2598,-2.8859,-2.6715,-2.5467,0.0,-2.2741,-2.224,-2.2219,-2.2029,-2.1854,-2.2115,-2.1815,-2.1184,-2.0274,-1.9841,-1.9885,-2.1042,-2.3263,-2.5529,-2.6698,-2.8085,-2.9531,-3.0996,-3.1543,-3.1823,-3.2018,-3.1088,-3.0048,-2.9399,-2.9231,-2.9621,-3.1025,-3.2429,-3.3545,-3.4122,-3.3949,-3.2699,-2.9871,-2.9275,0.0,0.0,0.0,0.0,-3.1583,-3.2987,-3.4026,-3.4603,-3.5449,-3.5795,-3.5526,-3.4083,-3.3199,-3.2891,-3.1525,-3.0698,-3.0398,-3.0398,-3.0398,-3.0398,-3.0398,-3.0398,-3.0398,-3.0398,-3.0398,-3.0398,-3.0417,-3.0417,-3.0448,-3.0467,-3.0448,-3.0506,-3.1121,-3.1854,-3.2615,0.0,0.0,0.0,0.0,0.0,0.0,0.0,0.0,0.0,0.0,0.0,0.0,0.0,0.0,0.0,0.0,0.0,-1.6316,-1.7246,-1.8666,-2.0116,-2.1533,-2.3189,-2.4749,-2.6167,-2.7028,-2.8142,-2.9505,-3.0157,-3.0958,-3.1878,-3.2527,-3.3264,-3.4021,-3.3758,-3.3862,-3.4225,-3.4056,-3.3805,-3.3378,-3.1738,-3.0526,-2.9412,-2.6652,-2.5067,0.0,-2.2372,-2.1556,-2.1294,-2.1301,-2.1292,-2.1299,-2.1298,-2.0915,-2.0274,-1.9375,-2.0012,-2.1453,-2.348,-2.5762,-2.7903,-2.9336,-3.0117,-3.0742,-3.1543,-3.1242,-3.0654,-3.0275,-2.8551,-2.6898,-2.6256,-2.6092,-2.6504,-2.7928,-2.9533,-3.1129,-3.2622,-3.2333,-3.1352,-2.9756,-2.9294,-2.8563,0.0,0.0,0.0,-3.0321,-3.1948,-3.3276,-3.4141,-3.5295,-3.5815,-3.5512,-3.4699,-3.3968,-3.3372,-3.1987,-3.0987,-3.0398,-3.0398,-3.0398,-3.0398,-3.0398,-3.0398,-3.0398,-3.0398,-3.0398,-3.0398,-3.0398,-3.0398,-3.0398,-3.0398,-3.059,-3.0929,-3.1487,-3.241,-3.3391,0.0,0.0,0.0,0.0,0.0,0.0,0.0,0.0,0.0,0.0,0.0,0.0,0.0,0.0,0.0,0.0,0.0,0.0,-1.6285,-1.7219,-1.8101,-1.8931,-2.0497,-2.1752,-2.2575,-2.3437,-2.4271,-2.5075,-2.7408,-2.8155,-2.7437,-2.9722,-3.089,-3.1045,-3.0237,-3.0471,-3.1429,-3.0602,-2.8989,-2.6965,-2.6827,-2.5379,-2.3285,-2.3092,-2.2512,-2.1784,-2.1667,-2.1094,-2.0399,-2.0391,-2.04,-2.0408,-2.0456,-2.0443,-2.0266,-1.9574,-2.1784,-2.4655,-2.569,-2.8444,-3.123,-3.2051,-3.2207,-3.1914,-3.1094,-2.9472,-2.7852,-2.687,-2.4587,-2.2736,-2.2628,-2.2584,-2.2911,-2.3985,-2.559,-2.7596,-3.0167,-2.9236,-2.8832,-3.0294,-2.9775,-2.8948,-2.8102,-2.8756,0.0,-3.0398,0.0,-3.3276,-3.4141,-3.5834,-3.6392,-3.5545,-3.6238,-3.5853,-3.4218,-3.3295,-3.2025,-3.0398,-3.0398,-3.0398,-3.0398,-3.0398,-3.0398,-3.0398,-3.0398,-3.0398,-3.0398,-3.0398,-3.0398,-3.0398,-3.0436,-3.0968,-3.1698,-3.1756,-3.2795,-3.4199,0.0,0.0,0.0,0.0,0.0,0.0,0.0,0.0,0.0,0.0,0.0,0.0,0.0,0.0,0.0,0.0,0.0,0.0,-1.5414,-1.6265,-1.6854,-1.7072,-1.8677,-1.9666,-1.9896,-2.1321,-2.2469,-2.3341,-2.4553,-2.5371,-2.5791,-2.6465,-2.6799,-2.6839,-2.6688,-2.6786,-2.711,-2.6929,-2.7249,-2.7705,-2.5808,-2.5405,-2.5643,-2.3095,-2.1969,-2.1629,-2.0914,-2.0515,-2.034,-2.0444,-2.0444,-2.051,-2.1214,-2.0965,-2.074,-2.2541,-2.4602,-2.6796,-2.8981,-3.112,-3.2812,-3.3047,-3.2168,-3.1172,-3.0957,-2.9004,-2.6788,-2.5247,-2.2856,-2.0829,-2.0096,-2.0496,-2.1814,-2.4562,-2.7475,-3.0071,-3.1987,-3.3006,-3.3026,-3.1545,-3.1698,-3.1352,-2.991,-3.0544,0.0,0.0,-3.2314,-3.3276,-3.4141,-3.6411,-3.7007,-3.5565,-3.5699,-3.5295,-3.4199,-3.2737,-3.1468,-3.0398,-3.0398,-3.0398,-3.0398,-3.0398,-3.0398,-3.0398,-3.0398,-3.0398,-3.0398,-3.0398,-3.0398,-3.0456,-3.1121,-3.1506,-3.1775,-3.2372,-3.3276,-3.4199,0.0,0.0,0.0,0.0,0.0,0.0,0.0,0.0,0.0,0.0,0.0,0.0,0.0,0.0,0.0,0.0,0.0,0.0,0.0,-1.5502,-1.5785,-1.579,-1.6689,-1.7352,-1.7714,-1.863,-1.9364,-1.9841,-2.0972,-2.1787,-2.2281,-2.2992,-2.3393,-2.3523,-2.3948,-2.4011,-2.3828,-2.4234,-2.4551,0.0,0.0,-2.332,-2.3309,-2.1734,-2.1119,-2.1024,-2.0494,-2.0565,-2.1043,-2.1881,-2.2378,-2.274,-2.3269,-2.3612,-2.4119,-2.5629,-2.7839,-3.0135,-3.1604,-3.3514,-3.4922,-3.416,-3.2715,-3.1151,-2.9991,-2.7361,-2.4696,-2.2952,-2.0514,-1.8648,-1.846,-1.9123,-2.0441,-2.2726,-2.5639,-2.8445,-3.0891,-3.2064,-3.2718,-3.2795,-3.3199,-3.2949,-3.1641,-3.2295,-3.2795,0.0,-3.3218,-3.368,-3.416,-3.6257,-3.6834,-3.5532,-3.5853,-3.5449,-3.4199,-3.2891,-3.1795,-3.0968,-3.0571,-3.059,-3.0968,-3.0571,-3.0609,-3.0948,0.0,-3.0398,-3.0398,-3.0398,-3.0398,-3.0436,-3.0948,-3.1583,-3.2275,-3.2737,-3.3699,-3.4776,0.0,0.0,0.0,0.0,0.0,0.0,0.0,0.0,0.0,0.0,0.0,0.0,0.0,0.0,0.0,0.0,0.0,0.0,0.0,0.0,-1.4995,-1.5008,-1.5011,-1.5386,-1.6174,-1.6315,-1.642,-1.6534,-1.7987,-1.8704,-1.8723,-2.0062,-2.0828,-2.1103,-2.1873,-2.1931,-2.1494,-2.2256,-2.1751,-2.0491,-2.1252,-2.0621,-1.935,0.0,-2.0302,-2.0308,-2.0289,-2.0885,-2.1945,-2.37,-2.4904,-2.5738,-2.5979,-2.72,-2.8608,-2.8953,-3.1196,-3.3617,-3.3847,-3.5566,-3.6875,-3.5137,-3.3358,-3.1328,-2.8651,-2.5327,-2.2321,-2.0598,-1.8319,-1.6907,-1.7722,-1.8532,-1.9457,-2.0611,-2.2795,-2.5503,-2.8813,-2.9448,-3.0737,-3.3833,-3.4295,-3.4083,-3.3314,-3.393,-3.4372,-3.4372,-3.4372,-3.4372,-3.4372,-3.5968,-3.6507,-3.568,-3.6238,-3.5738,-3.4045,-3.3276,-3.2449,-3.1525,-3.0891,-3.091,-3.1506,-3.0871,-3.0929,-3.1487,0.0,0.0,-3.0417,-3.0629,-3.0667,-3.059,-3.0833,-3.1795,-3.3083,-3.3199,-3.4199,-3.5493,0.0,0.0,0.0,0.0,0.0,0.0,0.0,0.0,0.0,0.0,-1.4257,-1.4441,0.0,0.0,0.0,0.0,0.0,0.0,0.0,0.0,0.0,-1.5008,-1.5057,-1.5423,-1.6174,-1.6902,-1.7596,-1.8259,-1.9252,-1.9733,-1.9752,-2.0012,-2.0231,-2.038,-2.0593,-2.0682,-2.0701,-2.0858,-2.0756,-2.0497,-2.0653,-2.0463,-2.0102,-2.025,0.0,0.0,-2.0292,-2.082,-2.1817,-2.3599,-2.5297,-2.6921,-2.843,-2.9567,-3.077,-3.2949,-3.4002,-3.4784,-3.623,-3.6953,-3.6875,-3.5137,-3.2857,-3.0374,-2.779,-2.4419,-2.1364,-1.9664,-1.8339,-1.776,-1.8626,-1.9477,-2.0804,-2.3062,-2.4966,-2.7091,-2.9794,-3.1371,-3.2737,-3.4026,-3.4834,-3.5218,-3.5064,-3.5199,0.0,0.0,0.0,-3.5276,-3.5276,-3.6853,-3.7373,-3.6526,-3.5988,-3.4891,-3.3141,-3.2987,-3.2141,-3.0629,-3.1198,-3.1179,-3.0629,-3.1218,-3.116,-3.066,-3.1237,0.0,-3.0513,-3.191,-3.2064,-3.1621,-3.3006,-3.3718,-3.4064,-3.4776,-3.5238,-3.5493,0.0,0.0,0.0,0.0,0.0,0.0,0.0,-1.365,-1.3842,-1.3927,-1.4219,-1.4411,-1.4453,-1.4476,-1.4533,0.0,0.0,0.0,0.0,0.0,0.0,0.0,0.0,0.0,-1.6854,-1.7728,-1.8384,-1.8802,0.0,-1.9391,-1.943,-1.9392,-1.9439,-1.9561,-2.0069,-2.0106,-1.9808,-2.029,-2.0476,-2.0439,-2.0399,-2.0372,-2.0299,0.0,0.0,0.0,-2.0312,-2.0839,-2.1751,-2.3077,-2.5004,-2.7161,-2.8987,-3.0697,-3.2311,-3.3644,-3.4961,-3.6071,-3.6462,-3.7221,-3.7131,-3.403,-3.1953,-2.9795,-2.6331,-2.3497,-2.1113,-1.9398,-1.8323,-1.7982,-1.8831,-1.9681,-2.0806,-2.2466,-2.4524,-2.6678,-2.8794,-3.0929,-3.2756,-3.4045,-3.4968,-3.5493,-3.5493,-3.5493,-3.5493,-3.5493,0.0,-3.5493,-3.5493,-3.6257,-3.6507,-3.6103,-3.5699,-3.4891,-3.3583,-3.3122,-3.2295,-3.1083,-3.1506,-3.1698,-3.1698,-3.1698,-3.1948,-3.2352,-3.191,0.0,-3.1756,-3.2564,-3.2679,-3.241,-3.3199,-3.3795,-3.4237,-3.4661,-3.5122,-3.5493,0.0,0.0,0.0,0.0,0.0,0.0,0.0,-1.3682,-1.3842,-1.3913,-1.4193,-1.4375,-1.4399,-1.4464,-1.4522,0.0,0.0,0.0,0.0,0.0,0.0,0.0,0.0,0.0,0.0,0.0,0.0,-1.9162,-1.9106,0.0,0.0,0.0,0.0,0.0,-1.9959,-1.9941,-1.9419,-2.0153,-2.0439,0.0,0.0,-2.0306,0.0,0.0,0.0,0.0,0.0,-2.0608,-2.119,-2.2254,-2.398,-2.5958,-2.7575,-3.0072,-3.2435,-3.2742,-3.45,-3.6281,-3.5959,-3.6967,-3.7102,-3.2943,-3.1236,-2.9415,-2.4946,-2.27,-2.1086,-1.9369,-1.8455,-1.8237,-1.9119,-1.9807,-2.0502,-2.1361,-2.3178,-2.5159,-2.7063,-2.939,-3.1583,-3.343,-3.4584,-3.5295,-3.5488,-3.5493,0.0,-3.5493,0.0,0.0,-3.5493,-3.5493,-3.5493,-3.5493,-3.5334,-3.4795,-3.393,-3.3064,-3.2237,-3.1429,-3.1795,-3.2199,-3.2622,-3.2352,-3.2852,-3.3853,-3.2737,0.0,0.0,-3.3282,-3.3307,-3.3127,-3.3359,-3.3987,-3.4699,-3.4545,-3.5141,-3.6007,0.0,0.0,0.0,0.0,0.0,0.0,0.0,-1.3803,-1.3902,-1.3977,-1.4185,-1.4331,-1.4387,-1.4464,-1.4499,0.0,0.0,0.0,0.0,0.0,0.0,0.0,0.0,0.0,0.0,0.0,0.0,-1.9993,-1.9974,0.0,0.0,0.0,0.0,0.0,0.0,-2.0255,-2.0199,-2.0344,0.0,0.0,0.0,0.0,0.0,0.0,0.0,0.0,0.0,-1.9831,-1.9499,-2.1151,-2.1833,-2.2183,-2.3199,-2.6381,-2.9913,-3.0714,-3.2189,-3.39,-3.5398,-3.6443,-3.6292,-3.2771,-3.1212,-2.9187,-2.4152,-2.223,-2.1023,-1.9357,-1.8934,-1.9158,-2.0023,-2.0246,-2.0554,-2.137,-2.1696,-2.2716,-2.5187,-2.7101,-2.9159,-3.1641,-3.3333,-3.4622,-3.543,-3.5493,-3.5493,-3.5493,0.0,0.0,-3.5493,-3.5493,-3.5493,-3.5493,-3.4737,-3.3891,-3.3026,-3.2218,-3.1391,-3.0533,-3.2064,-3.2449,-3.1852,-3.3314,-3.3622,-3.3064,-3.368,0.0,0.0,-3.4515,-3.4659,-3.3818,-3.4861,-3.5757,-3.6392,-3.5661,-3.6392,-3.7661,0.0,0.0,0.0,0.0,0.0,0.0,-1.3724,-1.4276,-1.4549,-1.4168,-1.4725,-1.4989,-1.457,-1.4574,-1.4595,-1.456,0.0,0.0,0.0,0.0,0.0,0.0,0.0,0.0,0.0,0.0,-1.8751,-1.9438,-1.9922,0.0,0.0,0.0,0.0,0.0,0.0,-2.0295,-2.0308,-2.0328,0.0,0.0,0.0,0.0,0.0,0.0,0.0,0.0,0.0,0.0,-1.9819,-2.0562,-2.1111,-2.1289,-2.015,-2.1648,-2.445,-2.746,-2.9912,-3.201,-3.3702,-3.4797,-3.4719,-3.173,-2.996,-2.7853,-2.3762,-2.2136,-2.1177,-2.0023,-1.9758,-1.9846,-2.0227,-2.0269,-2.0356,-2.0727,-2.1177,-2.2043,-2.3581,-2.5255,-2.7467,-3.0564,-3.1968,-3.343,0.0,0.0,-3.5493,-3.5493,0.0,0.0,-3.5493,-3.5007,-3.4718,-3.4718,-3.4372,-3.4026,-3.368,-3.2833,-3.2006,-3.1198,-3.2352,-3.2653,-3.2235,-3.3569,-3.4112,-3.3989,-3.4141,0.0,0.0,-3.4852,-3.4895,-3.4377,-3.4848,-3.5618,-3.6422,-3.6096,-3.6846,-3.795,0.0,0.0,0.0,0.0,0.0,-1.3741,-1.3913,-1.4745,-1.509,-1.4386,-1.5148,-1.5573,-1.5083,-1.4858,-1.4943,-1.538,-1.5085,0.0,0.0,0.0,0.0,0.0,0.0,0.0,0.0,0.0,-1.8686,-1.8992,-1.9827,-2.0241,0.0,0.0,-2.0241,-2.0292,0.0,0.0,0.0,0.0,0.0,0.0,0.0,0.0,0.0,0.0,0.0,0.0,0.0,0.0,0.0,0.0,0.0,-2.0457,-1.8879,-1.9213,-2.0809,-2.3934,-2.668,-2.9102,-3.1037,-3.2358,-3.2639,-3.0256,-2.8582,-2.6678,-2.3524,-2.212,-2.1273,-2.0465,-2.0269,-2.0241,-2.0285,-2.0269,-2.026,-2.0285,-2.0773,-2.1446,-2.2293,-2.3658,-2.564,-2.8552,-2.966,-3.1295,-3.4103,-3.5064,-3.5493,0.0,0.0,0.0,-3.5141,-3.4526,-3.4199,-3.4199,-3.4199,-3.4083,-3.3814,-3.2968,-3.2256,-3.1718,-3.2526,-3.276,-3.2534,-3.3868,-3.4549,-3.4695,0.0,0.0,0.0,-3.4851,-3.4813,-3.4591,-3.5,-3.578,-3.6686,-3.6774,-3.7616,-3.87,0.0,0.0,0.0,0.0,0.0,0.0,-1.4263,-1.5092,-1.5411,-1.46,-1.5299,-1.5926,-1.5991,-1.532,-1.5564,-1.7227,-1.58,0.0,0.0,0.0,0.0,0.0,0.0,0.0,0.0,0.0,-1.8145,-1.8992,-1.9869,-2.0312,-2.0312,-2.0312,-2.0312,-2.0312,0.0,0.0,0.0,0.0,0.0,0.0,0.0,0.0,0.0,0.0,0.0,0.0,0.0,0.0,0.0,0.0,0.0,0.0,0.0,-2.0079,-2.0216,-2.0271,-2.2122,-2.4726,-2.7255,-2.9179,-3.0044,-2.8352,-2.7255,-2.5947,-2.337,-2.212,-2.1273,-2.0465,-2.0312,-2.0312,-2.0312,-2.0312,-2.0312,-2.0312,-2.0312,-2.06,-2.1408,-2.2274,-2.3447,-2.5149,-2.612,-2.7986,-3.141,-3.4026,-3.5493,0.0,0.0,0.0,-3.4257,-3.4199,-3.4199,-3.4199,-3.4199,-3.3795,-3.291,-3.2102,-3.1718,-3.1718,-3.2526,-3.276,-3.2572,-3.4304,-3.4963,0.0,0.0,0.0,0.0,-3.4572,-3.4508,-3.4344,-3.5742,-3.6819,-3.7618,-3.7874,-3.9046,-4.0354,0.0,0.0,0.0,0.0,0.0,0.0,0.0,-1.5123,-1.5631,-1.5473,-1.6265,-1.6651,-1.6129,-1.6432,-1.6668,-1.6645,-1.5646,0.0,0.0,0.0,0.0,0.0,0.0,0.0,0.0,0.0,-1.7837,-1.8107,-1.9581,-2.0312,-2.0312,-2.0312,-2.0312,-2.0312,-2.0312,-2.0312,0.0,0.0,0.0,0.0,0.0,0.0,0.0,0.0,0.0,0.0,0.0,0.0,0.0,0.0,0.0,0.0,0.0,0.0,0.0,-1.9303,-2.1165,-2.3533,-2.4918,-2.6082,-2.6659,-2.5563,-2.4639,-2.3639,-2.2235,-2.1273,-2.0619,-2.035,-2.0312,-2.0312,-2.0312,-2.0312,-2.0312,-2.0312,-2.0312,-2.0389,-2.0639,-2.1908,-2.3851,-2.6736,-3.039,-3.3122,0.0,0.0,0.0,0.0,0.0,0.0,-3.5103,-3.4526,-3.393,-3.3333,-3.3314,-3.3468,-3.3795,-3.2949,-3.2814,-3.341,-3.366,-3.3643,-3.3427,-3.4772,0.0,0.0,0.0,0.0,0.0,-3.4851,-3.5135,-3.5421,-3.5852,-3.7053,-3.8497,-3.8586,-3.9397,-4.045,0.0,0.0,0.0,0.0,0.0,0.0,0.0,-1.5235,-1.5733,-1.5556,-1.6599,-1.7169,-1.6687,-1.716,-1.7433,-1.7301,-1.6235,0.0,0.0,0.0,0.0,0.0,0.0,0.0,0.0,-1.733,-1.8184,-1.8184,-1.9619,-2.0312,-2.0312,-2.0312,-2.0312,-2.0312,-2.0312,-2.0312,0.0,0.0,0.0,0.0,0.0,0.0,-2.0197,0.0,0.0,0.0,0.0,0.0,0.0,0.0,0.0,0.0,0.0,0.0,0.0,0.0,-2.0498,-2.198,-2.289,-2.3717,-2.4207,-2.3698,-2.2938,-2.2177,-2.1622,-2.0881,-2.0312,-2.0312,-2.0312,-2.0312,-2.0312,-2.0312,-2.0312,-2.0312,-2.0289,-2.0412,-2.0716,-2.2213,-2.4436,-2.7535,-3.1545,0.0,0.0,-3.4949,0.0,0.0,0.0,0.0,-3.5007,-3.418,-3.3314,-3.2468,-3.2737,-3.316,-3.3699,-3.316,-3.3333,-3.4199,-3.4199,-3.4064,-3.3827,-3.4871,0.0,0.0,0.0,0.0,0.0,-3.5211,-3.559,-3.5981,-3.6746,-3.7795,-3.8955,-3.935,-3.9931,-4.0489,0.0,0.0,0.0,0.0,0.0,0.0,0.0,-1.5353,-1.5734,-1.5169,-1.6439,-1.7451,-1.7498,-1.7498,-1.7837,-1.8647,0.0,0.0,0.0,0.0,0.0,0.0,0.0,0.0,-1.6503,-1.8145,-1.8992,-1.8992,-1.9869,-2.0312,-2.0312,-2.0312,-2.0312,-2.0312,-2.0312,-2.0312,0.0,0.0,0.0,0.0,0.0,0.0,0.0,0.0,0.0,0.0,0.0,0.0,0.0,0.0,0.0,0.0,0.0,0.0,0.0,0.0,0.0,0.0,0.0,-2.1933,-2.2508,-2.2451,-2.1903,-2.1411,-2.1414,-2.0826,0.0,-2.0312,-2.0312,-2.0312,-2.0312,-2.0312,-2.0292,-2.0292,-2.0306,-2.0578,-2.1386,-2.321,-2.5397,0.0,-3.0467,0.0,-3.1891,0.0,0.0,0.0,0.0,0.0,-3.4199,-3.3314,-3.2468,-3.1718,-3.2429,-3.2833,-3.2891,-3.2891,-3.3372,-3.4295,-3.4295,-3.4155,-3.3939,-3.4759,0.0,0.0,0.0,0.0,0.0,-3.5738,-3.6079,-3.6327,-3.8194,-3.8973,-3.9125,-4.0117,-4.0489,-4.0489,0.0,0.0,0.0,0.0,0.0,0.0,0.0,0.0,0.0,0.0,-1.6717,-1.6834,-1.7491,-1.7579,-1.7423,0.0,0.0,0.0,0.0,0.0,0.0,0.0,0.0,0.0,-1.6503,-1.8145,-1.8992,-1.8992,-1.9869,-2.0312,-2.0312,-2.0312,-2.0312,-2.0312,-2.0312,-2.0312,0.0,0.0,0.0,0.0,0.0,0.0,0.0,0.0,0.0,0.0,-2.0135,-2.0088,0.0,0.0,0.0,0.0,0.0,0.0,0.0,0.0,-2.0011,-2.0059,-2.0289,0.0,-2.0547,-1.9878,-2.0114,-2.0512,0.0,-2.0395,-2.0312,-2.0312,-2.0312,-2.0312,-2.0312,-2.0312,-2.0308,-2.0301,-2.0295,-2.0611,-2.1451,-2.5235,-2.8882,-3.1482,-3.3455,-3.4378,-3.3749,0.0,0.0,0.0,0.0,-3.4199,-3.4199,-3.2795,-3.191,-3.1718,-3.1891,-3.2275,-3.2891,-3.2891,-3.368,-3.5199,-3.5199,-3.5152,-3.511,-3.5302,0.0,0.0,0.0,0.0,-3.7236,-3.7428,-3.7888,-3.8556,-3.9026,-3.958,-4.0153,-4.0396,-4.0489,-4.0489,0.0,0.0,0.0,0.0,0.0,0.0,0.0,0.0,0.0,0.0,0.0,0.0,0.0,0.0,0.0,0.0,0.0,0.0,0.0,0.0,0.0,0.0,0.0,-1.7688,-1.7683,-1.8976,-1.9645,-1.9645,-2.0102,-2.0339,-2.0299,-2.0299,-2.0296,-2.0304,-2.0269,-2.0241,0.0,0.0,0.0,0.0,-2.0188,0.0,0.0,0.0,0.0,0.0,-2.0069,-2.0031,0.0,-1.999,-1.9998,-1.9998,0.0,0.0,0.0,0.0,-1.9998,-1.9998,-1.9998,-2.002,-1.9945,-1.9459,-1.9772,-2.0188,-2.0162,-2.0225,-2.0312,-2.0312,-2.0312,-2.0312,-2.0312,-2.0312,-2.0289,-2.0295,-2.063,-2.1487,-2.3144,-2.5721,-2.8675,-3.2004,-3.3198,-3.4032,0.0,0.0,0.0,0.0,0.0,-3.343,-3.3064,-3.1814,-3.1295,-3.1698,-3.1698,-3.2083,-3.2891,-3.3295,-3.418,-3.5493,-3.5493,-3.5493,-3.5493,-3.5493,-3.5738,0.0,0.0,0.0,-3.7469,-3.8277,-3.8873,-3.9335,-3.97,-4.0104,-4.0489,-4.0489,-4.0489,-4.0489,0.0,0.0,0.0,0.0,0.0,0.0,0.0,0.0,0.0,0.0,0.0,0.0,0.0,0.0,0.0,0.0,0.0,0.0,0.0,0.0,0.0,0.0,0.0,-1.9104,-1.9103,-1.9951,-2.0394,-2.0394,-2.0388,-2.0365,-2.0308,-2.0295,-2.028,-2.0277,-2.0225,-2.0197,0.0,0.0,0.0,0.0,-2.0162,0.0,0.0,0.0,0.0,0.0,0.0,0.0,0.0,-2.0004,-2.0007,-2.0,-2.0004,0.0,0.0,0.0,0.0,0.0,-2.0012,-2.0093,-2.0172,-2.002,-2.0098,-2.0171,-2.0135,-2.0208,-2.0312,-2.0312,-2.0312,-2.0312,-2.0312,-2.0312,-2.0296,-2.0308,-2.1371,0.0,-2.606,-2.6555,-2.7989,-3.1658,-3.2216,0.0,0.0,0.0,0.0,0.0,0.0,-3.2429,-3.1737,-3.0871,-3.0737,-3.1487,-3.1641,-3.2025,-3.2718,-3.3699,-3.4641,-3.5493,-3.5493,-3.5493,-3.5493,-3.5493,-3.5584,0.0,0.0,0.0,-3.7219,-3.8815,-3.9469,-3.9546,-4.0219,-4.0473,-4.0438,-4.0489,-4.0473,-4.0438,0.0,0.0,0.0,0.0,0.0,0.0,0.0,0.0,0.0,0.0,0.0,0.0,0.0,0.0,0.0,0.0,0.0,0.0,0.0,0.0,0.0,-1.9951,-1.9424,-1.91,-1.909,-1.9948,-2.0394,-2.0394,-2.034,-2.0315,-2.0308,-2.0292,-2.0265,-2.0205,-2.0197,-2.0197,-2.0188,-2.0144,-2.0144,-2.018,-2.0125,0.0,0.0,0.0,0.0,0.0,0.0,0.0,0.0,-1.9993,-1.9993,-2.0004,-1.9993,0.0,0.0,0.0,0.0,0.0,-2.0012,-2.0549,-2.0915,-2.0172,-2.0069,-2.0135,-2.0171,-2.0241,-2.0312,-2.0312,-2.0312,-2.0312,-2.0312,-2.0312,-2.033,-2.0371,-2.2927,-2.6265,0.0,0.0,-3.2289,-3.3731,0.0,0.0,0.0,0.0,0.0,0.0,0.0,0.0,-3.1718,-3.0871,-3.0456,-3.0602,-3.1314,-3.1756,-3.1891,-3.341,-3.4641,-3.5493,-3.5493,-3.5493,-3.5493,-3.5493,-3.5872,0.0,0.0,-3.8219,-3.8969,-3.9912,-4.0315,-4.0315,-4.045,-4.0356,-4.0177,-4.0425,-4.0356,-4.0195,0.0,0.0,0.0,0.0,0.0,0.0,0.0,0.0,0.0,0.0,0.0,0.0,0.0,0.0,0.0,0.0,0.0,0.0,0.0,0.0,0.0,-2.0441,-2.0072,-1.9869,-1.9866,-2.0254,-2.0456,-2.0456,-2.0424,-2.0405,-2.0418,-2.032,-2.0265,-2.0188,-2.0162,-2.0162,-2.0208,-2.0135,-2.0126,-2.0144,0.0,0.0,0.0,0.0,0.0,0.0,0.0,0.0,0.0,0.0,-2.0012,-2.0012,-2.0012,0.0,0.0,0.0,0.0,0.0,-1.9998,-2.0285,-2.0631,-2.0766,-2.1158,-2.1503,-2.155,-2.1605,-2.1523,-2.1043,-2.0946,-2.0804,-2.0337,-2.0623,-2.1559,-2.3438,0.0,-2.7136,-2.995,-3.0297,-3.0906,0.0,0.0,0.0,0.0,0.0,0.0,0.0,0.0,0.0,-3.1025,-3.0621,-3.0621,-3.1102,-3.1487,-3.191,-3.2333,-3.3103,-3.3699,-3.4103,-3.4564,-3.4795,-3.4814,-3.5295,-3.5699,-3.6122,0.0,-3.8238,-3.87,-3.9969,-4.0489,-4.0489,-4.0489,-4.0422,-4.0339,-4.0457,-4.0406,-4.0339,0.0,0.0,0.0,0.0,0.0,0.0,0.0,0.0,0.0,0.0,0.0,0.0,0.0,0.0,0.0,0.0,0.0,0.0,0.0,0.0,-2.05,-2.05,-2.05,-2.051,-2.0504,-2.0506,-2.05,-2.05,-2.0494,-2.0488,-2.0444,-2.0353,-2.0265,-2.0188,-2.0153,-2.0144,-2.0171,-2.0107,-2.0088,-2.0079,0.0,0.0,0.0,0.0,0.0,0.0,0.0,0.0,0.0,0.0,0.0,0.0,0.0,0.0,0.0,-1.996,-1.9971,-2.0004,-2.001,-2.0164,-2.0527,-2.1291,-2.1808,-2.223,-2.2623,-2.2612,-2.235,-2.1908,-2.1793,-2.1534,-2.0691,-2.1243,-2.2943,-2.6352,-2.7296,-2.8308,-3.0392,-2.996,-3.0163,0.0,0.0,0.0,0.0,0.0,0.0,0.0,0.0,0.0,-3.0436,-3.0398,-3.0717,-3.1371,-3.141,-3.1698,-3.2314,-3.2314,-3.2602,-3.3218,-3.3872,-3.4199,-3.4218,-3.5103,-3.5391,-3.5295,-3.6969,-3.77,-3.7834,-3.9508,-4.0219,-4.0239,-4.0431,-4.0489,-4.0489,-4.0441,-4.0457,-4.0489,0.0,0.0,0.0,0.0,0.0,0.0,0.0,0.0,0.0,0.0,0.0,0.0,0.0,0.0,0.0,0.0,0.0,0.0,0.0,0.0,-2.05,-2.05,-2.05,-2.0497,-2.0497,-2.0497,-2.05,-2.05,-2.0508,-2.0439,-2.0315,-2.0304,-2.0249,-2.0197,-2.0188,-2.0162,-2.0117,-2.0098,-2.0069,-2.0011,-2.0011,0.0,0.0,0.0,0.0,0.0,0.0,0.0,0.0,0.0,0.0,0.0,0.0,0.0,-1.9971,-1.9854,-1.9908,-2.0004,-2.001,-2.0632,-2.134,-2.1473,-2.0945,-2.08,-2.2419,-2.2177,-2.1812,-2.2543,-2.2716,-2.2464,-2.1644,-2.2216,-2.3906,-2.7267,-2.9178,-3.1356,-3.4597,0.0,0.0,0.0,0.0,0.0,0.0,0.0,0.0,0.0,0.0,0.0,-3.0398,-3.0398,-3.0417,-3.0494,-3.0494,-3.0513,-3.0571,-3.0571,-3.1775,-3.4103,-3.416,-3.4199,-3.4218,-3.5103,-3.5064,-3.4391,-3.6065,-3.6796,-3.693,-3.8661,-3.9392,-3.945,-4.02,-4.0489,-4.0473,-4.0213,-4.0286,-4.0489,0.0,0.0,0.0,0.0,0.0,0.0,0.0,0.0,0.0,0.0,0.0,0.0,0.0,0.0,0.0,0.0,0.0,0.0,0.0,-1.9506,-1.9935,-2.048,-2.05,-2.05,-2.05,-2.05,-2.05,-2.05,-2.0508,-2.0434,-2.0296,-2.0299,-2.0249,-2.0144,-2.0144,-2.0116,-2.0088,-2.006,-2.0021,-2.0001,-1.9998,-1.9996,0.0,0.0,0.0,0.0,0.0,0.0,0.0,0.0,-1.993,-1.9877,-1.9919,-1.9908,-1.9877,-1.9919,-1.9955,-2.0,-2.005,-2.0747,-2.1473,-2.1489,-2.1248,-2.1468,-2.3216,-2.3735,-2.3812,-2.3648,-2.4005,-2.3965,-2.2655,-2.3499,-2.5167,-2.7528,-2.9329,-3.1241,-3.3564,0.0,0.0,0.0,0.0,0.0,0.0,0.0,0.0,0.0,0.0,0.0,0.0,-3.0121,-3.0398,-3.0398,-3.0398,-3.0398,-3.0398,-3.0398,-3.116,-3.2641,-3.3141,-3.3391,-3.343,-3.4872,-3.5026,-3.4276,-3.5968,-3.6699,-3.6796,-3.8007,-3.8488,-3.8584,-3.9411,-3.9411,-3.9008,-3.9432,-3.9676,-3.9738,0.0,0.0,0.0,0.0,0.0,0.0,0.0,0.0,0.0,0.0,0.0,0.0,0.0,0.0,0.0,0.0,0.0,0.0,-1.8743,-1.9311,-1.9876,-2.048,-2.05,-2.05,-2.05,-2.05,-2.05,-2.05,-2.0476,-2.0429,-2.034,-2.0299,-2.0214,-2.0135,-2.0135,-2.0098,-2.0069,-2.0031,-2.003,-1.999,-2.0004,-2.0012,0.0,0.0,0.0,0.0,0.0,0.0,0.0,0.0,-1.993,-1.9866,-1.9919,-1.9908,-1.9866,-1.9919,-1.9966,-2.001,-2.006,-2.0556,-2.1128,-2.144,-2.1496,-2.1966,-2.3706,-2.4312,-2.4505,-2.4485,-2.4735,-2.4608,-2.3493,-2.443,-2.5927,0.0,-2.9308,-3.091,0.0,0.0,0.0,0.0,0.0,0.0,0.0,0.0,0.0,0.0,0.0,0.0,0.0,-2.9294,-2.9621,0.0,-2.9621,-2.9737,-2.9987,-2.9987,-3.0564,-3.1718,-3.2256,-3.2526,-3.2583,-3.4295,-3.4603,-3.3872,-3.5584,-3.6334,-3.6392,-3.7238,-3.7757,-3.8065,-3.8661,-3.8527,-3.8065,-3.8661,-3.8892,-3.8892,0.0,0.0,0.0,0.0,0.0,0.0,0.0,0.0,0.0,0.0,0.0,0.0,0.0,0.0,0.0,0.0,0.0,0.0,-1.802,-1.9562,-2.05,-2.05,-2.05,-2.05,-2.05,-2.05,-2.05,-2.05,-2.0434,-2.0394,-2.0394,-2.025,-2.0188,-2.0188,-2.0188,-2.0116,-2.0011,-2.0069,-2.0049,-2.0012,-2.0012,-2.0012,-2.0012,0.0,0.0,0.0,0.0,0.0,0.0,0.0,-2.0012,-1.9971,-1.9842,-1.9896,-1.9971,-1.9842,-1.9908,-2.0004,-2.001,-2.006,-2.0356,-2.1262,-2.1517,-2.1985,-2.3706,-2.3437,-2.3293,-2.4957,-2.4722,-2.4192,-2.4119,-2.4878,0.0,-2.7614,-2.927,-3.0679,0.0,0.0,0.0,0.0,0.0,0.0,0.0,0.0,0.0,0.0,0.0,0.0,0.0,-2.789,-2.789,0.0,-2.789,-2.8275,-2.9083,-2.9102,-2.9967,-3.1679,-3.1679,-3.1698,-3.1756,-3.343,-3.3699,-3.2987,-3.4718,-3.5488,-3.5565,-3.6372,-3.7199,-3.7988,-3.7988,-3.7988,-3.7988,-3.7988,-3.7988,-3.7988,0.0,0.0,0.0,0.0,0.0,0.0,0.0,0.0,0.0,0.0,0.0,0.0,0.0,0.0,0.0,0.0,0.0,0.0,-1.9678,-1.9642,-1.9857,-2.048,-2.05,-2.05,-2.05,-2.0499,-2.0496,-2.05,-2.0395,-2.034,-2.0334,-2.0184,-2.0098,-2.005,-2.005,-2.003,-1.9996,-2.0017,-2.0026,-2.0012,-2.0012,-2.0012,-2.0012,0.0,0.0,0.0,0.0,0.0,0.0,0.0,0.0,0.0,-1.9919,-1.9908,-1.9866,-1.9919,-2.0007,-2.0069,-2.0069,-2.1005,-2.1912,-2.1583,-2.2419,-2.3456,-2.3975,-2.4332,-2.487,-2.5986,-2.5544,-2.4782,-2.4199,-2.4786,0.0,-2.606,-2.7026,0.0,0.0,0.0,0.0,0.0,0.0,0.0,0.0,0.0,0.0,0.0,0.0,0.0,0.0,-2.7563,0.0,0.0,-2.789,-2.8005,-2.8255,-2.8813,-2.9352,-2.9871,-3.0487,-3.1121,-3.1737,-3.2795,-3.2833,-3.2122,-3.3199,-3.4026,-3.4641,-3.5507,-3.6007,-3.6295,-3.6873,-3.6738,-3.6315,-3.6892,-3.7084,-3.7055,0.0,0.0,0.0,0.0,0.0,0.0,0.0,0.0,0.0,0.0,-1.5669,0.0,0.0,0.0,0.0,0.0,0.0,0.0,0.0,-1.9818,-1.9954,-2.048,-2.05,-2.049,-2.0453,-2.0467,-2.0443,-2.0409,-2.0346,-2.0295,-2.0308,-2.0133,-2.0041,-2.0031,-2.0011,-1.999,-1.9993,-1.9996,-1.9996,-2.0012,-2.0012,-2.0012,-2.0012,0.0,0.0,0.0,0.0,0.0,0.0,0.0,0.0,0.0,-1.9971,-1.993,-1.9908,-1.9971,-2.0036,-2.0135,-2.0479,-2.1398,-2.2287,-2.2459,-2.3303,-2.4187,-2.4505,-2.4947,-2.5437,-2.5986,-2.5697,-2.5188,-2.4666,-2.4985,0.0,-2.5822,0.0,0.0,0.0,0.0,0.0,0.0,0.0,0.0,0.0,0.0,0.0,0.0,0.0,0.0,0.0,-2.6582,0.0,0.0,-2.6871,-2.7024,-2.7371,-2.7852,-2.8429,-2.9102,-2.9621,-3.0352,-3.1218,-3.2045,-3.216,-3.1737,-3.2545,-3.3391,-3.4237,-3.4776,-3.5199,-3.5565,-3.6045,-3.593,-3.5565,-3.6045,-3.6219,-3.619,0.0,0.0,0.0,0.0,0.0,0.0,0.0,0.0,0.0,0.0,-1.6058,-1.6636,0.0,0.0,0.0,0.0,0.0,0.0,0.0,0.0,-2.05,-2.05,-2.0497,-2.0476,-2.04,-2.0395,-2.0369,-2.0296,-2.0287,-2.0284,-2.0304,-2.0088,-2.0031,-2.0088,-2.004,-2.0009,-1.9993,-1.999,-2.0009,-2.0012,-2.0012,-2.0012,-2.0012,-2.0012,0.0,0.0,0.0,0.0,0.0,0.0,0.0,0.0,-2.0012,-2.0012,-2.0012,-2.0012,-2.0061,-2.031,-2.1086,-2.1472,-2.2029,-2.3611,-2.4111,-2.4389,-2.5139,-2.5303,-2.5303,-2.5303,-2.5341,-2.537,-2.5303,-2.5341,-2.564,0.0,0.0,0.0,0.0,0.0,0.0,0.0,0.0,0.0,0.0,0.0,0.0,0.0,0.0,0.0,0.0,-2.5303,0.0,-2.5303,-2.5303,-2.5668,-2.6467,-2.6563,-2.7351,0.0,-2.8948,-2.941,-3.0186,-3.116,-3.1583,-3.1641,-3.2449,-3.3276,-3.4083,-3.416,-3.4718,-3.5493,-3.5493,-3.5493,-3.5493,-3.5493,-3.5493,-3.5493,0.0,0.0,0.0,0.0,0.0,0.0,0.0,0.0,0.0,0.0,0.0,0.0,0.0,0.0,0.0,0.0,0.0,0.0,0.0,0.0,-2.05,-2.05,-2.0496,-2.0495,-2.0482,-2.0383,-2.0308,-2.0299,-2.0242,-2.0254,-2.0304,-2.0088,-2.0011,-2.0021,-2.0017,-2.0004,-1.9993,-2.0004,-2.0004,-2.0012,-2.0012,-2.0012,-2.0012,-2.0012,-2.0012,0.0,0.0,0.0,0.0,0.0,0.0,0.0,-2.0012,-2.0012,-2.0012,-2.0012,-2.0513,-2.1148,-2.133,-2.2441,-2.3602,-2.3976,-2.4553,-2.5101,-2.5264,-2.5303,-2.5303,-2.5303,-2.5303,-2.5322,-2.5303,-2.5303,-2.538,0.0,0.0,0.0,0.0,0.0,0.0,0.0,0.0,0.0,0.0,0.0,0.0,0.0,0.0,0.0,-2.5303,-2.5303,0.0,-2.5303,-2.5303,-2.538,-2.5572,-2.6255,-2.6774,0.0,-2.7832,-2.8255,-2.8486,-2.9987,-3.0679,-3.0737,-3.1583,-3.2429,-3.3237,-3.391,-3.4718,-3.5493,-3.5493,-3.5493,-3.5493,-3.5493,-3.5493,-3.5446,0.0,0.0,0.0,0.0,0.0,0.0,0.0,0.0,0.0,0.0,0.0,0.0,0.0,0.0,0.0,0.0,0.0,0.0,0.0,0.0,-2.05,-2.05,-2.0503,-2.0476,-2.0404,-2.034,-2.0268,-2.0205,-2.0169,-2.0169,-2.0205,-2.005,-2.0,-2.0001,-1.9996,-2.0012,-2.0012,-2.0012,-2.0012,-2.0012,-2.0012,-2.0012,-1.9982,-1.9919,-1.9908,-1.9908,-1.988,0.0,0.0,0.0,0.0,0.0,0.0,0.0,-1.9919,-1.9982,-2.034,-2.0916,-2.1741,-2.2661,-2.3592,-2.4457,-2.4986,-2.5303,-2.5303,-2.5303,-2.5303,-2.5303,-2.5303,-2.5303,-2.5303,-2.5303,0.0,0.0,0.0,0.0,0.0,0.0,0.0,0.0,0.0,0.0,0.0,0.0,0.0,0.0,0.0,-2.5303,-2.5303,-2.5303,-2.5303,-2.5303,-2.5303,-2.5303,-2.5303,-2.5755,-2.6197,-2.6621,-2.7063,-2.7505,-2.7928,-2.9198,-2.9775,-2.9833,-3.0698,-3.1545,-3.2352,-3.2814,-3.3506,-3.4295,-3.4718,-3.4872,-3.493,-3.5353,-3.5493,-3.5446,0.0,0.0,0.0,0.0,0.0,0.0,0.0,0.0,0.0,0.0,0.0,0.0,0.0,0.0,0.0,0.0,0.0,0.0,0.0,0.0,0.0,-2.05,-2.049,-2.0428,-2.0302,-2.0283,-2.0212,-2.0088,-2.0088,-2.0079,-2.0079,-2.0028,-1.9998,-2.0001,-1.9996,-2.0012,-2.0012,-2.0012,-2.0012,-2.0012,-1.9971,-1.9971,-1.996,-1.9842,-1.9788,-1.9782,-1.9719,-1.9712,-1.9686,-1.9686,0.0,0.0,0.0,0.0,-1.9811,-1.993,-2.0077,-2.0549,-2.1988,-2.2602,-2.3245,-2.4879,-2.5303,-2.5303,-2.5303,-2.5303,-2.5303,-2.5303,-2.5303,-2.5303,-2.5303,-2.5303,0.0,0.0,0.0,0.0,0.0,0.0,0.0,0.0,0.0,0.0,0.0,0.0,0.0,0.0,0.0,-2.5303,-2.5303,-2.5303,-2.5303,-2.5303,-2.5303,-2.5303,-2.5303,-2.5303,-2.5649,-2.639,-2.639,-2.6755,-2.7486,-2.8294,-2.8832,-2.914,-3.0025,-3.0891,-3.1698,-3.1698,-3.2179,-3.2968,-3.368,-3.4064,-3.4276,-3.5007,-3.5372,-3.546,0.0,0.0,0.0,0.0,0.0,0.0,0.0,0.0,0.0,0.0,-1.7888,0.0,0.0,0.0,0.0,0.0,0.0,0.0,0.0,0.0,0.0,-2.05,-2.0448,-2.0369,-2.0302,-2.0231,-2.0188,-2.0088,-2.0031,-2.0011,-2.0011,-2.0001,-2.0001,-2.0001,-1.9996,-2.0012,-2.0012,-2.0012,-2.0012,-1.9982,-1.9866,-1.983,-1.9811,-1.98,-1.977,-1.9725,-1.977,-1.9745,-1.9686,-1.9686,-1.9686,0.0,0.0,0.0,-1.98,-1.9811,-2.0445,-2.1181,-2.1401,-2.2611,-2.4052,-2.5043,-2.5303,-2.5303,-2.5303,-2.5303,-2.5303,0.0,-2.5303,-2.5303,-2.5303,0.0,0.0,0.0,0.0,0.0,0.0,0.0,0.0,0.0,0.0,0.0,0.0,0.0,0.0,0.0,-2.5303,-2.5303,-2.5303,-2.5303,-2.5303,-2.5303,-2.5303,-2.5303,-2.5303,-2.5303,-2.536,-2.5476,-2.5476,-2.5534,-2.5668,-2.6544,-2.7736,-2.914,-3.0025,-3.0891,-3.1698,-3.1698,-3.2179,-3.291,-3.3026,-3.3545,-3.4199,-3.4334,-3.4853,-3.546,0.0,0.0,0.0,0.0,0.0,0.0,0.0,0.0,0.0,0.0,0.0,-1.8997,0.0,0.0,0.0,0.0,0.0,0.0,0.0,0.0,0.0,-2.0492,-2.0434,-2.0377,-2.0301,-2.0235,-2.0152,-2.0031,-2.0011,-2.001,-1.9998,-1.9998,-1.9998,-1.9988,-2.0004,-2.0012,-2.0012,-2.0012,-2.0012,-1.9982,-1.9949,-2.0206,-2.0589,-2.0005,-2.0082,-2.0421,-1.9926,-1.9725,-1.9686,-1.9686,-1.9686,-1.9699,-1.9732,0.0,0.0,0.0,-2.0229,-2.0769,-2.1757,-2.2986,-2.4216,-2.5081,-2.5303,-2.5303,-2.5303,-2.5303,-2.5303,-2.5303,-2.5303,-2.5303,-2.5303,0.0,0.0,0.0,0.0,0.0,0.0,0.0,0.0,0.0,0.0,0.0,0.0,0.0,0.0,0.0,-2.5303,-2.5303,-2.5303,-2.5303,-2.5303,-2.5303,-2.5303,-2.5303,-2.5303,-2.5303,-2.5303,-2.5303,-2.5303,-2.5303,-2.5322,-2.6197,-2.7274,-2.8448,-2.8832,-2.9756,-3.0929,-3.0448,-3.0737,-3.1545,-3.2045,-3.2468,-3.2852,-3.3314,-3.4026,-3.4716,0.0,0.0,0.0,0.0,0.0,0.0,0.0,0.0,0.0,0.0,0.0,0.0,0.0,0.0,0.0,0.0,0.0,0.0,0.0,0.0,0.0,-2.0449,-2.0374,-2.0315,-2.0254,-2.0175,-2.0097,-2.0,-2.0,-1.9998,-2.0012,-2.0012,-2.0012,-2.0012,-2.0012,-2.0012,-2.0012,-2.0012,-2.0012,-2.0031,-2.021,-2.0698,-2.1187,-2.0436,-2.0545,-2.0953,-2.0057,-1.9712,-1.9686,-1.9686,-1.9686,-1.9699,-1.9757,-1.9794,0.0,0.0,0.0,-2.034,-2.1883,-2.2824,-2.3611,-2.4716,-2.4976,-2.5024,-2.5245,-2.5303,-2.5303,0.0,-2.5303,-2.5303,0.0,0.0,0.0,0.0,0.0,0.0,0.0,0.0,0.0,0.0,0.0,0.0,0.0,0.0,0.0,0.0,-2.5303,-2.5303,-2.5303,-2.5303,-2.5303,-2.5303,-2.5303,-2.5303,-2.5303,-2.5303,-2.5303,-2.5303,-2.5303,-2.5303,-2.5322,-2.5967,-2.6755,-2.7582,-2.7794,-2.8736,-3.0025,-2.9371,-2.9602,-3.0456,-3.1121,-3.1506,-3.1775,-3.2372,-3.3231,-3.4045,0.0,0.0,0.0,0.0,0.0,0.0,0.0,0.0,0.0,0.0,0.0,0.0,-2.05,-2.05,-2.05,-2.05,-2.05,0.0,0.0,0.0,0.0,-2.0308,-2.0253,0.0,-2.0105,-2.0031,-2.0,-1.9993,-1.9993,-1.9993,-2.0012,-2.0012,-2.0012,-2.0012,-2.0012,-2.0012,-2.0012,-2.0012,-2.0012,-2.0069,-2.0823,-2.1164,-2.1202,-2.1152,-2.1085,-2.0897,-2.0088,-1.9757,-1.9686,-1.9686,-1.9686,-1.9699,-1.9699,-1.9745,-1.98,0.0,0.0,0.0,-2.1196,-2.1502,-2.1953,-2.3717,-2.4111,-2.4283,-2.5101,-2.5303,-2.5303,-2.5303,-2.5303,-2.5303,0.0,0.0,0.0,0.0,0.0,0.0,0.0,0.0,0.0,0.0,0.0,0.0,0.0,0.0,0.0,0.0,-2.5303,-2.5303,-2.5303,-2.5303,-2.5303,-2.5303,-2.5303,-2.5303,-2.5303,-2.5303,-2.5303,-2.5303,-2.5303,-2.5303,-2.5303,-2.5341,-2.5851,-2.6717,-2.7544,-2.8371,-2.9159,-2.9121,-2.9602,-3.0398,-3.0436,-3.0968,-3.1718,-3.1756,-3.2651,-3.3856,0.0,0.0,0.0,0.0,0.0,0.0,0.0,0.0,0.0,0.0,0.0,0.0,0.0,-2.05,-2.05,-2.05,-2.05,0.0,0.0,0.0,0.0,-2.0377,-2.0294,-2.0203,-2.0107,-2.0031,-2.0,-2.0012,-2.0012,-2.0012,-2.0012,-2.0012,-2.0012,-2.0012,-2.0012,-2.0012,-2.0012,-2.0012,-2.0012,-2.0069,-2.0918,-2.1589,-2.2051,-2.1483,-2.1961,-2.2737,-2.1271,-2.0751,-2.0717,-2.0717,-2.0354,-1.9892,-1.9892,-1.9915,-1.9919,-1.9919,-1.9958,-2.0212,-2.1149,-2.1436,-2.1741,-2.2957,-2.3668,-2.4149,-2.4466,-2.4928,-2.5303,-2.5303,-2.5303,-2.5303,0.0,0.0,0.0,0.0,0.0,0.0,0.0,0.0,0.0,0.0,0.0,0.0,0.0,0.0,0.0,0.0,0.0,-2.5303,-2.5303,-2.5303,-2.5303,-2.5303,-2.5341,-2.537,-2.537,-2.5409,-2.5409,-2.537,-2.5409,-2.5409,-2.537,-2.537,-2.5524,-2.5793,-2.6101,-2.7024,-2.8332,-2.8332,-2.8813,-2.9621,-3.0179,-3.059,-3.0871,-3.0871,-3.1429,-3.2203,0.0,0.0,0.0,0.0,0.0,0.0,0.0,0.0,0.0,-2.0383,0.0,0.0,0.0,0.0,-2.05,-2.05,-2.05,-2.0494,-2.0503,-2.0476,-2.0444,-2.0377,-2.0301,-2.0203,-2.0107,-2.0031,-2.0,-2.0012,-2.0012,-2.0012,-2.0012,-2.0012,-2.0012,-2.0012,-2.0012,-2.0012,-2.0012,-2.0012,-2.0012,-2.0088,-2.1268,-2.2083,-2.2545,-2.1958,-2.2477,-2.3332,-2.1833,-2.1295,-2.1344,-2.1632,-2.1219,-2.0587,-2.0462,-2.0234,-2.0007,-2.0007,-2.0039,-2.0203,-2.0824,-2.1033,-2.1261,-2.215,-2.2803,-2.338,-2.3975,-2.4505,-2.4966,-2.5245,-2.5303,-2.5303,0.0,0.0,0.0,0.0,0.0,0.0,0.0,0.0,0.0,0.0,0.0,0.0,0.0,0.0,0.0,0.0,0.0,0.0,-2.5303,-2.5322,-2.5341,-2.537,-2.5406,-2.5429,-2.5429,-2.5485,-2.5485,-2.5429,-2.5468,-2.5468,-2.5429,-2.5408,-2.539,-2.5322,-2.5303,-2.612,-2.7467,-2.7467,-2.8102,-2.9159,-2.9737,-3.014,-3.0398,-3.0299,-3.0705,-3.131,0.0,0.0,0.0,0.0,0.0,0.0,0.0,0.0,-1.9545,-2.0383,0.0,0.0,0.0,0.0,0.0,-2.05,-2.05,-2.0506,-2.0491,-2.043,-2.038,-2.0308,0.0,0.0,-2.0115,-2.005,-2.0,-1.9993,-1.9993,-1.9993,-1.9993,-1.9993,-2.0012,-2.0012,-2.0012,-2.0012,-2.0012,-2.0012,-2.0012,-2.0156,-2.1901,-2.2621,-2.264,-2.264,-2.2659,-2.2602,-2.1689,-2.1382,-2.1507,-2.2352,-2.2257,-2.1719,-2.1363,-2.0667,-2.0011,-2.0011,-2.0098,-2.0197,0.0,0.0,0.0,-2.1246,-2.1479,-2.1941,-2.3639,0.0,-2.4302,-2.5101,-2.5264,-2.5264,0.0,0.0,0.0,0.0,0.0,0.0,0.0,0.0,0.0,0.0,0.0,0.0,0.0,0.0,0.0,0.0,-2.5303,-2.5303,-2.5303,-2.537,-2.5438,-2.5505,-2.5499,-2.5508,-2.5498,-2.5503,-2.5503,-2.5503,-2.5493,-2.5498,-2.5493,-2.5429,-2.539,-2.5409,-2.5322,-2.5793,-2.6563,-2.6582,-2.7563,-2.9025,-2.9044,-2.9602,-3.0328,-3.0065,-3.0513,-3.126,0.0,0.0,0.0,0.0,0.0,-1.9155,-2.0013,-2.0149,-2.0227,0.0,0.0,0.0,-2.05,-2.05,-2.05,-2.05,-2.05,-2.0497,-2.0506,-2.048,-2.0454,-2.0444,-2.0328,-2.026,-2.0254,-2.0134,-2.0069,-2.0069,-2.0007,-1.9996,-2.0,-1.9996,-2.0012,-2.0012,-2.0012,-2.0012,-2.0012,-2.0012,-2.0012,-2.0156,-2.1901,-2.2985,-2.355,-2.3581,-2.4408,-2.5311,-2.3783,-2.3245,-2.3283,0.0,-2.263,-2.1306,-2.0601,-2.0241,-2.0069,-2.0069,-2.0125,-2.0197,-2.0197,0.0,0.0,0.0,0.0,0.0,0.0,0.0,-2.3398,-2.4255,-2.4428,-2.4601,0.0,0.0,0.0,0.0,0.0,0.0,0.0,0.0,0.0,0.0,0.0,0.0,0.0,0.0,0.0,0.0,-2.5303,-2.5322,-2.537,-2.543,-2.5503,-2.5572,-2.5571,-2.557,-2.5579,-2.5625,-2.5615,-2.5575,-2.5613,-2.5618,-2.5577,-2.5493,-2.5449,-2.5409,-2.5322,-2.5437,-2.5707,-2.6351,-2.6871,-2.7351,-2.7986,-2.8736,-2.9448,-2.9382,-2.978,-3.0376,0.0,0.0,0.0,0.0,0.0,-1.9915,-2.0422,-2.05,-2.05,0.0,0.0,0.0,-2.05,-2.05,-2.05,-2.05,-2.05,-2.05,-2.05,-2.0503,-2.0492,-2.0492,-2.0754,-2.0882,-2.0841,-2.1078,-2.1015,-2.0633,-2.0953,-2.0712,-2.0001,-2.0337,-2.0316,-2.0012,-2.0012,-2.0012,-2.0031,-2.0372,-2.0505,-2.0668,-2.2427,-2.3454,-2.3971,-2.4752,-2.5243,-2.5437,0.0,0.0,-2.4052,-2.4418,-2.3361,-2.175,-2.1024,-2.0489,-2.0144,-2.0144,-2.018,-2.0233,-2.0233,-2.0269,-2.0312,-2.0312,0.0,0.0,-2.16,-2.21,-2.2677,0.0,-2.4101,-2.4736,0.0,0.0,0.0,0.0,0.0,0.0,0.0,0.0,0.0,0.0,0.0,0.0,0.0,-2.5303,-2.5303,-2.5303,-2.5303,-2.5331,-2.5434,-2.551,-2.557,-2.5646,-2.5646,-2.564,-2.5644,-2.5684,-2.5687,-2.5651,-2.5689,-2.5684,-2.5644,-2.5542,-2.5486,-2.5447,-2.5341,-2.5303,-2.5341,-2.5851,-2.6274,-2.6659,-2.7159,-2.8063,-2.9102,-2.9013,-2.9481,-3.0163,0.0,0.0,-2.0439,-2.0491,-2.0499,-2.05,-2.05,-2.05,-2.05,0.0,-2.05,-2.05,-2.05,-2.05,-2.05,-2.05,-2.05,-2.0539,-2.0636,-2.0636,-2.0636,-2.0636,-2.1328,-2.1636,-2.1469,-2.2197,-2.2192,-2.1407,-2.2214,-2.1763,-2.0164,-2.0986,-2.0914,-2.0156,-2.0262,-2.0232,-2.0194,-2.1009,-2.1407,-2.1646,-2.3354,-2.4094,-2.4361,-2.6028,-2.58,-2.4657,-2.5339,-2.5022,-2.4399,-2.5081,-2.4332,0.0,-2.224,-2.1358,-2.0589,-2.0293,-2.0318,-2.0408,-2.0331,-2.0312,-2.0312,-2.0312,-2.0312,0.0,-2.1581,-2.1812,-2.1966,0.0,0.0,-2.4899,0.0,0.0,0.0,0.0,0.0,0.0,0.0,0.0,0.0,0.0,0.0,0.0,-2.5303,-2.5303,-2.5303,-2.5303,-2.5303,-2.5385,-2.5502,-2.5573,-2.5634,-2.5703,-2.5703,-2.5703,-2.5703,-2.5703,-2.5703,-2.5703,-2.5703,-2.5703,-2.5703,-2.557,-2.5499,-2.5486,-2.537,-2.5303,-2.5303,-2.5303,-2.5774,-2.6467,-2.6467,-2.7486,-2.8956,-2.8772,-2.9423,-3.0367,0.0,-2.0461,-2.0483,-2.051,-2.0497,-2.05,-2.05,-2.05,-2.05,-2.05,-2.05,-2.05,-2.05,-2.05,-2.05,-2.05,-2.05,-2.0792,-2.1494,-2.1552,-2.1552,-2.1552,-2.1643,-2.1363,-2.0654,-2.1355,-2.1645,-2.1479,-2.2221,-2.2085,-2.1139,-2.196,-2.1871,-2.1075,-2.1776,-2.17,-2.1094,-2.1969,-2.2692,-2.34,-2.45,-2.5337,-2.6037,-2.7193,-2.7822,-2.8033,-2.7552,-2.6822,-2.6004,-2.5484,-2.5552,-2.5447,0.0,-2.2911,-2.2938,-2.0872,-2.0746,-2.1119,-2.0485,-2.0312,-2.0312,-2.0312,-2.0312,0.0,-2.0581,-2.0639,-2.085,0.0,-2.2004,-2.2466,-2.3158,0.0,0.0,0.0,0.0,0.0,0.0,0.0,0.0,0.0,0.0,0.0,-2.5303,-2.5303,-2.5303,-2.5303,-2.5409,-2.5505,-2.558,-2.5643,-2.5696,-2.5703,-2.5703,-2.5703,-2.5703,-2.5703,-2.5703,-2.5703,-2.5703,-2.5703,-2.5703,-2.5623,-2.5554,-2.5505,-2.5428,-2.5341,-2.5303,-2.5303,-2.5399,-2.5553,-2.5553,-2.6621,-2.8121,-2.8088,-2.906,-3.0398,-2.0444,-2.0472,-2.0496,-2.0496,-2.051,-2.05,-2.05,-2.05,-2.05,-2.05,-2.089,-2.1143,-2.1143,-2.1533,-2.1805,-2.1805,-2.1805,-2.1978,-2.2426,-2.2036,-2.1805,-2.1805,-2.1735,-2.1501,-2.1053,-2.1806,-2.1974,-2.1504,-2.2278,-2.2249,-2.1464,-2.2239,-2.2161,-2.1386,-2.2218,-2.2123,-2.1424,-2.2702,-2.3732,-2.4564,-2.5447,0.0,-2.7259,-2.8626,-2.8871,-2.8486,-2.8486,-2.7948,-2.714,-2.6408,-2.6062,0.0,-2.5744,-2.4966,-2.3764,0.0,-2.1831,-2.1889,-2.0639,-2.0312,-2.0312,-2.0312,0.0,0.0,0.0,-2.0312,-2.0408,-2.0831,-2.0908,-2.1043,-2.1466,0.0,0.0,0.0,0.0,0.0,0.0,0.0,0.0,0.0,0.0,0.0,-2.5303,-2.5303,-2.5303,-2.5341,-2.5466,-2.5563,-2.5601,-2.5652,-2.5703,-2.5703,-2.5703,-2.5703,-2.5703,-2.5703,-2.5703,-2.5703,-2.5703,-2.5703,-2.5703,-2.5625,-2.5556,-2.5495,-2.5427,-2.537,-2.5303,-2.5303,-2.5303,-2.5303,-2.5303,-2.637,-2.789,-2.789,-2.8967,-3.0398,-2.042,-2.0463,-2.05,-2.0519,-2.0503,-2.05,-2.05,-2.05,-2.0558,-2.0734,-2.1357,-2.1861,-2.2036,-2.2838,-2.3423,-2.3598,-2.3598,-2.3676,-2.3832,-2.3033,-2.2487,-2.2309,-2.2239,-2.2119,-2.1945,-2.2719,-2.2755,-2.2004,-2.2805,-2.2786,-2.2,-2.2766,-2.267,-2.1943,-2.2929,-2.2814,-2.2019,-2.3684,-2.4908,-2.5769,0.0,-2.7209,-2.8195,-2.9809,-2.9563,-2.8448,-2.8929,-2.8794,-2.8255,-2.7448,-2.6659,-2.6274,-2.761,-2.6563,0.0,0.0,0.0,-2.2677,0.0,0.0,0.0,0.0,0.0,-2.0312,0.0,0.0,0.0,-2.0312,-2.0312,0.0,0.0,0.0,0.0,0.0,0.0,0.0,0.0,0.0,0.0,0.0,0.0,0.0,0.0,-2.5091,-2.5188,-2.5428,-2.537,-2.5423,-2.56,-2.5668,-2.5703,-2.5703,-2.5703,-2.5703,-2.5703,-2.5703,-2.5703,-2.5703,-2.5703,-2.5703,-2.5703,-2.5644,-2.5574,-2.5503,-2.544,-2.537,-2.5303,-2.5303,-2.5303,-2.5303,-2.5303,-2.637,-2.789,-2.789,-2.8967,-3.0398,-2.051,-2.0494,-2.0513,-2.0572,-2.0536,-2.05,-2.05,-2.05,-2.0773,-2.1552,-2.1747,-2.2094,-2.2874,-2.3735,-2.4557,-2.534,-2.5398,-2.573,-2.6509,-2.5745,-2.4904,-2.414,-2.4038,-2.3611,-2.2778,-2.3557,-2.3901,-2.3802,-2.4611,-2.4572,-2.3726,-2.4581,-2.4524,-2.3784,-2.5417,-2.5234,-2.3812,-2.548,-2.6707,0.0,-2.7608,-2.8126,0.0,-3.0021,-3.0283,-3.0025,-2.9333,-2.9544,-2.989,0.0,-2.8179,-2.8313,0.0,-2.6505,-2.6851,-2.3716,0.0,0.0,0.0,0.0,0.0,0.0,-2.0312,0.0,0.0,0.0,-2.0312,-2.0312,0.0,0.0,0.0,0.0,0.0,0.0,0.0,0.0,0.0,0.0,0.0,0.0,0.0,0.0,0.0,-2.4326,-2.4662,-2.5515,-2.489,-2.481,-2.5638,-2.5703,-2.5703,-2.5703,-2.5703,-2.5703,-2.5703,-2.5703,-2.5703,-2.5703,-2.5703,-2.5703,-2.5703,-2.5684,-2.5613,-2.5503,-2.5498,-2.5428,-2.5303,-2.5303,-2.5303,-2.5303,-2.5303,-2.637,-2.789,-2.789,-2.8967,-3.0398,-2.0561,-2.0553,-2.0718,-2.1208,-2.1267,-2.1243,-2.1246,-2.124,-2.1572,-2.2445,-2.2991,-2.3458,-2.3809,-2.5056,-2.619,-2.7075,-2.7149,-2.7117,-2.7017,-2.6181,-2.5099,-2.3712,-2.3626,-2.3407,-2.2965,-2.3293,-2.345,-2.3454,-2.3755,-2.3978,-2.4127,-2.4441,-2.4422,-2.4204,-2.6464,-2.6773,-2.5702,-2.6872,-2.7873,0.0,0.0,-2.9159,0.0,-3.0263,-3.0398,-3.034,-2.9987,-3.0102,-3.0283,0.0,-2.8929,0.0,0.0,0.0,0.0,-2.5428,0.0,0.0,0.0,0.0,0.0,0.0,0.0,0.0,-2.0523,0.0,-2.0312,0.0,0.0,0.0,0.0,0.0,0.0,0.0,-2.0985,0.0,0.0,0.0,0.0,0.0,0.0,0.0,0.0,0.0,0.0,0.0,-2.4837,-2.4757,-2.5644,-2.5703,-2.5703,-2.5703,-2.5703,-2.5703,-2.5703,-2.5703,-2.5703,-2.5703,-2.5703,-2.5703,-2.5703,-2.5703,-2.5633,-2.5503,-2.5498,-2.5428,-2.5303,-2.5303,-2.5303,-2.5341,-2.587,-2.6813,-2.789,-2.789,-2.8967,-3.0398,-2.0915,-2.075,-2.0785,-2.1379,-2.1478,-2.1551,-2.1776,-2.1805,-2.2192,-2.3302,-2.4004,-2.4569,-2.5036,-2.6813,-2.8318,-2.9199,-2.9705,-2.9425,-2.8125,-2.7225,-2.6077,-2.4553,-2.4066,-2.3996,-2.4427,-2.3966,-2.3708,-2.3682,-2.3637,-2.3946,-2.4568,-2.4508,-2.4508,-2.4646,-2.6784,-2.7513,-2.721,0.0,-2.9139,-3.0346,-3.0114,-3.0221,-3.0559,-3.0744,-3.0948,-3.1083,-3.0602,-3.0583,-3.0679,-3.0198,-2.9256,0.0,-2.941,0.0,-2.7274,0.0,0.0,0.0,-2.2908,0.0,0.0,0.0,0.0,0.0,0.0,0.0,0.0,0.0,0.0,0.0,0.0,0.0,-1.9946,-1.9946,0.0,-2.0966,0.0,0.0,0.0,0.0,0.0,0.0,0.0,0.0,0.0,-2.5194,-2.4505,-2.4531,-2.5644,-2.5703,-2.5703,-2.5703,-2.5703,-2.5801,-2.6055,-2.6055,-2.6172,-2.6406,-2.6406,-2.6406,-2.6406,-2.6172,-2.5984,-2.5839,-2.5595,-2.5563,-2.5649,-2.5649,-2.5649,-2.5726,-2.6621,-2.7332,-2.7928,-2.814,-2.9159,-3.0398,-2.1698,-2.1185,-2.0616,-2.0624,-2.0644,-2.0896,-2.1681,-2.1802,-2.2422,-2.4121,-2.4374,-2.5017,-2.6634,-2.9121,-3.104,-3.1893,-3.3525,-3.3417,-3.0847,-2.9851,-2.8977,-2.8088,-2.6482,-2.6385,-2.8006,-2.6389,-2.5485,-2.5421,-2.5415,-2.5434,-2.546,-2.5453,-2.5453,-2.5492,-2.6435,-2.7299,-2.8113,-2.893,-3.0741,-3.2997,-3.2164,-3.1324,-3.0684,0.0,-3.2338,-3.28,-3.1102,0.0,0.0,-2.9698,-2.9151,0.0,0.0,0.0,0.0,0.0,0.0,0.0,0.0,0.0,0.0,-2.1696,0.0,0.0,0.0,0.0,-2.0054,0.0,0.0,0.0,0.0,-1.8472,-1.903,-1.903,-1.9773,0.0,0.0,0.0,0.0,0.0,0.0,0.0,0.0,0.0,0.0,-2.4307,-2.3632,-2.3882,-2.5605,-2.5703,-2.5703,-2.5703,-2.5703,-2.6113,-2.6953,-2.6953,-2.7383,-2.8223,-2.8223,-2.8223,-2.8184,-2.7344,-2.6882,-2.6719,-2.5873,-2.5909,-2.6563,-2.6563,-2.6563,-2.664,-2.7525,-2.7871,-2.7986,-2.8775,-2.9621,-3.0398,-2.2535,-2.2456,-2.2438,-2.3008,-2.2637,-2.2734,-2.4156,-2.3893,-2.4744,0.0,-2.8633,0.0,0.0,-3.3364,-3.4359,-3.4655,-3.469,-3.3587,-3.0962,-2.9985,-2.8876,-2.7464,-2.6307,-2.6482,-2.8166,-2.6548,-2.5658,-2.5625,-2.5593,-2.5599,-2.5625,-2.5593,-2.5599,-2.5683,-2.7109,-2.8534,0.0,0.0,0.0,0.0,0.0,-3.2506,-3.3151,0.0,0.0,-3.1514,-3.2081,-3.2454,0.0,-3.1349,-3.0614,-3.0117,-2.979,-2.9119,-2.8525,-2.881,-2.8475,0.0,0.0,0.0,-2.6414,-2.328,0.0,0.0,0.0,0.0,0.0,0.0,0.0,0.0,0.0,-1.8414,-1.8992,-1.9004,-1.9735,-2.0312,0.0,0.0,0.0,0.0,0.0,0.0,0.0,0.0,0.0,-2.4274,-2.3951,-2.4282,-2.5625,-2.5703,-2.5703,-2.5703,-2.5703,-2.6113,-2.6992,-2.6992,-2.7441,-2.8301,-2.8301,-2.8301,-2.8262,-2.7402,-2.7229,-2.7612,-2.6736,-2.6783,-2.7467,-2.7467,-2.7121,-2.6736,-2.814,-2.8371,-2.8005,-2.8794,-2.964,-3.0398,-2.3398,-2.332,-2.3301,-2.3848,-2.3496,-2.3613,0.0,0.0,0.0,0.0,-3.1355,0.0,-3.4911,0.0,-3.6805,0.0,-3.6528,-3.5034,-3.1491,-3.1315,-3.0455,-2.8443,-2.7807,-2.8314,-3.0006,-2.7772,-2.6599,-2.6599,-2.595,-2.5658,-2.5699,-2.5654,-2.5658,-2.5757,-2.7125,-2.8887,-3.0825,-3.1135,-3.2415,0.0,0.0,-3.2727,0.0,0.0,-3.1499,-3.2134,0.0,-3.3421,-3.348,-3.231,-3.1562,-3.1152,-3.1079,-3.0115,-2.9186,-3.0046,-2.967,-2.8751,-2.7584,-2.8081,0.0,-2.511,-2.559,0.0,-2.3565,0.0,0.0,0.0,0.0,0.0,0.0,-1.8255,-1.8929,-1.8631,-1.9535,-2.0312,0.0,-2.0312,0.0,0.0,0.0,0.0,0.0,0.0,-2.2202,-2.3777,-2.3764,-2.4139,0.0,0.0,-2.5703,-2.5703,-2.5703,-2.6269,-2.7441,-2.7461,-2.8066,-2.9219,-2.9219,-2.9219,-2.9199,-2.832,-2.8166,-2.8514,-2.7644,-2.7665,-2.8332,-2.8332,-2.8005,-2.7621,-2.9025,-2.9063,-2.8429,-2.9256,-2.9929,-3.0398,0.0,-2.3848,-2.332,0.0,-2.3301,0.0,0.0,0.0,-2.8066,0.0,-3.2637,-3.4374,-3.6241,-3.7884,-3.8491,-3.7639,-3.8995,-3.7753,-3.2686,-3.3835,-3.3583,-3.1102,-3.0875,-3.1619,-3.3356,-2.9987,-2.8205,-2.8205,-2.6521,-2.5718,-2.5757,-2.5718,-2.5738,-2.5855,-2.6576,-2.8357,-3.0849,-3.1677,-3.3526,-3.5646,-3.3155,-3.2154,-3.2162,-3.2201,-3.3213,-3.4501,-3.3717,-3.3922,-3.4309,-3.2608,-3.2069,-3.2124,-3.202,-3.1454,-3.0975,-3.169,-3.1323,-3.032,-2.8674,-2.824,-2.8018,-2.7106,0.0,0.0,0.0,0.0,-2.2708,0.0,0.0,0.0,0.0,0.0,-1.8924,-1.8028,-1.92,-2.0246,-2.0246,-2.0246,-2.0265,0.0,0.0,0.0,0.0,-2.086,-2.1175,-2.2886,-2.3036,-2.3476,0.0,0.0,-2.5664,-2.5703,-2.5703,-2.6543,-2.8281,-2.8301,-2.918,-3.0898,-3.0898,-3.0898,-3.0879,-3.0,-2.9554,-2.9415,-2.854,-2.8537,-2.9159,-2.9159,-2.914,-2.9179,-3.0063,-2.989,-2.9256,-3.0102,-3.0398,-3.0398,-2.5195,-2.5195,-2.5254,0.0,-2.5488,-2.5566,0.0,0.0,0.0,0.0,-3.6601,-3.8652,-4.2285,-4.2518,-4.2048,-4.1168,-4.0351,0.0,0.0,0.0,0.0,-3.3723,-3.1831,-3.1612,-3.3356,-2.9982,-2.8203,-2.8205,-2.6521,-2.6011,-2.6576,-2.5972,-2.6361,-2.755,-2.7102,-2.8353,-3.0821,-3.1042,-3.227,-3.4017,-3.3344,-3.3063,0.0,0.0,-3.4291,-3.4734,-3.5149,-3.5448,-3.5441,-3.4347,-3.3988,-3.388,-3.3211,-3.2869,-3.2637,-3.2241,-3.1965,-3.1555,-3.0461,-3.0187,-2.9817,-2.8296,-2.8393,-2.8467,0.0,0.0,0.0,0.0,0.0,0.0,0.0,0.0,0.0,-1.9085,-1.915,-1.9415,-1.9415,-1.9415,0.0,-2.0227,0.0,0.0,-2.0656,-2.123,-2.2006,-2.3003,-2.272,-2.3339,-2.5254,0.0,0.0,-2.5684,-2.5703,-2.6543,-2.8281,-2.8301,-2.918,-3.0898,-3.0898,-3.0898,-3.0879,-3.0,-2.9847,-3.0244,-2.9371,-2.9394,-3.0083,-3.0083,-2.9679,-2.9179,-3.0063,-3.0275,-3.0102,-3.0321,-3.0398,-3.0494,-2.6172,0.0,0.0,-2.793,0.0,0.0,-2.9336,-2.9434,0.0,-3.6601,-3.8398,0.0,-4.3027,-4.3555,-4.3359,-4.248,-4.0879,0.0,-3.6875,0.0,0.0,-3.4172,-3.3443,-3.3533,-3.4512,-3.1872,-3.0099,-2.934,-2.7636,-2.6658,-2.6361,-2.6264,-2.6732,-2.7647,-2.792,-2.9074,-3.0895,-3.2432,-3.3428,-3.4029,-3.4805,-3.51,0.0,-3.5656,-3.6065,-3.643,-3.6539,-3.6328,-3.5879,-3.498,-3.4707,-3.4609,-3.4121,-3.3711,-3.3398,-3.3301,-3.3027,-3.2617,-3.2129,-3.1992,-3.1758,-3.0762,-3.0625,-3.0371,-2.8963,-2.8063,-2.7258,0.0,0.0,0.0,0.0,0.0,0.0,-2.057,-2.0249,-2.0095,-1.9722,0.0,0.0,0.0,-2.0366,0.0,0.0,-2.0966,-2.1646,-2.247,-2.2277,-2.2683,0.0,0.0,0.0,-2.5117,-2.5508,-2.6543,-2.8281,-2.8301,-2.918,-3.0898,-3.0898,-3.0898,-3.0879,-3.0391,-3.0335,-3.0574,-3.0075,-3.0071,-3.0398,-3.0398,-3.0121,-2.9717,-3.0217,-3.0398,-3.0398,-3.0398,-3.0398,-3.0456,0.0,0.0,0.0,0.0,0.0,0.0,0.0,-3.1836,0.0,-3.7441,0.0,-4.0605,-4.1582,-4.2793,-4.3223,-4.2461,0.0,-3.8945,-3.666,-3.7109,-3.6462,-3.4186,-3.5523,-3.6348,-3.6348,-3.4629,-3.2886,-3.1145,-2.9281,-2.7577,-2.605,-2.6634,-2.7024,-2.7316,-2.8812,-3.0102,0.0,-3.4365,-3.5344,-3.5017,-3.6632,-3.7292,-3.7312,-3.744,-3.7932,-3.8495,-3.7731,-3.6914,-3.6035,-3.5156,-3.4863,-3.4863,-3.4863,-3.4355,-3.3867,-3.4512,-3.416,-3.3555,-3.3437,-3.3398,-3.3398,-3.3398,-3.2871,-3.2168,-3.1406,-3.0059,-2.8711,-2.7851,-2.707,-2.6211,0.0,0.0,0.0,-2.2143,-2.1799,0.0,0.0,0.0,0.0,0.0,0.0,0.0,0.0,0.0,-2.0817,-2.1739,-2.1764,-2.1889,0.0,0.0,0.0,-2.4551,-2.543,0.0,-2.8105,0.0,-2.9238,-3.0723,-3.0859,-3.0898,-3.0898,-3.0898,-3.0799,-3.06,-3.0597,-3.0525,-3.0398,-3.0398,-3.0398,-3.0398,-3.0398,-3.0398,-3.0398,-3.0398,-3.0398,-3.0417,0.0,0.0,0.0,0.0,0.0,-3.3867,-3.5879,-3.6797,-3.8281,-4.1133,-4.1777,-4.2578,-4.416,-4.3301,-4.2578,-4.2402,-4.0879,0.0,0.0,0.0,0.0,-3.7713,-3.7988,-3.8144,-3.8144,-3.6445,-3.4685,-3.2946,-3.0485,-2.8747,-2.7745,-2.718,-2.7667,-2.9065,-2.9357,-3.0784,-3.2976,-3.36,0.0,-3.5851,-3.6883,-3.7304,-3.738,-3.8104,-3.847,-3.8573,-3.8437,-3.7812,-3.6934,-3.6074,-3.5762,-3.5762,-3.5762,-3.5664,-3.543,-3.4863,-3.459,-3.4316,-3.3594,-3.3398,-3.3398,-3.3398,-3.3281,-3.3144,-3.3008,-3.2734,-3.2285,-3.1465,-3.1172,-3.0351,-2.8047,0.0,0.0,0.0,0.0,0.0,0.0,0.0,0.0,0.0,0.0,-2.2032,0.0,0.0,0.0,-2.1811,-2.1227,-2.1739,0.0,0.0,0.0,0.0,-2.6328,0.0,0.0,0.0,-2.9531,-2.9844,-3.0566,-3.0898,-3.0898,-3.0898,-3.0825,-3.0681,-3.0625,-3.0564,-3.0487,-3.0417,-3.0398,-3.0398,-3.0398,-3.0398,-3.0398,-3.0398,-3.0398,-3.0494,0.0,0.0,0.0,0.0,0.0,0.0,0.0,-4.1445,0.0,-4.1855,-4.1777,-4.1914,-4.2305,-4.2383,-4.2402,-4.2402,-4.0879,-3.9902,-3.9902,-3.9082,-3.8594,-3.8594,-3.8594,-3.8594,-3.8594,-3.7773,-3.6052,-3.34,0.0,-3.0384,-2.8193,-2.8232,-2.8699,-2.9557,-3.0925,-3.2211,0.0,0.0,0.0,-3.7459,-3.8785,-3.9312,-3.9375,-3.9797,-3.9956,-3.9883,-3.9434,-3.9004,-3.8457,-3.7129,-3.6367,-3.5996,-3.5996,-3.5996,-3.5918,-3.5508,-3.5371,-3.5273,-3.4863,-3.4746,-3.4746,-3.4746,-3.4414,-3.4062,-3.4062,-3.3398,-3.2793,-3.2812,-3.2129,-3.0996,-2.9297,-2.7226,0.0,0.0,0.0,0.0,0.0,0.0,-2.4742,0.0,0.0,0.0,0.0,0.0,0.0,0.0,0.0,-2.1323,0.0,0.0,0.0,0.0,0.0,0.0,0.0,0.0,0.0,-3.0273,-3.0703,-3.0898,-3.0898,-3.0898,-3.0825,-3.0703,-3.0675,-3.0583,-3.0487,-3.0417,-3.0398,-3.0398,-3.0398,-3.0398,-3.0398,-3.0398,-3.0398,-3.0456,0.0,-3.3711,0.0,0.0,-3.8555,0.0,-4.2168,-4.4629,-4.5332,-4.2637,-4.1953,-4.1465,-4.0781,-4.1562,-4.2148,-4.2148,-4.0762,-3.9902,-3.9902,-3.9258,-3.8887,-3.8887,-3.9043,-3.9141,-3.9141,-3.9141,-3.7636,0.0,0.0,0.0,0.0,-2.9347,-2.9799,0.0,0.0,0.0,0.0,0.0,-3.8814,-3.9263,-4.0642,-4.1191,-4.1191,-4.1191,-4.1191,-4.1113,-4.043,-4.0059,-3.9687,-3.832,-3.7148,-3.623,-3.6055,-3.5996,-3.5996,-3.5996,-3.5996,-3.5996,-3.5996,-3.5996,-3.5996,-3.5996,-3.5488,-3.498,-3.498,-3.3965,-3.3086,-3.3359,-3.207,-3.0625,-2.9766,-2.8887,0.0,0.0,0.0,0.0,0.0,0.0,0.0,0.0,0.0,0.0,-2.2519,0.0,0.0,0.0,0.0,-2.125,-2.2109,-2.2812,0.0,0.0,0.0,-2.7246,-2.7734,0.0,-3.0137,0.0,-3.0801,-3.0898,-3.0898,-3.0898,-3.084,-3.0742,-3.0711,-3.0616,-3.0506,-3.0448,-3.0398,-3.0398,-3.0398,-3.0398,-3.0398,-3.0398,-3.0513,-3.0679,0.0,0.0,0.0,0.0,0.0,0.0,-4.2266,-4.4629,-4.6191,-4.5859,-4.4453,-4.3437,-4.3359,-4.2129,-4.1308,-4.1308,-4.0449,-3.9902,-3.9902,-3.9824,-3.9785,-3.9785,-4.0547,-4.0957,-4.0957,-4.0957,-4.0019,0.0,0.0,-3.36,0.0,-3.0204,-3.0755,0.0,0.0,0.0,0.0,-3.8454,-3.9504,-4.0976,-4.1133,-4.1191,-4.1191,-4.1191,-4.1191,-4.1191,-4.1113,-4.0566,-3.9883,-3.9707,-3.8555,-3.7031,-3.625,-3.5996,-3.5996,-3.5996,-3.5996,-3.5996,-3.5996,-3.5996,-3.5996,-3.5996,-3.5937,-3.5879,-3.5879,-3.5762,-3.5215,-3.3711,-3.207,-3.0625,-2.9766,-2.8887,-2.8008,0.0,0.0,0.0,0.0,0.0,-2.9805,-2.8125,0.0,0.0,0.0,-2.1991,0.0,0.0,-2.1777,-2.2129,-2.2949,-2.3125,-2.3574,-2.4375,0.0,-2.666,-2.5957,-2.916,-3.043,-2.9726,-3.0527,-3.0898,-3.0898,-3.0898,-3.0898,-3.0879,-3.076,-3.0614,-3.0506,-3.0487,-3.0448,-3.0398,-3.0398,-3.0398,-3.0398,-3.0398,-3.091,-3.1583,0.0,0.0,0.0,0.0,0.0,0.0,0.0,-4.5625,-4.6308,-4.6308,-4.5234,-4.4082,-4.3027,-4.2324,-4.1738,-4.123,-4.0879,-4.0684,-4.0684,-4.0684,-4.0684,-4.0684,-4.1016,-4.1191,-4.1191,-4.1191,-4.0351,0.0,0.0,0.0,0.0,0.0,0.0,0.0,0.0,-3.73,-3.8663,-3.9717,-4.0563,-4.1191,-4.1191,-4.1191,-4.1191,-4.1191,-4.1191,-4.1191,-4.1191,-4.0976,-4.0605,-4.0078,-3.873,-3.7246,-3.6894,-3.6426,-3.5996,-3.5996,-3.5996,-3.5996,-3.5996,-3.5996,-3.5996,-3.5996,-3.5996,-3.5996,-3.5996,-3.5605,-3.5176,-3.5,-3.4004,-3.2773,-3.1406,-3.0449,-2.9746,0.0,0.0,0.0,0.0,0.0,0.0,-2.8516,0.0,-2.6133,0.0,0.0,0.0,0.0,0.0,-2.1484,-2.2324,-2.3359,-2.4062,-2.4394,0.0,-2.8144,-2.7266,-2.9687,-3.0723,-3.0371,-3.0723,-3.0898,-3.0898,-3.0898,-3.0898,-3.0898,-3.0762,-3.0673,-3.0614,-3.0588,-3.0544,-3.0583,-3.1052,-3.0917,-3.0583,-3.1545,-3.1845,-3.1838,-4.2266,0.0,-4.2461,0.0,-4.4258,-4.457,-4.6074,-4.6308,-4.6308,-4.6308,-4.5547,-4.4433,-4.2949,-4.2558,-4.207,-4.1269,-4.1191,-4.1191,-4.1191,-4.1191,-4.1191,-4.1191,-4.1191,0.0,-4.1191,-4.1191,-4.0605,-3.9355,-3.7614,0.0,0.0,0.0,0.0,0.0,-3.8047,-3.8887,-3.9453,-4.0684,-4.1191,-4.1191,-4.1191,-4.1191,-4.1191,-4.1191,-4.1191,-4.1191,-4.1191,-4.1191,-4.1113,-4.0488,-3.9297,-3.7988,-3.7461,-3.6875,-3.6328,-3.6074,-3.5996,-3.5995,-3.5985,-3.5966,-3.5962,-3.5975,-3.5964,-3.5966,-3.5966,-3.5515,-3.5176,-3.5547,-3.4922,-3.3887,-3.2461,-3.1699,-3.1035,-3.0254,0.0,0.0,0.0,0.0,0.0,-2.8867,-2.7695,-2.6855,-2.6504,-2.4141,0.0,0.0,0.0,0.0,-2.2617,-2.3769,0.0,0.0,0.0,0.0,0.0,-3.0039,-3.0898,-3.0898,-3.0898,-3.0898,-3.0898,-3.0898,-3.0898,-3.0898,-3.0801,-3.0742,-3.0702,-3.0658,-3.078,-3.1042,-3.1611,-3.1441,-3.1071,-3.2461,-3.2666,-3.2331,-4.4785,-4.4258,-4.4219,-4.5957,-4.5566,-4.5273,-4.6172,-4.6308,-4.6308,-4.6308,-4.5547,-4.4668,-4.3789,-4.293,-4.207,-4.1269,-4.1191,-4.1191,-4.1191,-4.1191,-4.1191,0.0,0.0,-4.1191,-4.1191,-4.1191,-4.1191,-4.1172,0.0,0.0,-3.8496,0.0,-3.6894,-3.8574,-3.8594,-3.9551,-4.1172,-4.1191,-4.1191,-4.1191,-4.1191,-4.1191,-4.1191,-4.1191,-4.1191,-4.1191,-4.1191,-4.1191,-4.1191,-4.1191,-4.0605,-3.957,-3.7832,-3.7285,-3.7129,-3.625,-3.5996,-3.5984,-3.5905,-3.5886,-3.5894,-3.5903,-3.5898,-3.5886,-3.5886,-3.595,-3.5742,-3.4883,-3.4023,-3.3164,-3.2344,-3.2187,-3.1348,-2.875,0.0,0.0,0.0,0.0,0.0,-2.9687,-2.8047,-2.7324,-2.8184,-2.5898,0.0,0.0,0.0,0.0,0.0,0.0,0.0,-2.6914,-2.7832,0.0,-2.8301,-3.0039,-3.0898,-3.0898,-3.0898,-3.0898,-3.0898,-3.0898,-3.0898,-3.0898,-3.0898,-3.082,-3.0703,-3.0703,-3.1172,-3.1896,-3.1896,-3.1881,-3.1981,-3.2863,-3.3191,-3.3318,-4.582,-4.5664,-4.5644,-4.6191,-4.6074,-4.5976,-4.6269,-4.6308,-4.6308,-4.6308,-4.5547,-4.4668,-4.3808,-4.293,-4.207,0.0,-4.1191,-4.1191,0.0,-4.1191,-4.1191,-4.1191,-4.1191,-4.1191,-4.1191,-4.1191,-4.1191,-4.1191,0.0,0.0,0.0,-3.8027,-3.8691,-4.0371,-4.0371,-4.0684,-4.1191,-4.1191,-4.1191,-4.1191,-4.1191,-4.1191,-4.1191,-4.1191,-4.1191,-4.1191,-4.1191,-4.1191,-4.1191,-4.1191,-4.1016,-4.0488,-3.873,-3.7773,-3.7246,-3.6973,-3.6426,-3.5941,-3.592,-3.5834,-3.5753,-3.5756,-3.5766,-3.5756,-3.5756,-3.5788,-3.5719,-3.5446,-3.5149,-3.472,-3.3916,-3.3282,-3.2409,-3.0981,-3.0751,0.0,0.0,0.0,0.0,-2.8828,-2.7695,-2.7344,0.0,-2.6465,0.0,0.0,0.0,0.0,0.0,0.0,0.0,0.0,-2.9004,0.0,-2.9199,-3.0332,-3.0898,-3.0898,-3.0898,-3.0898,-3.0898,-3.0898,-3.0898,-3.0898,-3.0898,-3.0879,-3.0879,-3.1484,-3.1873,-3.2215,-3.3309,-3.3375,-3.2946,-3.3782,-3.411,-3.4191,-4.6308,-4.6308,-4.6308,-4.6308,-4.6308,-4.6308,-4.6308,-4.6016,-4.5801,-4.5801,-4.4766,-4.3828,-4.3262,-4.2461,0.0,-4.123,-4.1191,-4.1191,-4.1191,-4.1191,-4.1191,-4.1191,-4.1191,-4.1191,-4.1191,0.0,0.0,-4.1191,-4.0117,-3.957,-3.957,-3.957,-4.0156,-4.1191,-4.1191,-4.1191,-4.1191,-4.1191,-4.1191,-4.1191,-4.1191,-4.1191,-4.1191,-4.1191,-4.1191,-4.1191,-4.1191,-4.1191,-4.1191,-4.1191,-4.1191,-4.1016,-3.9922,-3.875,-3.7656,-3.6992,-3.6395,-3.5921,-3.5856,-3.5757,-3.5699,-3.568,-3.5659,-3.5679,-3.5698,-3.5679,-3.5679,-3.5698,-3.5698,-3.5349,-3.4225,-3.3574,-3.2807,-3.1615,-3.0989,-3.0556,-3.0259,0.0,0.0,0.0,0.0,0.0,0.0,-2.7696,-2.7403,0.0,0.0,0.0,0.0,0.0,0.0,-2.8457,-3.0059,0.0,-3.0098,-3.0625,-3.0898,-3.0898,-3.0898,-3.0898,-3.0918,-3.123,-3.1211,-3.0918,-3.125,-3.1191,-3.0937,-3.1484,-3.1894,-3.2305,-3.3301,-3.3555,-3.3437,-3.4267,-3.4592,-3.4672,-4.6308,-4.6308,0.0,0.0,-4.6308,0.0,-4.6308,-4.5566,-4.5,-4.5,-4.3476,-4.2402,-4.2402,-4.1738,-4.1269,-4.1191,0.0,0.0,0.0,-4.125,-4.1289,-4.1289,-4.1348,-4.1348,-4.1289,-4.1289,-4.1269,-4.1191,-4.1191,-4.1191,-4.1191,-4.1191,-4.1191,-4.1191,-4.1191,-4.1191,-4.1191,-4.1191,-4.1191,-4.1191,-4.1191,-4.1191,-4.1191,-4.1191,-4.1191,-4.1191,-4.1191,-4.1191,-4.1191,-4.1191,-4.1191,-4.1191,-4.1133,-4.0,-3.8359,-3.668,-3.6094,-3.5947,-3.5753,-3.5694,-3.568,-3.5622,-3.5603,-3.5622,-3.568,-3.5641,-3.5622,-3.568,-3.5699,-3.518,-3.3577,-3.3231,-3.2634,-3.0948,-3.0583,-3.0249,-2.9485,0.0,0.0,0.0,0.0,0.0,0.0,-2.9292,-2.9642,0.0,0.0,0.0,0.0,0.0,-2.8455,-3.0898,-3.0976,-3.0976,-3.0976,-3.0918,-3.0898,-3.0898,-3.0957,-3.0996,-3.1016,-3.1894,-3.1816,-3.1035,-3.1855,-3.1719,-3.0918,-3.1035,-3.1543,-3.2305,-3.2422,-3.293,-3.3672,-3.4414,-3.4746,-3.4898,0.0,0.0,-4.6308,-4.6308,-4.6308,-4.6308,-4.6308,-4.5566,-4.5,-4.5,-4.3476,-4.2402,-4.2402,-4.2226,-4.1875,-4.125,-4.1191,-4.1191,-4.1191,-4.1777,-4.2129,-4.2129,-4.2754,-4.2793,-4.2129,-4.2129,-4.1816,-4.1191,-4.1191,-4.1191,-4.1191,-4.1191,-4.1191,-4.1191,-4.1191,-4.1191,-4.1191,-4.1191,-4.1191,-4.1191,-4.1191,-4.1191,-4.1191,-4.1191,-4.1191,-4.1191,-4.1191,-4.1191,-4.1191,-4.1191,-4.1191,-4.1074,-4.043,-3.9922,-3.9375,-3.8301,-3.7012,-3.5894,-3.5742,-3.5654,-3.5622,-3.5545,-3.5526,-3.5545,-3.5545,-3.5545,-3.5545,-3.5545,-3.5565,-3.5218,-3.416,-3.341,-3.2622,-3.1602,-3.0371,-2.9462,-2.9265,-2.8763,0.0,0.0,-2.8106,-2.8413,-2.9224,-2.9301,-2.9378,0.0,0.0,0.0,0.0,-3.0684,-3.1017,-3.1646,-3.1666,-3.1651,-3.1651,-3.1047,-3.0801,-3.0918,-3.1562,-3.1894,-3.1914,-3.2734,-3.2676,-3.1894,-3.2109,-3.1719,-3.0996,-3.2285,-3.293,-3.3242,-3.457,-3.5215,-3.5332,-3.4863,-3.5117,-3.5625,-4.6308,-4.6308,-4.6308,-4.6308,-4.6308,-4.6172,-4.5762,-4.4961,-4.4258,-4.3867,-4.2988,-4.2402,-4.2402,-4.2754,-4.2812,-4.2383,-4.1973,-4.1758,-4.1758,-4.2168,-4.2578,-4.2988,-4.3457,-4.3476,-4.3008,-4.2988,-4.2773,-4.2344,-4.1933,-4.1758,-4.1738,-4.1367,-4.1191,-4.1191,-4.1191,-4.1191,-4.1191,-4.1191,-4.1191,-4.1191,-4.1191,-4.1191,-4.1191,-4.1191,-4.1191,-4.1191,-4.1191,-4.1191,-4.1191,-4.1191,-4.1191,-4.1113,-4.0644,-4.0187,-3.9714,-3.924,-3.7884,-3.6411,-3.5824,-3.5647,-3.5622,-3.5526,-3.5493,-3.5493,-3.5493,-3.5493,-3.5493,-3.5493,-3.5493,-3.5238,-3.4353,-3.3487,-3.2641,-3.1833,-2.9948,-2.8728,-2.9113,-2.8497,0.0,-2.9063,-2.9502,-3.0067,-3.0867,-3.0943,-3.0943,-3.0943,0.0,0.0,-3.1642,-3.2481,-3.2805,-3.2512,-3.2493,-3.2309,-3.1909,-3.1461,-3.149,-3.1962,-3.2458,-3.2695,-3.2734,-3.3594,-3.3535,-3.2773,-3.3164,-3.2851,-3.2109,-3.3027,-3.3398,-3.3496,-3.4434,-3.5059,-3.5351,-3.4863,-3.5254,-3.5937,-4.6308,-4.6191,-4.6094,-4.6094,-4.5996,-4.5664,-4.4922,-4.4062,-4.3281,-4.2676,-4.248,-4.2441,-4.2578,-4.3379,-4.3848,-4.3711,-4.3105,-4.2656,-4.248,-4.2676,-4.3105,-4.3808,-4.4004,-4.4023,-4.3906,-4.3769,-4.3691,-4.3691,-4.2969,-4.2598,-4.2578,-4.1894,-4.1504,-4.1387,-4.1387,-4.1308,-4.1191,-4.1191,-4.1191,-4.1191,-4.1191,-4.1191,-4.1191,-4.1191,-4.1191,-4.1191,-4.1191,-4.1191,-4.1191,-4.1191,-4.1191,-4.1191,-4.1191,-4.059,-3.9858,-3.9723,-3.8734,-3.7382,-3.6122,-3.5738,-3.5641,-3.5545,-3.5493,-3.5493,-3.5493,-3.5493,-3.5493,-3.5493,-3.5493,-3.5238,-3.4353,-3.3603,-3.2756,-3.1679,-2.9486,-2.8179,-2.8986,0.0,-2.8563,-3.039,-3.1371,-3.216,-3.2833,-3.2891,-3.2891,-3.2891,-3.3026,-3.3103,0.0,-3.391,-3.4147,-3.3574,-3.3421,-3.2929,-3.2081,-3.2076,-3.2443,-3.3208,-3.3388,-3.3486,-3.3513,-3.4453,-3.4414,-3.3613,-3.4375,-3.4219,-3.3418,-3.3535,-3.3594,-3.3613,-3.373,-3.4238,-3.4902,-3.4902,-3.5351,-3.5996,-4.6308,-4.5703,-4.5195,-4.5195,-4.459,-4.4062,-4.3926,-4.3164,-4.2812,-4.3418,-4.2851,-4.2676,-4.3418,-4.4277,-4.4492,-4.3769,-4.4043,-4.3848,-4.2891,-4.3945,-4.4551,-4.4453,-4.5371,-4.5547,-4.4805,-4.4082,-4.3691,-4.3691,-4.3555,-4.3496,-4.3496,-4.3379,-4.293,-4.2207,-4.2207,-4.1836,-4.1191,-4.1191,-4.1191,-4.1191,-4.1191,-4.1191,-4.1191,-4.1191,-4.1191,-4.1191,-4.1191,-4.1191,-4.1191,-4.1191,-4.1191,-4.1191,-4.1191,-4.1025,-4.0639,-3.9838,-3.9435,-3.8858,-3.7166,-3.6128,-3.5545,-3.5526,-3.5493,-3.5493,-3.5493,-3.5493,-3.5493,-3.5493,-3.5493,-3.5238,-3.4353,-3.4083,-3.3256,-3.0968,-2.9083,-2.8179,-2.8986,0.0,-2.8794,-3.1218,-3.2218,-3.2756,-3.2891,-3.2891,-3.2891,-3.2891,-3.3583,-3.3987,-3.3987,-3.4814,-3.5243,-3.5147,-3.4436,-3.3641,-3.2839,-3.2832,-3.2954,-3.3211,-3.3959,-3.4313,-3.4358,-3.5284,-3.5234,-3.4414,-3.4629,-3.4219,-3.3457,-3.4199,-3.4492,-3.457,-3.5312,-3.5684,-3.5801,-3.5801,-3.5879,-3.5996,-4.6308,-4.5976,-4.5547,-4.5078,-4.4043,-4.3203,-4.3027,-4.2656,-4.2539,-4.2949,-4.3066,-4.3437,-4.4316,-4.5176,-4.5547,-4.5137,-4.5351,-4.5293,-4.4766,-4.4766,-4.5,-4.5488,-4.6016,-4.6113,-4.5703,-4.5312,-4.5098,-4.5098,-4.4629,-4.4394,-4.4394,-4.3926,-4.3496,-4.3105,-4.3105,-4.2637,-4.1855,-4.1855,-4.1601,-4.1191,-4.1191,-4.1191,-4.1191,-4.1191,-4.1191,-4.1191,-4.1191,-4.1191,-4.1191,-4.1191,-4.1156,-4.1088,-4.1088,-4.0986,-4.0754,-4.0315,-3.9508,-3.8473,-3.7224,-3.6858,-3.6642,-3.5738,-3.5834,-3.6045,-3.5603,-3.5493,-3.5493,-3.5493,-3.5493,-3.5391,-3.4968,-3.4526,-3.3526,-3.1448,-3.0063,0.0,0.0,-2.9871,-3.0717,-3.2795,-3.3795,-3.4295,-3.4295,-3.4295,-3.4295,-3.4295,-3.468,-3.4911,-3.4911,-3.5276,-3.5493,-3.5493,-3.4641,-3.4237,-3.4353,-3.3891,-3.3903,-3.4447,-3.4883,-3.5091,-3.5106,-3.5577,-3.5574,-3.5197,-3.5309,-3.5117,-3.4785,-3.5215,-3.5391,-3.5449,-3.584,-3.5996,-3.5996,-3.5996,-3.5996,-3.5996,-4.6308,-4.6133,-4.5781,-4.5117,-4.3945,-4.293,-4.2461,-4.2402,-4.2461,-4.2676,-4.3281,-4.4101,-4.5195,-4.5898,-4.6308,-4.6308,-4.6308,-4.6308,-4.6308,-4.5488,-4.5391,-4.6269,-4.6308,-4.6308,-4.6308,-4.6308,-4.6308,-4.6308,-4.5625,-4.5293,-4.5293,-4.4629,-4.4199,-4.3984,-4.3789,-4.3223,-4.2383,-4.2207,-4.1758,-4.1191,-4.1191,-4.1191,-4.1191,-4.1191,-4.1191,-4.1191,-4.1191,-4.1191,-4.1191,-4.1191,-4.111,-4.0985,-4.0985,-4.085,-4.0696,-4.0696,-3.9681,-3.8373,-3.7416,-3.7584,-3.77,-3.6411,-3.6546,-3.6796,-3.5968,-3.5795,-3.5738,-3.5545,-3.5493,-3.5493,-3.5493,-3.4949,-3.3949,-3.2256,0.0,0.0,0.0,-3.141,-3.241,-3.4276,-3.5084,-3.5493,-3.5493,-3.568,-3.5795,-3.5795,-3.5968,-3.6084,-3.6084,-3.6084,-3.5988,-3.5795,-3.4949,-3.4814,-3.5474,-3.4834,-3.493,-3.5795,-3.5641,-3.568,-3.5853,-3.5738,-3.5685,-3.5682,-3.5792,-3.586,-3.5852,-3.5911,-3.593,-3.593,-3.5957,-3.5956,-3.5929,-3.5974,-3.5957,-3.5932,-4.6308,-4.5644,-4.5078,-4.5019,-4.4258,-4.3359,-4.2539,-4.2402,-4.2695,-4.3496,-4.3652,-4.4336,-4.6016,-4.6269,-4.6308,-4.6308,-4.6308,-4.6308,-4.6308,-4.6211,-4.6211,-4.6308,-4.6308,-4.6308,-4.6308,-4.6308,-4.6308,-4.6308,-4.623,-4.6191,-4.6191,-4.6133,-4.5683,-4.4863,-4.4062,-4.3223,-4.2344,-4.1601,-4.125,-4.1191,-4.1191,-4.1191,-4.1191,-4.1191,-4.1191,-4.1191,-4.1191,-4.1191,-4.1191,-4.1191,-4.111,-4.0985,-4.0985,-4.085,-4.0696,-4.0696,-4.0523,-3.9969,-3.8354,-3.7969,-3.7969,-3.7853,-3.7853,-3.768,-3.6815,-3.6622,-3.6411,-3.5661,-3.5493,-3.5493,-3.5493,-3.5449,-3.4853,-3.3083,0.0,0.0,-3.2602,-3.2122,-3.2622,-3.5122,-3.5468,-3.5493,-3.5493,-3.618,-3.6622,-3.6622,-3.7353,-3.7815,-3.7815,-3.7815,-3.745,-3.6642,-3.5834,-3.5449,-3.5493,-3.5449,-3.5815,-3.6603,-3.5872,-3.5911,-3.6603,-3.593,-3.5617,-3.5605,-3.5689,-3.5707,-3.5723,-3.5723,-3.5723,-3.5741,-3.5851,-3.5821,-3.5742,-3.5867,-3.5824,-3.5747,-4.6308,-4.6035,-4.5469,-4.4375,-4.3633,-4.2851,-4.1816,-4.166,-4.2148,-4.3516,-4.3691,-4.4355,-4.6113,-4.6308,-4.6308,-4.6308,-4.6308,-4.6308,-4.6308,-4.6308,-4.6308,-4.6308,-4.6308,-4.6308,-4.6308,-4.6308,-4.6308,-4.6308,-4.6308,-4.6308,-4.6308,-4.6308,-4.6113,-4.5762,-4.4902,-4.4316,-4.3965,-4.3105,-4.2441,-4.1933,-4.1933,-4.1641,-4.1191,-4.1191,-4.1191,-4.1191,-4.1191,-4.1191,-4.1189,-4.1108,-4.0985,-4.0862,-4.0829,-4.0696,-4.0581,-4.0581,-4.0543,-4.0354,-3.9719,-3.9546,-3.9296,-3.8257,-3.8411,-3.8584,-3.77,-3.7084,-3.6622,-3.6315,-3.5853,-3.5493,-3.5493,-3.5493,-3.493,-3.3179,0.0,-3.3795,-3.3006,-3.3564,-3.443,-3.5378,-3.5949,-3.6238,-3.6238,-3.7007,-3.7507,-3.7507,-3.7815,-3.8007,-3.8007,-3.8007,-3.7853,-3.7526,-3.7219,-3.6796,-3.6257,-3.6238,-3.668,-3.7507,-3.7199,-3.7219,-3.7507,-3.7219,-3.7084,-3.7065,-3.6636,-3.6447,-3.64,-3.5916,-3.5693,-3.5704,-3.5766,-3.5737,-3.5721,-3.5847,-3.5868,-3.585,-4.625,-4.6016,-4.5391,-4.4199,-4.3379,-4.2637,-4.1855,-4.1641,-4.2007,-4.3202,-4.3543,-4.4317,-4.6054,-4.623,-4.6245,-4.6309,-4.6259,-4.6253,-4.6308,-4.6222,-4.6218,-4.6308,-4.6308,-4.6308,-4.6308,-4.6308,-4.6308,-4.6308,-4.6308,-4.6308,-4.6308,-4.6308,-4.6308,-4.6269,-4.5391,-4.5,-4.4941,-4.4062,-4.3359,-4.2773,-4.2519,-4.207,-4.1543,-4.1308,-4.1191,-4.1191,-4.1156,-4.113,-4.1128,-4.099,-4.0858,-4.0749,-4.0714,-4.062,-4.0489,-4.0489,-4.0489,-4.0489,-4.0489,-4.0489,-4.0219,-3.9065,-3.9219,-3.945,-3.8604,-3.795,-3.7353,-3.6815,-3.6257,-3.5815,-3.5565,-3.5493,-3.5122,-3.391,-3.4718,-3.5084,-3.3891,-3.4968,-3.5892,-3.5892,-3.6622,-3.7123,-3.7123,-3.7892,-3.8411,-3.8411,-3.8642,-3.8796,-3.8796,-3.8796,-3.8661,-3.8411,-3.8411,-3.8123,-3.7526,-3.7238,-3.7546,-3.8392,-3.8123,-3.8142,-3.8392,-3.8123,-3.8007,-3.795,-3.7175,-3.6843,-3.6771,-3.5968,-3.5641,-3.5641,-3.5661,-3.5666,-3.564,-3.5753,-3.5795,-3.579,-4.6113,-4.5371,-4.459,-4.457,-4.3652,-4.2891,-4.2891,-4.2598,-4.2436,-4.2576,-4.3171,-4.4241,-4.5914,-4.6094,-4.6162,-4.6285,-4.618,-4.6145,-4.6287,-4.6053,-4.6021,-4.6288,-4.6308,-4.6308,-4.6308,-4.6308,-4.6308,-4.6308,-4.6308,-4.6308,-4.6308,-4.6308,-4.6308,-4.6269,-4.5391,-4.5,-4.4941,-4.4082,-4.3711,-4.3633,-4.2754,-4.2402,-4.2305,-4.1504,-4.1191,-4.1187,-4.1052,-4.1001,-4.0969,-4.084,-4.0765,-4.0696,-4.0696,-4.062,-4.0489,-4.0489,-4.0489,-4.0489,-4.0489,-4.0489,-4.0489,-4.0489,-4.0489,-4.0277,-3.9488,-3.9296,-3.8815,-3.7084,-3.6719,-3.6469,-3.5661,-3.5512,-3.5526,-3.5493,-3.5526,-3.5512,-3.5512,-3.6199,-3.6719,-3.6719,-3.7488,-3.8007,-3.8007,-3.8796,-3.9296,-3.9296,-4.0046,-4.0489,-4.0489,-4.0489,-4.0123,-3.9335,-3.9296,-3.9296,-3.9296,-3.843,-3.843,-3.9296,-3.843,-3.8469,-3.9277,-3.8411,-3.8027,-3.7969,-3.7103,-3.6719,-3.6642,-3.5853,-3.5526,-3.5526,-3.5584,-3.5565,-3.5526,-3.5584,-3.5565,-3.5515,-4.4414,-4.4199,-4.3789,-4.3164,-4.2969,-4.2637,-4.1836,-4.1621,-4.1578,-4.1603,-4.2698,-4.4094,-4.5783,-4.6138,-4.626,-4.6304,-4.6046,-4.5931,-4.6009,-4.5905,-4.5893,-4.6021,-4.6013,-4.6027,-4.6027,-4.6027,-4.6074,-4.6152,-4.6152,-4.6211,-4.6308,-4.6308,-4.6308,-4.6269,-4.5296,-4.5251,-4.5859,-4.4836,-4.4477,-4.4531,-4.3613,-4.2891,-4.2305,-4.1504,-4.1139,-4.1071,-4.1117,-4.1033,-4.0847,-4.0808,-4.0747,-4.0677,-4.06,-4.0543,-4.0489,-4.0489,-4.0489,-4.0489,-4.0489,-4.0489,-4.0489,-4.0489,-4.0489,-4.0431,-4.02,-3.97,-3.9142,-3.8623,-3.8046,-3.7353,-3.6507,-3.6353,-3.6161,-3.5603,-3.5968,-3.6353,-3.6353,-3.7084,-3.7603,-3.7603,-3.8373,-3.8911,-3.8911,-3.9662,-4.0142,-4.0142,-4.0354,-4.0489,-4.0489,-4.0489,-4.0392,-4.0142,-4.0142,-4.0142,-4.0142,-3.8719,-3.8719,-4.0123,-3.9296,-3.9335,-4.0123,-3.9873,-3.945,-3.8892,-3.8642,-3.7834,-3.668,-3.6449,-3.6007,-3.5493,-3.5526,-3.5526,-3.5526,-3.5584,-3.5603,-3.5565,-4.3359,-4.2962,-4.2428,-4.1896,-4.1924,-4.1819,-4.1142,-4.1058,-4.1039,-4.0941,-4.1776,-4.3242,-4.5545,-4.5925,-4.6095,-4.6271,-4.595,-4.5738,-4.5776,-4.5738,-4.5738,-4.5776,-4.578,-4.5808,-4.5898,-4.5898,-4.5938,-4.6027,-4.6026,-4.6066,-4.6144,-4.6144,-4.6144,-4.612,-4.5509,-4.5603,-4.6176,-4.5468,-4.5282,-4.5345,-4.4406,-4.3548,-4.2692,-4.1869,-4.1279,-4.0924,-4.0984,-4.0907,-4.0754,-4.0696,-4.0658,-4.062,-4.0543,-4.0489,-4.0489,-4.0489,-4.0489,-4.0489,-4.0489,-4.0489,-4.0489,-4.0489,-4.0489,-4.0489,-4.0489,-4.0123,-3.9681,-3.9373,-3.8873,-3.8257,-3.7373,-3.7219,-3.7046,-3.6565,-3.6911,-3.7219,-3.7219,-3.7969,-3.8507,-3.8507,-3.9258,-3.9758,-3.9758,-4.02,-4.0489,-4.0489,-4.0489,-4.0489,-4.0489,-4.0489,-4.0489,-4.0489,-4.0489,-4.0489,-4.0489,-3.9181,-3.9181,-4.0489,-4.0008,-4.0027,-4.0489,-4.0489,-4.0046,-3.9277,-3.8931,-3.7988,-3.668,-3.6372,-3.5949,-3.5493,-3.5493,-3.5493,-3.5493,-3.5565,-3.5565,-3.5584,-4.2672,-4.1751,-4.0908,-4.0889,-4.0781,-4.0732,-4.0834,-4.085,-4.0773,-4.0543,-4.0658,-4.2005,-4.524,-4.5586,-4.5776,-4.62,-4.5853,-4.5586,-4.5586,-4.5586,-4.5586,-4.5586,-4.5586,-4.5699,-4.5873,-4.5873,-4.5873,-4.5892,-4.5898,-4.5891,-4.591,-4.591,-4.591,-4.591,-4.5891,-4.5951,-4.608,-4.5929,-4.5951,-4.6003,-4.5056,-4.418,-4.3294,-4.2438,-4.1594,-4.0897,-4.0756,-4.0754,-4.0773,-4.0581,-4.0489,-4.0489,-4.0489,-4.0489,-4.0489,-4.0489,-4.0489,-4.0489,-4.0489,-4.0489,-4.0489,-4.0489,-4.0489,-4.0489,-4.0489,-4.0489,-4.0277,-3.9546,-3.9411,-3.9142,-3.8277,-3.8123,-3.8084,-3.8007,-3.8065,-3.8123,-3.8123,-3.8854,-3.9411,-3.9411,-4.0046,-4.0489,-4.0489,-4.0489,-4.0489,-4.0489,-4.0489,-4.0489,-4.0489,-4.0489,-4.0489,-4.0489,-4.0489,-4.0489,-4.0489,-3.9758,-3.9777,-4.0489,-4.0431,-4.0431,-4.0489,-4.0489,-4.0046,-3.9258,-3.8546,-3.7642,-3.6661,-3.5988,-3.5641,-3.5493,-3.5493,-3.5493,-3.5493,-3.5493,-3.5493,-3.5493,-4.1421,-4.1181,-4.0947,-4.0908,-4.0829,-4.0858,-4.1078,-4.0812,-4.0581,-4.0508,-4.0543,-4.1851,-4.522,-4.5586,-4.5624,-4.5738,-4.5643,-4.5586,-4.5586,-4.5586,-4.5586,-4.5586,-4.5586,-4.5605,-4.5643,-4.568,-4.5719,-4.5815,-4.5822,-4.5851,-4.5889,-4.5889,-4.5889,-4.5889,-4.5851,-4.5861,-4.593,-4.5742,-4.5764,-4.5853,-4.4919,-4.4079,-4.3299,-4.2425,-4.1947,-4.1668,-4.1016,-4.112,-4.145,-4.0739,-4.0489,-4.0489,-4.0489,-4.0489,-4.0489,-4.0489,-4.0489,-4.0489,-4.0489,-4.0489,-4.0489,-4.0489,-4.0489,-4.0489,-4.0489,-4.0489,-4.045,-4.0277,-4.0239,-3.9988,-3.9161,-3.9008,-3.8796,-3.8104,-3.8565,-3.9008,-3.9008,-3.9719,-4.0239,-4.0239,-4.0392,-4.0489,-4.0489,-4.0489,-4.0489,-4.0489,-4.0489,-4.0489,-4.0489,-4.0489,-4.0489,-4.0489,-4.0489,-4.0489,-4.0489,-4.0315,-4.0315,-4.0489,-3.9854,-3.9892,-4.0489,-4.0489,-4.0046,-3.9315,-3.9758,-3.8719,-3.6738,-3.7257,-3.668,-3.5493,-3.5493,-3.5493,-3.5493,-3.5493,-3.5493,-3.5493,-4.1535,-4.1503,-4.1331,-4.0889,-4.0716,-4.0696,-4.0831,-4.0658,-4.0489,-4.0489,-4.0489,-4.1797,-4.522,-4.5586,-4.5586,-4.5586,-4.5586,-4.5586,-4.5586,-4.5586,-4.5586,-4.5586,-4.5586,-4.5586,-4.5586,-4.5586,-4.5624,-4.5699,-4.5699,-4.5719,-4.5757,-4.5757,-4.5757,-4.5757,-4.5719,-4.5757,-4.5834,-4.568,-4.5699,-4.5796,-4.5259,-4.4547,-4.3778,-4.3313,-4.289,-4.247,-4.2047,-4.1854,-4.1681,-4.0777,-4.0489,-4.0489,-4.0489,-4.0489,-4.0489,-4.0489,-4.0489,-4.0489,-4.0489,-4.0489,-4.0489,-4.0489,-4.0489,-4.0489,-4.0489,-4.0489,-4.0489,-4.0489,-4.0489,-4.0354,-3.995,-3.9873,-3.9719,-3.9258,-3.9585,-3.9873,-3.9873,-4.0585,-4.0969,-4.0546,-4.1219,-4.1739,-4.1739,-4.1739,-4.1739,-4.1739,-4.1354,-4.1123,-4.1123,-4.0719,-4.0489,-4.0489,-4.0489,-4.0489,-4.0489,-4.0489,-4.0489,-4.0489,-4.0065,-4.0085,-4.0489,-4.0489,-4.0046,-3.9315,-3.9738,-3.87,-3.6738,-3.7199,-3.6642,-3.5493,-3.5493,-3.5493,-3.5493,-3.5493,-3.5493,-3.5493,-4.2063,-4.1932,-4.1527,-4.0812,-4.0581,-4.0489,-4.0489,-4.0489,-4.0489,-4.0489,-4.0489,-4.1797,-4.522,-4.5586,-4.5586,-4.5586,-4.5586,-4.5586,-4.5586,-4.5586,-4.5586,-4.5586,-4.5586,-4.5586,-4.5586,-4.5586,-4.5586,-4.5586,-4.5586,-4.5586,-4.5586,-4.5586,-4.5586,-4.5586,-4.5586,-4.5643,-4.5757,-4.5643,-4.5643,-4.5757,-4.5624,-4.5066,-4.4297,-4.4297,-4.3797,-4.3085,-4.2931,-4.2316,-4.147,-4.0739,-4.0489,-4.0489,-4.0489,-4.0489,-4.0489,-4.0489,-4.0489,-4.0489,-4.0489,-4.0489,-4.0489,-4.0489,-4.0489,-4.0489,-4.0489,-4.0489,-4.0489,-4.0489,-4.0489,-4.0546,-4.0681,-4.0719,-4.0758,-4.0912,-4.0816,-4.0758,-4.0912,-4.1431,-4.1585,-4.1008,-4.222,-4.3104,-4.3104,-4.297,-4.2874,-4.2874,-4.2066,-4.1643,-4.1797,-4.1104,-4.0777,-4.0931,-4.0796,-4.0719,-4.0719,-4.0566,-4.0489,-4.0489,-4.0489,-4.0489,-4.0489,-4.0489,-4.0142,-3.9508,-3.9508,-3.8527,-3.693,-3.693,-3.6372,-3.5493,-3.5493,-3.5493,-3.5493,-3.5493,-3.5493,-3.5493,-4.1874,-4.1401,-4.0812,-4.0581,-4.0508,-4.0489,-4.0489,-4.0489,-4.0489,-4.0489,-4.0489,-4.1797,-4.522,-4.5586,-4.5586,-4.5586,-4.5586,-4.5586,-4.5586,-4.5586,-4.5586,-4.5586,-4.5586,-4.5586,-4.5586,-4.5586,-4.5586,-4.5586,-4.5586,-4.5586,-4.5586,-4.5586,-4.5586,-4.5586,-4.5586,-4.5605,-4.5624,-4.5605,-4.5605,-4.5624,-4.5605,-4.5066,-4.4297,-4.4297,-4.3797,-4.3008,-4.2258,-4.1412,-4.0662,-4.0527,-4.0489,-4.0489,-4.0489,-4.0489,-4.0489,-4.0489,-4.0489,-4.0489,-4.0489,-4.0489,-4.0489,-4.0489,-4.0489,-4.0489,-4.0489,-4.0489,-4.0489,-4.0489,-4.0489,-4.0719,-4.1489,-4.1623,-4.1873,-4.2624,-4.2124,-4.1893,-4.2643,-4.22,-4.2047,-4.2662,-4.2951,-4.3104,-4.3104,-4.2431,-4.1989,-4.1989,-4.1162,-4.0989,-4.1758,-4.17,-4.197,-4.272,-4.2027,-4.1623,-4.1623,-4.0873,-4.0489,-4.0489,-4.0489,-4.0489,-4.0489,-4.0489,-4.0431,-4.0335,-4.0335,-3.9373,-3.7815,-3.7815,-3.6911,-3.5493,-3.5493,-3.5493,-3.5493,-3.5493,-3.5493,-3.5493,-4.1835,-4.1585,-4.1143,-4.0585,-4.0489,-4.0489,-4.0489,-4.0489,-4.0489,-4.0489,-4.0489,-4.1797,-4.522,-4.5586,-4.5586,-4.5586,-4.5586,-4.5586,-4.5586,-4.5586,-4.5586,-4.5586,-4.5586,-4.5586,-4.5586,-4.5586,-4.5586,-4.5586,-4.5586,-4.5586,-4.5586,-4.5586,-4.5586,-4.5586,-4.5586,-4.5586,-4.5586,-4.5586,-4.5586,-4.5586,-4.5586,-4.5355,-4.5028,-4.5028,-4.4797,-4.4316,-4.3008,-4.197,-4.1143,-4.0662,-4.0489,-4.0489,-4.0489,-4.0489,-4.0489,-4.0489,-4.0489,-4.0489,-4.0489,-4.0489,-4.0489,-4.0489,-4.0489,-4.0489,-4.0489,-4.0489,-4.0642,-4.1123,-4.1239,-4.1489,-4.2374,-4.2527,-4.2643,-4.3047,-4.2777,-4.2662,-4.3047,-4.3162,-4.3528,-4.4393,-4.4066,-4.3778,-4.3778,-4.3855,-4.372,-4.3239,-4.2835,-4.2797,-4.3181,-4.2316,-4.22,-4.3066,-4.1777,-4.1316,-4.1797,-4.0931,-4.0489,-4.0489,-4.0489,-4.0489,-4.0489,-4.0489,-4.0489,-4.0469,-4.0008,-3.9123,-3.7969,-3.7469,-3.6565,-3.5493,-3.5493,-3.5493,-3.5493,-3.5493,-3.5795,-3.618]}]]